GFSSE_con_mlcape_000.txt.gz
CAPE
0 0 52 66 207 21 7 0 0 0 0 0 0 7 10 14 0 0 2 7 6 0 0 2 3 5 12 4 9 11 3 0 0 0 0 0 0 5 0 8 11 29 0
0 0 112 323 174 6 0 0 0 0 0 2 3 12 15 8 14 12 10 14 15 8 4 5 7 12 6 16 24 17 1 0 0 0 0 0 0 0 10 0 0 1 40
0 2 303 371 124 6 0 0 0 0 0 1 0 10 24 5 2 5 6 0 6 12 5 3 3 3 4 6 24 14 0 0 0 0 0 1 0 3 0 0 3 7 13
0 0 219 260 144 9 0 0 0 0 1 0 1 18 22 12 7 2 10 0 0 3 0 0 0 0 3 2 5 6 0 0 0 0 0 14 0 2 8 3 2 0 4
4 0 93 102 43 10 2 0 0 0 1 1 24 25 19 15 3 0 1 0 0 0 0 0 0 1 5 6 5 7 0 0 0 0 0 8 0 0 0 0 0 0 0
0 0 46 19 15 13 0 0 0 0 3 6 2 20 20 22 8 0 0 0 1 0 0 0 0 0 2 2 2 2 0 0 0 0 0 0 0 0 0 0 0 0 0
0 6 12 89 22 6 0 0 0 0 3 4 10 12 5 16 8 2 0 0 0 0 0 0 0 0 3 0 4 0 0 0 0 0 1 0 0 0 0 0 0 0 0
0 1 66 61 0 0 2 0 0 0 4 5 9 0 0 3 11 6 2 15 5 4 0 0 0 0 2 0 0 0 0 0 0 0 0 0 0 0 0 0 0 0 0
0 0 0 0 0 0 1 0 0 9 4 6 7 0 0 0 12 13 13 16 21 0 0 0 0 0 0 0 0 0 0 0 0 0 0 0 0 0 0 0 0 0 0
0 0 0 0 0 0 0 0 1 6 3 4 4 0 0 0 4 8 0 2 0 0 0 0 0 0 0 0 0 0 0 0 0 0 0 0 0 0 0 0 0 0 0
0 0 0 0 0 0 0 0 0 0 1 0 1 0 0 0 0 0 0 0 0 0 0 0 0 0 0 0 0 0 0 0 0 0 0 0 0 0 0 0 0 0 0
0 0 0 0 0 0 0 0 0 0 0 0 0 0 0 0 0 0 0 0 0 0 0 0 0 0 0 0 0 0 0 0 0 0 0 0 0 0 0 0 0 0 0
0 0 0 0 0 0 0 0 0 0 0 0 0 0 0 0 0 0 0 0 0 0 0 0 0 0 0 0 0 0 0 0 0 0 0 0 0 0 0 0 0 0 0
0 0 0 0 0 0 0 0 0 0 0 0 0 0 0 0 0 0 0 0 0 0 0 0 0 0 0 0 0 0 0 0 0 0 0 0 0 0 0 0 0 0 0
0 0 0 0 0 0 0 0 0 0 0 0 0 0 0 0 0 0 0 0 0 0 0 0 0 0 0 0 0 0 0 0 0 0 0 0 0 0 0 0 0 0 0
0 0 0 0 0 0 0 0 0 0 0 0 0 0 0 0 0 0 0 0 0 0 0 0 0 0 0 0 0 0 0 0 0 0 0 0 0 0 0 0 0 0 0
0 0 0 0 0 0 0 0 0 0 0 0 0 0 0 0 0 0 0 0 0 0 0 0 0 0 0 0 0 0 0 0 0 0 0 0 0 0 0 0 0 0 0
0 0 0 0 0 0 0 0 0 0 0 0 0 0 0 0 0 0 0 0 0 0 0 0 0 0 0 0 0 0 0 0 0 0 0 0 0 0 0 0 0 0 0
0 0 0 0 0 0 0 0 0 0 0 0 0 0 0 0 0 0 0 0 0 0 0 0 0 0 0 0 0 0 0 0 0 0 0 0 0 0 0 0 0 0 0
0 0 0 0 0 0 0 0 0 0 0 0 0 0 0 0 0 0 0 0 0 0 0 0 0 0 0 0 0 0 0 0 0 0 0 0 0 0 0 0 0 0 0
0 0 0 0 0 0 0 0 0 0 0 0 0 0 0 0 0 0 0 0 0 0 0 0 0 0 0 0 0 0 0 0 0 0 0 0 0 0 0 0 0 0 0
0 0 0 0 0 0 0 0 0 0 0 0 0 0 0 0 0 0 0 0 0 0 0 0 0 0 0 0 0 0 0 0 0 0 0 0 0 0 0 0 0 0 0
0 0 0 0 0 0 0 0 0 0 0 0 0 0 0 0 0 0 0 0 0 0 0 0 0 0 0 0 0 1 1 0 0 0 0 0 0 0 0 0 0 0 0
0 0 0 0 0 0 0 0 0 0 0 0 0 0 0 0 0 0 0 0 0 0 1 1 0 0 0 0 1 2 0 0 0 0 0 0 0 0 0 0 0 0 0
0 0 0 0 0 0 0 0 0 0 0 0 0 0 0 0 0 0 0 0 0 2 7 5 6 1 0 0 0 0 4 0 0 0 0 0 0 0 0 0 0 0 0
0 0 0 0 0 0 0 0 0 0 0 0 0 0 0 0 0 0 0 0 0 0 16 34 68 62 45 23 21 9 2 3 0 1 0 0 0 0 0 0 0 0 0

GFSSE_con_mlcape_006.txt.gz
CAPE
6 3 113 441 433 260 43 9 0 0 0 0 4 9 6 12 1 17 17 15 11 7 3 6 8 36 21 33 24 17 0 0 0 0 0 0 5 23 10 0 18 9 18
25 84 193 359 533 313 26 8 0 0 0 0 1 1 17 17 14 12 25 25 19 11 4 5 2 16 11 11 19 0 0 0 0 0 0 0 7 5 0 0 18 22 38
54 140 279 543 574 226 10 3 0 0 0 0 7 9 26 25 14 7 4 16 23 17 3 3 0 7 9 37 27 5 0 0 0 0 0 4 0 0 1 0 11 32 31
103 163 180 618 444 77 5 0 0 0 0 0 3 33 32 25 22 18 9 0 8 4 3 2 3 3 1 7 16 7 0 0 0 0 0 0 0 1 1 1 3 9 10
122 165 252 675 381 43 0 0 0 0 0 1 16 28 40 25 17 7 0 0 0 1 0 4 1 1 0 1 8 0 0 0 0 0 1 0 0 0 0 0 1 0 0
104 145 496 660 409 71 0 0 0 0 0 6 20 25 24 23 19 2 0 0 0 0 0 0 0 0 0 0 2 0 0 0 0 0 0 0 0 0 0 0 0 0 0
86 136 456 583 382 114 0 0 0 0 1 0 12 17 17 27 7 3 0 0 0 0 0 0 0 0 0 0 1 0 0 0 0 0 0 0 0 0 0 0 0 0 0
89 192 400 521 370 113 0 0 0 0 0 1 13 13 5 7 0 0 0 0 0 0 0 0 0 0 0 1 0 1 0 0 0 0 0 0 0 0 0 0 0 0 0
128 258 422 465 384 88 0 0 0 0 0 3 5 2 0 0 0 0 0 10 10 9 0 0 0 0 0 2 1 0 0 0 0 0 0 0 0 0 0 0 0 0 0
72 179 246 214 100 3 0 0 0 0 0 1 1 1 0 0 0 0 0 0 7 14 0 0 0 0 0 0 2 0 0 0 0 0 0 0 0 0 0 0 0 0 0
15 67 99 22 0 0 0 0 0 0 0 0 0 0 0 0 0 0 0 0 0 0 0 0 0 0 0 0 0 0 0 0 0 0 0 0 0 0 0 0 0 0 0
0 6 1 0 0 0 0 0 0 0 0 0 0 0 0 0 0 0 0 0 0 0 0 0 0 0 0 0 0 0 0 0 0 0 0 0 0 0 0 0 0 0 0
0 0 0 0 0 0 0 0 0 0 0 0 0 0 0 0 0 0 0 0 0 0 0 0 0 0 0 0 0 0 0 0 0 0 0 0 0 0 0 0 0 0 0
0 0 0 0 0 0 0 0 0 0 0 0 0 0 0 0 0 0 0 0 0 0 0 0 0 0 0 0 0 0 0 0 0 0 0 0 0 0 0 0 0 0 0
0 0 0 0 0 0 0 0 0 0 0 0 0 0 0 0 0 0 0 0 0 0 0 0 0 0 0 0 0 0 0 0 0 0 0 0 0 0 0 0 0 0 0
0 0 0 0 0 0 0 0 0 0 0 0 0 0 0 0 0 0 0 0 0 0 0 0 0 0 0 0 0 0 0 0 0 0 0 0 0 0 0 0 0 0 0
0 0 0 0 0 0 0 0 0 0 0 0 0 0 0 0 0 0 0 0 0 0 0 0 0 0 0 0 0 0 0 0 0 0 0 0 0 0 0 0 0 0 0
0 0 0 0 0 0 0 0 0 0 0 0 0 0 0 0 0 0 0 0 0 0 0 0 0 0 0 0 0 0 0 0 0 0 0 0 0 0 0 0 0 0 0
0 0 0 0 0 0 0 0 0 0 0 0 0 0 0 0 0 0 0 0 0 0 0 0 0 0 0 0 0 0 0 0 0 0 0 0 0 0 0 0 0 0 0
0 0 0 0 0 0 0 0 0 0 0 0 0 0 0 0 0 0 0 0 0 0 0 0 0 0 0 0 0 0 0 0 0 0 0 0 0 0 0 0 0 0 0
0 0 0 0 0 0 0 0 0 0 0 0 0 0 0 0 0 0 0 0 0 0 0 0 0 0 0 0 0 0 0 0 0 0 0 0 0 0 0 0 0 0 0
0 0 0 0 0 0 0 0 0 0 0 0 0 0 0 0 0 0 0 0 0 0 0 0 0 0 0 0 0 0 1 0 0 0 0 0 0 0 0 0 0 0 0
0 0 0 0 0 0 0 0 0 0 0 0 0 0 0 0 0 0 0 0 0 0 0 0 0 0 0 0 0 0 0 0 0 0 0 0 0 0 0 0 0 0 0
0 0 0 0 0 0 0 0 0 0 0 0 0 0 0 0 0 0 0 0 0 0 0 0 0 0 0 0 0 0 0 0 0 1 0 0 0 0 0 0 0 0 0
0 0 0 0 0 0 0 0 0 0 0 0 0 0 0 0 0 0 0 0 0 3 10 7 11 10 10 14 9 4 1 1 1 2 3 0 0 0 0 0 0 0 0
0 0 0 0 0 0 0 0 0 0 0 0 0 0 0 0 0 0 0 0 0 0 1 16 39 50 73 88 54 49 28 33 13 12 10 4 0 0 0 0 0 0 0

GFSSE_con_mlcape_009.txt.gz
CAPE
1 0 214 538 425 432 163 39 12 0 0 0 0 6 5 4 0 13 2 8 9 4 0 0 13 39 33 37 37 20 3 0 0 0 0 1 7 25 12 10 8 0 8
12 12 224 438 490 333 164 22 2 0 0 0 2 1 12 15 9 4 15 23 16 9 2 2 1 20 16 12 20 10 2 0 0 0 0 0 9 18 1 3 26 35 29
32 100 241 427 557 386 189 21 5 0 0 0 3 5 31 20 27 17 15 17 20 13 1 1 0 15 9 31 20 9 0 0 0 0 0 0 8 1 15 4 20 31 21
82 181 216 426 641 520 157 7 2 0 0 0 1 9 30 19 18 19 7 1 4 1 3 5 2 3 3 25 26 8 0 0 0 0 0 0 0 9 5 0 8 10 16
121 174 200 511 723 352 153 0 0 0 0 0 0 18 44 32 20 21 9 0 0 4 1 5 5 1 0 1 0 8 0 0 0 0 0 0 0 0 0 0 1 0 0
121 141 182 628 568 345 109 10 0 0 0 0 6 9 54 21 15 11 1 0 0 0 0 0 0 0 0 0 0 5 0 0 0 0 0 0 0 0 0 0 0 0 0
93 128 222 696 597 364 88 3 0 0 0 0 14 22 22 33 14 4 0 0 0 0 0 0 0 0 0 0 0 5 0 0 0 0 0 0 0 0 0 0 0 0 0
65 108 391 717 634 426 155 5 0 0 0 0 1 10 8 17 12 0 4 1 0 1 0 0 0 0 0 1 1 2 5 0 0 0 0 0 0 0 0 0 0 0 0
50 111 315 632 610 437 154 20 0 0 0 0 3 6 7 8 2 0 0 0 5 4 8 4 0 0 0 0 3 1 0 0 0 0 0 0 0 0 0 0 0 0 0
59 141 230 396 456 343 70 12 1 0 0 0 2 0 0 0 0 0 0 0 0 8 10 8 0 0 0 0 1 4 0 0 0 0 0 0 0 0 0 0 0 0 0
40 128 197 242 208 199 17 0 0 0 0 0 0 0 0 0 0 0 0 0 0 0 14 11 2 0 0 0 0 0 3 0 0 0 0 0 0 0 0 0 0 0 0
1 50 168 165 75 20 1 0 0 0 0 0 0 0 0 0 0 0 0 0 0 0 0 1 1 0 0 0 0 0 0 0 0 0 0 0 0 0 0 0 0 0 0
0 0 51 53 6 0 0 0 0 0 0 0 0 0 0 0 0 0 0 0 0 0 0 0 0 0 0 0 0 0 0 0 0 0 0 0 0 0 0 2 2 0 0
0 0 0 1 0 0 0 0 0 0 0 0 0 0 0 0 0 0 0 0 0 0 0 0 0 0 0 0 0 0 0 0 0 0 0 0 0 0 0 0 6 5 0
0 0 0 0 0 0 0 0 0 0 0 0 0 0 0 0 0 0 0 0 0 0 0 0 0 0 0 0 0 0 0 0 0 0 0 0 0 0 0 0 8 17 10
0 0 0 0 0 0 0 0 0 0 0 0 0 0 0 0 0 0 0 0 0 0 0 0 0 0 0 0 0 0 0 0 0 0 0 0 0 0 0 0 0 3 17
0 0 0 0 0 0 0 0 0 0 0 0 0 0 0 0 0 0 0 0 0 0 0 0 0 0 0 0 0 0 0 0 0 0 0 0 0 0 0 0 0 0 0
0 0 0 0 0 0 0 0 0 0 0 0 0 0 0 0 0 0 0 0 0 0 0 0 0 0 0 0 0 0 0 0 0 0 0 0 0 0 0 0 0 0 0
0 0 0 0 0 0 0 0 0 0 0 0 0 0 0 0 0 0 0 0 0 0 0 0 0 0 0 0 0 0 0 0 0 0 0 0 0 0 0 0 0 0 0
0 0 0 0 0 0 0 0 0 0 0 0 0 0 0 0 0 0 0 0 0 0 0 0 0 0 0 0 0 0 0 0 0 0 0 0 0 0 0 0 0 0 0
0 0 0 0 0 0 0 0 0 0 0 0 0 0 0 0 0 0 0 0 0 0 0 0 0 0 0 0 0 0 0 0 0 0 0 0 0 0 0 0 0 0 0
0 0 0 0 0 0 0 0 0 0 0 0 0 0 0 0 0 0 0 0 0 0 0 0 0 0 0 0 0 1 0 0 0 0 0 0 0 0 0 0 0 0 0
0 0 0 0 0 0 0 0 0 0 0 0 0 0 0 0 0 0 0 0 0 0 0 0 0 0 1 0 0 0 2 5 0 0 0 0 0 0 0 0 0 0 0
0 0 0 0 0 0 0 0 0 0 0 0 0 0 0 0 0 0 0 0 0 0 0 0 0 1 3 5 1 0 0 2 16 17 1 0 0 0 0 0 0 0 0
0 0 0 0 0 0 0 0 0 0 0 0 0 0 0 0 0 0 0 0 0 0 0 0 0 0 21 16 24 29 29 3 1 4 3 2 0 0 0 0 0 0 0
0 0 0 0 0 0 0 0 0 0 0 0 0 0 0 0 0 0 0 0 0 0 0 0 0 0 0 0 0 3 1 6 25 25 24 30 16 2 0 0 0 0 0

GFSSE_con_mlcape_012.txt.gz
CAPE
0 0 291 659 301 246 222 73 27 15 0 0 0 0 3 1 0 0 4 8 9 8 1 0 0 55 41 41 34 17 0 0 0 0 0 0 8 22 11 14 0 0 0
5 3 261 670 444 393 204 113 13 0 0 0 0 2 5 6 6 0 5 17 4 1 3 0 0 16 15 9 10 10 3 0 0 0 0 0 0 9 0 9 15 12 16
9 18 245 552 520 429 242 157 10 0 0 0 0 0 11 14 22 11 14 18 21 7 1 3 0 4 3 16 28 13 7 0 0 0 0 0 0 0 1 7 37 45 36
25 52 206 410 507 442 347 166 14 0 0 0 0 0 41 30 8 3 5 1 5 1 1 0 2 1 2 10 43 11 2 0 0 0 0 0 0 2 9 0 19 25 23
60 112 175 385 571 529 344 142 22 0 0 0 0 0 39 17 15 18 2 1 0 0 1 0 7 6 1 1 4 7 3 0 0 0 0 0 0 2 8 1 6 5 0
82 141 151 308 665 557 343 145 22 0 0 0 0 6 29 30 17 20 6 0 0 0 0 0 5 2 5 0 0 2 6 0 0 0 0 0 0 0 2 0 0 0 0
78 111 130 310 673 507 382 194 28 0 0 0 7 12 23 33 23 6 0 0 0 0 0 0 0 2 1 0 0 1 6 2 0 0 0 0 0 0 2 0 0 0 0
68 96 131 379 602 520 352 202 45 0 0 0 2 8 9 2 30 0 0 0 0 2 3 5 2 0 0 5 4 4 5 12 0 0 0 0 0 0 6 2 0 0 0
68 106 118 419 581 510 363 205 52 0 0 0 0 0 0 1 3 1 0 3 1 6 13 22 17 13 3 1 1 4 4 4 0 0 0 0 0 0 6 3 1 0 0
63 104 129 331 467 421 328 218 84 4 0 0 0 4 0 0 0 0 0 0 0 2 20 17 25 16 11 2 0 1 3 3 0 0 0 0 0 0 1 3 1 0 0
30 92 140 211 337 359 273 137 69 10 0 0 0 0 0 0 0 0 0 0 0 0 3 20 30 21 13 0 0 0 0 0 0 0 0 0 0 0 1 11 7 4 0
1 45 120 166 204 240 238 81 8 0 0 0 0 0 0 0 0 0 0 0 0 0 0 0 9 12 11 0 0 0 0 0 0 0 0 0 0 0 0 4 9 6 5
0 7 74 89 121 125 72 5 0 0 0 0 0 0 0 0 0 0 0 0 0 0 0 0 0 0 0 0 0 0 0 0 0 0 0 0 0 0 0 0 4 12 10
0 0 6 30 73 30 4 0 0 0 0 0 0 0 0 0 0 0 0 0 0 0 0 0 0 0 0 0 0 0 0 0 0 0 0 0 0 0 0 0 0 9 30
0 0 0 0 11 4 0 0 0 0 0 0 0 0 0 0 0 0 0 0 0 0 0 0 0 0 0 0 0 0 0 0 0 0 0 0 0 0 0 0 0 0 5
0 0 0 0 0 0 0 0 0 0 0 0 0 0 0 0 0 0 0 0 0 0 0 0 0 0 0 0 0 0 0 0 0 0 0 0 0 0 0 0 0 0 0
0 0 0 0 0 0 0 0 0 0 0 0 0 0 0 0 0 0 0 0 0 0 0 0 0 0 0 0 0 0 0 0 0 0 0 0 0 0 0 0 0 0 0
0 0 0 0 0 0 0 0 0 0 0 0 0 0 0 0 0 0 0 0 0 0 0 0 0 0 0 0 0 0 0 0 0 0 0 0 0 0 0 0 0 0 0
0 0 0 0 0 0 0 0 0 0 0 0 0 0 0 0 0 0 0 0 0 0 0 0 0 0 0 0 0 0 0 0 0 0 0 0 0 0 0 0 0 0 0
0 0 0 0 0 0 0 0 0 0 0 0 0 0 0 0 0 0 0 0 0 0 0 0 0 0 0 0 0 0 0 0 0 0 0 0 0 0 0 0 0 0 0
0 0 0 0 0 0 0 0 0 0 0 0 0 0 0 0 0 0 0 0 0 0 0 0 0 0 0 0 0 0 0 0 0 0 0 0 0 0 0 0 0 0 0
0 0 0 0 0 0 0 0 0 0 0 0 0 0 0 0 0 0 0 0 0 0 0 0 0 0 0 0 0 2 0 1 0 0 0 0 0 0 0 0 0 0 0
0 0 0 0 0 0 0 0 0 0 0 0 0 0 0 0 0 0 0 0 0 0 0 0 0 1 4 1 0 1 16 29 39 5 0 0 0 0 0 0 0 0 0
0 0 0 0 0 0 0 0 0 0 0 0 0 0 0 0 0 0 0 0 0 0 0 0 0 0 0 0 1 15 25 32 37 12 19 7 0 0 0 0 0 0 0
0 0 0 0 0 0 0 0 0 0 0 0 0 0 0 0 0 0 0 0 0 0 0 0 0 0 0 0 0 0 0 0 0 8 1 0 0 2 12 0 0 0 0
0 0 0 0 0 0 0 0 0 0 0 0 0 0 0 0 0 0 0 0 0 0 0 0 0 0 0 0 0 0 0 0 0 1 0 3 6 1 1 4 9 0 0

GFSSE_con_mlcape_015.txt.gz
CAPE
0 0 195 645 479 182 118 73 26 9 0 0 0 0 0 0 0 0 2 3 4 2 0 0 0 49 31 29 21 19 1 0 0 0 0 0 0 13 5 3 0 0 0
0 0 359 884 240 290 224 92 61 21 0 0 0 2 0 1 0 0 0 4 6 2 0 0 0 22 22 4 7 14 2 0 0 0 0 0 0 4 0 0 13 0 10
2 1 294 682 445 464 248 140 45 12 0 0 0 0 2 10 11 7 8 7 10 6 0 0 0 0 6 3 10 17 10 2 0 0 0 0 0 1 0 1 25 36 44
6 23 198 638 558 410 264 168 67 16 0 0 0 1 9 22 6 1 0 0 4 2 2 0 0 1 9 4 46 15 6 0 0 0 0 0 0 0 3 4 16 34 30
25 52 165 475 537 410 339 190 91 8 0 0 0 6 38 28 15 2 0 0 0 0 0 0 0 2 6 0 5 15 3 0 0 0 0 0 0 0 13 5 2 27 7
52 95 160 296 539 387 353 208 108 15 0 0 0 1 24 40 15 2 0 0 0 0 0 0 0 9 7 6 1 4 15 11 0 0 0 0 0 0 1 8 5 7 1
73 137 138 227 435 651 347 218 114 11 0 0 1 12 12 45 21 0 0 0 0 0 0 1 0 0 7 6 5 6 5 9 3 0 0 0 0 0 7 7 3 1 1
75 108 111 197 545 507 417 295 168 21 0 0 0 15 21 14 5 7 0 0 0 1 7 9 8 2 0 1 6 6 11 4 7 1 0 0 0 0 0 10 5 2 1
97 104 114 169 570 536 432 301 213 79 0 0 0 1 1 1 0 0 0 4 13 14 5 12 20 22 22 12 7 4 4 11 6 11 0 0 0 0 1 8 15 11 6
80 109 123 164 520 584 492 297 204 94 0 0 0 0 3 0 0 0 0 3 14 12 12 21 24 25 25 27 15 4 0 0 5 9 1 0 0 0 3 13 19 11 9
42 89 144 165 363 463 423 317 223 107 11 2 0 0 0 0 0 0 0 0 0 0 0 6 19 31 19 14 5 0 0 0 0 0 1 0 0 0 0 7 14 19 14
3 49 124 172 256 343 367 304 241 151 47 0 0 0 0 0 0 0 0 0 0 0 0 0 0 0 0 2 0 0 0 0 0 0 0 0 0 0 0 0 3 12 19
0 1 71 110 189 251 301 264 188 84 8 0 0 0 0 0 0 0 0 0 0 0 0 0 0 0 0 0 0 0 0 0 0 0 0 0 0 0 0 0 0 2 8
0 0 0 68 127 172 207 187 90 16 0 0 0 0 0 0 0 0 0 0 0 0 0 0 0 0 0 0 0 0 0 0 0 0 0 0 0 0 0 0 0 0 0
0 0 0 0 49 103 124 84 19 0 0 0 0 0 0 0 0 0 0 0 0 0 0 0 0 0 0 0 0 0 0 0 0 0 0 0 0 0 0 0 0 0 0
0 0 0 0 0 17 51 34 5 0 0 0 0 0 0 0 0 0 0 0 0 0 0 0 0 0 0 0 0 0 0 0 0 0 0 0 0 0 0 0 0 0 0
0 0 0 0 0 0 0 3 0 0 0 0 0 0 0 0 0 0 0 0 0 0 0 0 0 0 0 0 0 0 0 0 0 0 0 0 0 0 0 0 0 0 0
0 0 0 0 0 0 0 0 0 0 0 0 0 0 0 0 0 0 0 0 0 0 0 0 0 0 0 0 0 0 0 0 0 0 0 0 0 0 0 0 0 0 0
0 0 0 0 0 0 0 0 0 0 0 0 0 0 0 0 0 0 0 0 0 0 0 0 0 0 0 0 0 0 0 0 0 0 0 0 0 0 0 0 0 0 0
0 0 0 0 0 0 0 0 0 0 0 0 0 0 0 0 0 0 0 0 0 0 0 0 1 0 0 0 0 0 1 0 0 0 0 0 0 0 0 0 0 0 0
0 0 0 0 0 0 0 0 0 0 0 0 0 0 0 0 0 0 0 0 0 0 0 0 0 0 0 7 1 0 0 0 0 0 0 0 0 0 0 0 0 0 0
0 0 0 0 0 0 0 0 0 0 0 0 0 0 0 0 0 0 0 0 0 0 0 0 0 0 0 0 13 15 10 0 1 8 2 0 0 0 0 0 0 0 0
0 0 0 0 0 0 0 0 0 0 0 0 0 0 0 0 0 0 0 0 0 0 0 0 0 0 0 0 0 3 2 2 0 0 0 0 0 0 0 0 0 0 0
0 0 0 0 0 0 0 0 0 0 0 0 0 0 0 0 0 0 0 0 0 0 0 0 0 0 0 0 0 0 0 0 0 0 0 0 0 0 0 0 1 0 0
0 0 0 0 0 0 0 0 0 0 0 0 0 0 0 0 0 0 0 0 0 0 0 0 0 0 0 0 0 0 0 0 0 0 0 0 0 0 0 0 0 0 10
0 0 0 0 0 0 0 0 0 0 0 0 0 0 0 0 0 0 0 0 0 0 0 0 0 0 0 0 0 0 0 8 18 13 0 0 0 0 1 9 8 1 4

GFSSE_con_mlcape_018.txt.gz
CAPE
0 0 343 660 564 303 138 84 31 1 0 0 0 0 0 0 0 0 0 0 3 2 0 0 0 8 37 27 18 10 5 0 0 0 0 0 0 9 9 0 0 0 0
0 0 181 502 672 328 154 91 77 15 0 0 0 0 2 0 0 0 0 1 11 2 0 0 0 8 26 2 6 9 9 0 0 0 0 0 0 0 3 0 0 4 0
8 0 211 949 413 323 234 153 78 37 6 0 0 0 3 14 13 3 9 3 8 1 0 0 0 2 6 4 12 11 12 1 0 0 0 0 0 0 0 0 1 23 21
14 5 215 783 450 402 248 158 65 26 3 0 0 0 9 26 11 12 0 0 0 0 0 0 0 0 0 9 15 21 4 2 0 0 0 0 0 0 0 0 3 23 43
28 41 135 590 641 382 317 178 104 50 10 0 0 0 8 42 11 3 0 0 0 0 0 0 0 0 2 7 4 8 13 1 0 0 0 0 1 0 0 17 0 8 24
44 67 168 637 534 398 348 226 135 60 18 0 0 0 11 51 23 9 0 0 0 0 0 0 0 3 6 8 0 10 17 16 7 5 0 0 0 4 0 5 8 2 12
63 85 118 395 599 590 454 239 177 73 3 0 0 4 17 22 53 14 0 0 0 0 0 0 1 1 0 1 5 3 10 3 0 8 2 0 0 10 14 16 13 5 3
93 113 82 167 447 685 483 280 198 87 17 0 0 7 17 43 9 5 2 0 0 3 6 9 9 10 6 2 0 3 4 5 1 5 6 0 0 0 8 24 12 12 5
115 120 87 91 208 654 488 320 232 146 25 0 0 1 10 0 0 0 0 3 12 24 13 15 20 26 25 23 21 14 7 3 4 1 3 2 0 0 0 16 8 23 13
126 145 118 120 234 513 458 329 241 192 63 0 0 0 0 0 0 0 0 0 0 0 6 0 0 21 28 23 6 6 0 0 0 0 0 0 0 0 0 0 12 11 17
88 154 195 173 255 421 393 348 248 168 100 20 0 0 0 0 2 0 0 0 0 0 0 0 0 0 0 0 0 0 0 0 0 0 0 0 0 0 0 0 0 9 12
49 113 188 257 277 408 391 358 335 217 141 51 3 0 0 0 0 0 0 0 0 0 0 0 0 0 0 0 0 0 1 0 0 0 0 0 0 0 0 0 0 0 3
1 39 113 218 297 363 397 350 302 242 146 57 10 0 0 0 0 0 0 0 0 0 0 0 0 0 0 0 0 0 0 0 0 0 0 0 0 0 0 0 0 0 0
0 0 14 134 228 303 351 374 313 247 172 89 10 0 0 0 0 0 0 0 0 0 0 0 0 0 0 0 0 0 0 0 0 0 0 0 0 0 0 0 0 0 0
0 0 0 12 119 226 312 328 329 251 154 67 28 1 0 0 0 0 0 0 0 0 0 0 0 0 0 0 0 0 0 0 0 0 0 0 0 0 0 0 0 0 0
0 0 0 0 2 103 215 278 290 254 152 67 13 0 0 0 0 0 0 0 0 0 0 0 0 0 0 0 0 0 0 0 0 0 0 0 0 0 0 0 0 0 0
0 0 0 0 0 8 119 182 225 217 81 39 5 0 0 0 0 0 0 0 0 0 0 0 0 0 0 1 1 0 0 2 0 0 2 0 0 0 0 0 0 0 0
0 0 0 0 0 0 48 88 97 51 28 16 0 0 0 0 0 0 0 0 0 0 0 0 3 3 5 7 6 6 6 4 1 1 1 0 0 0 0 0 0 0 0
0 0 0 0 0 0 1 2 0 0 0 0 0 0 0 0 0 0 0 0 1 2 2 2 0 1 1 3 2 2 2 1 1 3 3 1 0 0 0 0 0 0 0
0 0 0 0 0 0 0 0 0 0 0 0 0 0 0 0 0 0 0 0 0 0 0 0 0 0 0 1 1 0 0 0 0 0 4 7 14 9 6 6 1 0 0
0 0 0 0 0 0 0 0 0 0 0 0 0 0 0 0 0 0 0 0 0 0 0 0 0 0 0 0 0 0 0 0 0 0 22 21 7 9 18 38 26 25 14
0 0 0 0 0 0 1 0 0 0 0 0 0 0 0 0 0 0 0 0 0 0 0 0 0 0 0 0 0 0 0 0 0 0 0 0 0 0 0 20 38 47 46
0 0 0 0 0 0 0 0 0 0 0 0 0 0 0 0 0 0 0 0 0 0 0 0 0 0 0 0 0 0 0 0 0 0 0 0 0 0 0 0 0 3 6
0 0 0 0 0 0 0 0 0 0 0 0 0 0 0 0 0 0 0 0 0 0 0 0 0 0 0 0 0 0 0 0 0 0 0 0 0 0 0 0 0 0 0
0 0 0 0 0 0 0 0 0 0 0 0 0 0 0 0 0 0 0 0 0 0 0 0 0 0 0 0 0 0 0 0 0 0 0 0 0 0 0 0 0 0 0
0 0 0 0 0 0 0 0 0 0 0 0 0 0 0 0 0 0 0 0 0 0 0 0 0 0 0 0 0 0 0 0 0 0 0 0 0 0 0 0 0 1 14

GFSSE_con_mlcape_021.txt.gz
CAPE
0 174 586 773 510 240 155 83 33 0 0 0 0 0 0 0 0 0 1 0 0 1 0 0 0 0 33 31 15 8 7 3 0 0 0 0 0 1 13 0 0 2 0
0 39 735 801 579 316 214 86 49 2 0 0 0 0 0 0 0 0 0 0 14 1 0 0 0 1 24 4 12 21 8 10 0 0 0 0 0 0 3 0 0 8 3
0 15 322 691 793 393 158 112 71 12 0 0 0 0 1 10 9 0 14 9 20 4 0 0 0 0 2 12 25 21 17 5 0 0 0 0 0 0 0 0 0 1 26
0 12 98 660 676 379 202 147 86 50 10 0 0 0 4 15 14 12 0 0 2 3 0 0 0 0 0 1 8 15 7 3 0 0 0 0 0 6 0 0 0 0 26
0 8 505 725 598 501 248 131 94 55 5 0 0 0 6 23 39 5 4 0 0 0 0 0 0 0 0 0 0 2 18 16 3 0 0 0 0 0 0 0 6 0 14
8 26 454 535 656 446 240 226 100 65 46 0 0 0 13 13 88 13 0 0 0 0 0 0 0 0 0 5 0 0 6 22 10 1 1 0 0 0 3 0 4 5 0
31 51 269 567 685 551 461 239 140 85 12 0 0 0 18 32 142 14 3 0 0 0 0 1 0 0 0 0 0 0 3 0 0 0 0 2 0 0 6 8 6 9 3
47 62 96 328 577 585 532 269 166 99 19 2 0 0 19 31 12 11 9 0 0 0 1 3 10 10 9 3 1 0 0 0 0 0 0 0 0 0 0 1 7 6 10
79 83 75 73 188 256 553 276 165 116 37 8 0 0 7 0 0 0 0 0 0 0 8 0 0 8 9 8 3 2 0 0 0 0 0 0 0 0 0 0 1 12 20
100 109 90 102 136 418 374 264 167 121 83 6 1 0 0 0 0 0 0 0 0 0 0 0 0 0 0 0 0 0 0 0 0 0 0 0 0 0 0 0 0 1 9
69 139 140 139 186 368 376 462 124 90 86 40 0 0 0 0 0 0 0 0 0 0 0 0 0 0 0 0 0 0 0 0 0 0 0 0 0 0 0 0 0 0 1
43 88 193 216 223 353 298 346 293 234 150 99 34 3 1 0 0 0 0 0 0 0 0 0 0 0 0 0 0 0 0 0 0 0 0 0 0 0 0 0 0 0 0
12 55 104 231 275 326 387 289 271 199 143 76 22 0 0 0 0 0 0 0 0 0 0 0 0 0 0 0 0 0 0 0 0 0 0 0 0 0 0 0 0 0 0
0 0 37 90 234 281 356 348 292 235 184 124 35 3 0 0 0 0 0 0 0 0 0 0 0 0 0 0 0 0 0 0 0 0 0 0 0 0 0 0 0 0 0
0 0 4 28 113 203 295 329 334 278 221 149 115 64 3 0 0 0 0 0 0 0 0 0 0 0 1 3 4 4 5 5 6 7 5 1 0 0 0 0 0 2 1
0 0 8 12 18 93 225 322 331 323 247 187 138 99 41 1 0 1 0 1 1 2 2 3 3 6 8 7 10 11 12 17 14 12 12 9 3 0 0 0 0 2 10
0 0 0 0 0 29 152 280 343 341 263 218 168 110 37 3 1 1 1 2 7 10 9 5 5 4 3 4 4 4 13 13 6 3 1 5 15 16 9 8 1 0 1
0 0 0 0 0 0 105 230 297 301 231 194 124 46 19 3 3 2 6 5 4 2 5 4 2 7 5 4 1 0 0 0 0 0 0 0 13 11 14 12 11 5 0
0 0 0 0 0 0 118 185 164 92 60 25 3 2 4 4 3 3 1 0 0 0 0 0 0 0 0 0 0 0 0 0 0 0 0 0 2 18 22 14 11 8 1
0 0 0 0 2 21 52 48 49 45 6 0 0 0 0 0 0 0 0 0 0 0 0 0 0 0 0 0 0 0 0 0 0 0 1 10 10 9 2 6 31 52 34
0 0 0 0 5 34 64 56 0 0 0 0 0 0 0 0 0 0 0 0 0 0 0 0 0 0 0 0 0 0 0 0 0 0 0 0 0 0 0 0 0 7 31
0 0 0 0 3 2 0 0 0 0 0 0 0 0 0 0 0 0 0 0 0 0 0 0 0 0 0 0 0 0 0 0 0 0 0 0 0 0 0 0 0 0 0
0 0 0 0 0 0 0 0 0 0 0 0 0 0 0 0 0 0 0 0 0 0 0 0 0 0 0 0 0 0 0 0 0 0 0 0 0 0 0 0 0 0 0
0 0 0 0 0 0 0 0 0 0 0 0 0 0 0 0 0 0 0 0 0 0 0 0 0 0 0 0 0 0 0 0 0 0 0 0 0 0 0 0 0 0 0
0 0 0 0 0 0 0 0 0 0 0 0 0 0 0 0 0 0 0 0 0 0 0 0 0 0 0 0 0 0 0 0 0 0 0 0 0 0 0 0 0 0 0
0 0 0 0 0 0 0 0 0 0 0 0 0 0 0 0 0 0 0 0 0 0 0 0 0 0 0 0 0 0 0 0 0 0 0 0 0 0 0 0 0 0 4

GFSSE_con_mlcape_024.txt.gz
CAPE
31 225 801 624 494 303 137 75 21 0 0 0 0 0 0 0 0 0 0 0 9 6 7 7 8 0 40 30 7 10 16 6 0 0 0 0 0 0 10 0 0 7 0
131 237 736 802 506 287 157 68 32 11 0 0 0 0 0 0 0 0 0 6 10 10 5 9 25 33 17 8 20 26 11 10 2 0 0 0 0 0 0 0 0 3 29
55 572 947 819 523 329 178 57 28 10 0 0 0 0 0 2 2 1 0 7 16 5 1 0 0 3 11 11 13 17 15 8 1 0 0 0 0 0 0 0 0 0 28
16 399 711 894 633 269 131 69 55 27 0 0 0 0 8 15 13 6 0 0 0 0 0 0 0 0 0 0 0 1 14 7 3 0 0 0 0 7 3 0 0 0 0
1 91 470 634 716 334 219 101 47 54 0 0 0 0 13 17 30 1 2 0 0 0 0 0 0 0 0 0 0 0 5 17 6 0 0 0 0 0 13 0 0 0 0
0 621 811 762 615 525 289 96 61 56 29 0 0 0 10 12 68 15 1 0 0 0 0 0 0 0 0 0 0 0 0 0 0 0 0 0 0 0 0 3 0 0 0
45 380 662 689 744 448 414 164 96 57 15 0 0 0 22 34 81 20 6 0 0 0 0 0 0 0 0 0 0 0 0 0 0 0 0 0 0 0 0 3 7 1 0
39 195 383 603 629 439 544 237 122 60 8 0 0 0 8 15 17 42 5 0 0 0 0 0 0 0 8 3 0 0 0 0 0 0 0 0 0 0 0 0 0 1 13
64 75 125 268 456 457 536 278 173 72 25 0 0 0 0 0 0 0 0 0 0 0 0 0 0 0 0 4 10 5 0 0 0 0 0 0 0 0 0 0 0 0 2
92 85 85 56 126 156 466 353 171 90 42 5 0 0 0 0 0 0 0 0 0 0 0 0 0 0 0 0 0 0 0 0 0 0 0 0 0 0 0 0 0 0 0
88 101 85 80 129 315 385 228 189 107 65 36 1 0 0 0 0 0 0 0 0 0 0 0 0 0 0 0 0 0 0 0 0 0 0 0 0 0 0 0 0 0 0
62 97 148 129 152 304 329 394 160 94 66 50 26 16 0 0 0 0 0 0 0 0 0 0 0 0 0 0 0 0 0 0 0 0 0 0 0 0 0 0 0 0 0
38 50 121 180 174 269 275 252 316 228 165 125 84 24 0 0 0 0 0 0 0 0 0 0 0 0 0 0 0 0 0 0 0 0 0 0 0 0 0 0 0 0 1
8 18 78 116 210 208 325 277 256 213 146 95 46 18 0 0 0 0 0 0 0 0 0 0 0 0 0 0 0 0 0 0 0 0 0 0 1 4 5 6 7 3 6
0 0 0 52 69 215 237 336 276 232 168 134 95 63 7 0 0 0 0 0 0 0 0 0 0 0 3 6 8 15 8 7 8 8 7 11 11 12 13 23 20 22 26
0 0 0 1 15 70 216 268 318 272 215 156 140 114 76 21 1 0 0 1 3 4 4 1 3 4 8 9 5 8 2 5 3 2 0 0 1 2 11 26 35 38 38
0 0 0 0 0 6 69 276 283 305 246 204 153 121 74 39 7 1 3 10 7 3 2 2 0 0 1 0 0 0 0 0 0 0 0 0 0 0 11 31 43 48 58
0 0 0 0 0 0 36 222 293 261 226 176 107 65 27 4 0 0 0 0 0 0 0 0 0 0 0 0 0 0 0 0 0 0 0 0 0 0 8 33 44 41 31
0 0 0 0 0 0 95 140 129 121 73 21 2 0 0 0 0 0 0 0 0 0 0 0 0 0 0 0 0 0 0 0 0 0 0 0 0 0 0 0 0 0 13
0 0 0 0 1 47 64 17 3 0 0 0 0 0 0 0 0 0 0 0 0 0 0 0 0 0 0 0 0 0 0 0 0 0 0 0 0 0 0 0 0 0 0
0 0 0 0 0 3 7 0 0 0 0 0 0 0 0 0 0 0 0 0 0 0 0 0 0 0 0 0 0 0 0 0 0 0 0 0 0 0 0 0 0 0 0
0 0 0 0 0 0 0 0 0 0 0 0 0 0 0 0 0 0 0 0 0 0 0 0 0 0 0 0 0 0 0 0 0 0 0 0 0 0 0 0 0 0 0
0 0 0 0 0 0 0 0 0 0 0 0 0 0 0 0 0 0 0 0 0 0 0 0 0 0 0 0 0 0 0 0 0 0 0 0 0 0 0 0 0 0 0
0 0 0 0 0 0 0 0 0 0 0 0 0 0 0 0 0 0 0 0 0 0 0 0 0 0 0 0 0 0 0 0 0 0 0 0 0 0 0 0 0 0 0
0 0 0 0 0 0 0 0 0 0 0 0 0 0 0 0 0 0 0 0 0 0 0 0 0 0 0 0 0 0 0 0 0 0 0 0 0 0 0 0 0 0 0
0 0 0 0 0 0 0 0 0 0 0 0 0 0 0 0 0 0 0 0 0 0 0 0 0 0 0 0 0 0 0 0 0 0 0 0 0 0 0 0 0 0 0

GFSSE_con_mlcape_030.txt.gz
CAPE
93 921 863 596 385 150 68 12 0 0 0 0 0 0 3 3 19 6 0 2 3 4 8 30 0 65 50 15 16 19 4 0 0 0 0 0 0 0 0 0 0 0 4
225 1043 859 642 572 276 78 7 0 0 0 0 0 0 0 0 0 0 0 5 1 0 0 7 5 21 19 23 14 4 0 0 0 0 0 0 0 0 0 1 0 0 12
546 971 822 619 473 254 133 19 0 0 0 0 0 0 1 2 1 5 5 0 2 0 0 0 0 1 7 10 0 0 0 0 0 0 0 0 0 0 0 0 0 0 0
548 883 858 657 526 286 141 55 13 0 0 0 0 0 3 8 12 3 0 0 0 0 0 0 0 0 0 0 0 0 0 0 0 0 0 0 0 0 0 3 11 0 0
412 804 897 679 464 501 145 72 22 0 0 0 0 0 6 17 18 1 0 0 0 0 0 0 0 0 0 0 0 0 0 0 0 0 0 0 0 0 1 24 21 3 0
234 692 865 671 506 530 193 101 45 11 0 0 0 0 0 13 15 0 0 0 0 0 0 0 0 0 0 0 0 0 0 0 0 0 0 0 0 0 0 1 18 9 1
239 510 806 756 742 639 372 164 79 22 1 0 0 0 1 12 33 8 0 0 0 0 0 0 0 0 0 0 0 0 0 0 0 0 0 0 0 0 0 9 4 24 15
187 507 808 993 913 674 459 177 107 75 18 0 0 0 19 28 49 26 0 0 0 0 0 0 0 0 0 6 11 6 5 0 0 0 0 0 0 0 0 5 9 3 3
397 643 779 1043 881 707 404 229 134 77 19 0 0 0 0 0 34 46 26 0 0 0 0 0 0 0 0 0 0 0 1 0 0 0 0 0 0 0 0 0 3 7 7
477 534 557 740 763 609 493 273 159 81 12 0 0 0 0 0 0 0 1 0 0 0 0 0 0 0 0 0 0 0 0 0 0 0 0 0 0 0 0 0 0 1 2
266 273 343 346 521 466 396 310 207 102 18 0 0 0 0 0 0 0 0 0 0 0 0 0 0 0 0 0 0 0 0 0 0 0 0 0 0 0 4 3 9 0 0
100 136 197 172 151 207 333 317 228 117 28 6 0 0 0 0 0 0 0 0 0 0 0 0 0 0 0 0 0 0 0 0 0 0 0 1 8 23 41 34 30 19 1
0 77 147 134 118 95 200 255 217 125 48 18 7 0 0 0 0 0 0 0 0 0 0 0 0 0 0 0 0 0 0 0 0 1 2 7 18 42 58 55 53 19 34
0 62 100 111 115 113 279 338 242 131 70 40 32 15 7 1 0 0 0 0 0 0 0 0 0 0 0 0 0 0 0 0 0 0 0 0 0 0 1 0 0 10 30
0 11 103 91 118 130 276 364 255 156 115 82 64 63 17 0 0 0 0 0 0 0 0 0 0 0 0 0 0 0 0 0 0 0 0 0 0 0 0 0 0 0 7
0 0 76 110 87 122 303 303 229 183 187 117 31 1 0 7 6 3 0 0 0 1 0 0 0 0 0 0 0 0 0 0 0 0 0 0 0 0 0 0 0 0 0
0 0 2 93 78 99 218 251 188 133 121 47 26 22 23 15 4 0 0 0 0 0 0 0 0 0 0 0 0 0 0 0 0 0 0 0 0 0 0 0 0 0 0
0 0 0 0 1 56 141 178 114 47 7 0 0 0 0 0 0 0 0 0 0 0 0 0 0 0 0 0 0 0 0 0 0 0 0 0 0 0 0 0 0 0 0
0 0 0 0 0 0 5 6 0 0 0 0 0 0 0 0 0 0 0 0 0 0 0 0 0 0 0 0 0 0 0 0 0 0 0 0 0 0 0 0 0 0 0
0 0 0 0 0 0 0 0 0 0 0 0 0 0 0 0 0 0 0 0 0 0 0 0 0 0 0 0 0 0 0 0 0 0 0 0 0 0 0 0 0 0 0
0 0 0 0 0 0 0 0 0 0 0 0 0 0 0 0 0 0 0 0 0 0 0 0 0 0 0 0 0 0 0 0 0 0 0 0 0 0 0 0 0 0 0
0 0 0 0 0 0 0 0 0 0 0 0 0 0 0 0 0 0 0 0 0 0 0 0 0 0 0 0 0 0 0 0 0 0 0 0 0 0 0 0 0 0 0
0 0 0 0 0 0 0 0 0 0 0 0 0 0 0 0 0 0 0 0 0 0 0 0 0 0 0 0 0 0 0 0 0 0 0 0 0 0 0 0 0 0 0
0 0 0 0 0 0 0 0 0 0 0 0 0 0 0 0 0 0 0 0 0 0 0 0 0 0 0 0 0 0 0 0 0 0 0 0 0 0 0 0 0 0 0
0 0 0 0 0 0 0 0 0 0 0 0 0 0 0 0 0 0 0 0 0 0 0 0 0 0 0 0 0 0 0 0 0 0 0 0 0 0 0 0 0 0 0
0 0 0 0 0 0 0 0 0 0 0 0 0 0 0 0 0 0 0 0 0 0 0 0 0 0 0 0 0 0 0 0 0 0 0 0 0 0 0 0 0 0 0

GFSSE_con_mlcape_033.txt.gz
CAPE
76 745 661 525 245 121 85 22 0 0 0 0 0 0 1 16 11 6 0 0 0 0 8 14 0 97 104 52 29 10 0 0 0 0 0 0 0 0 1 0 0 0 0
101 949 660 495 360 244 65 21 0 0 0 0 0 0 1 5 5 0 0 0 0 0 2 15 33 31 64 48 13 5 0 0 0 0 0 0 0 0 0 2 1 0 16
274 981 775 677 567 259 45 23 0 0 0 0 0 0 0 0 0 0 1 1 0 0 0 0 0 1 11 3 2 0 0 0 0 0 0 0 0 0 0 0 0 0 0
623 939 789 791 707 281 86 46 12 0 0 0 0 1 6 6 11 0 0 0 0 0 0 0 0 0 0 0 0 0 0 0 0 0 0 0 0 0 0 0 12 15 4
723 841 747 754 690 416 196 73 28 1 0 0 0 0 10 9 14 2 0 0 0 0 0 0 0 0 0 0 0 0 0 1 5 0 0 0 0 0 0 7 38 26 14
521 666 803 770 732 526 300 98 53 12 0 0 0 0 9 20 30 0 0 0 0 0 0 0 0 0 0 0 0 0 0 0 0 0 0 0 0 0 0 4 6 16 15
361 595 862 891 776 764 435 168 93 33 0 0 0 0 2 15 41 1 4 0 0 0 0 0 0 0 0 0 1 0 0 0 0 0 0 0 0 0 0 4 15 12 30
265 474 881 1005 877 842 437 306 153 66 8 0 0 0 2 18 51 10 1 0 0 0 0 0 0 0 0 2 4 9 6 4 0 0 0 0 0 0 0 0 3 14 9
335 446 709 990 936 850 599 436 213 134 57 0 0 6 5 2 38 37 3 0 0 0 0 0 0 0 0 0 0 0 0 0 0 0 0 0 0 0 0 0 1 3 6
413 600 703 890 1030 888 625 428 238 164 65 0 0 8 0 0 0 28 28 2 0 0 0 0 0 0 0 0 0 0 0 0 0 0 0 0 0 1 16 15 18 13 6
486 639 804 797 944 815 597 443 259 155 51 6 0 0 0 0 0 0 0 0 0 0 0 0 0 0 0 0 0 0 0 0 0 0 0 0 0 11 44 72 56 38 33
397 510 698 650 670 658 675 481 302 195 62 12 0 0 0 0 0 0 0 0 0 0 0 0 0 0 0 0 0 0 0 0 0 0 0 3 15 31 57 80 54 45 47
111 303 470 466 443 479 540 360 280 207 85 21 1 0 0 0 0 0 0 0 0 0 0 0 0 0 0 0 0 0 0 0 0 0 0 0 0 0 0 0 0 0 0
3 82 260 326 307 302 342 270 268 203 99 35 11 0 0 0 0 0 0 0 0 0 0 0 0 0 0 0 0 0 0 0 0 0 0 0 0 0 0 0 0 0 0
0 0 101 219 216 190 227 265 278 247 147 93 47 27 3 0 0 0 0 0 0 0 0 0 0 0 0 0 0 0 0 0 0 0 0 0 0 0 0 0 0 0 0
0 0 0 131 188 144 232 325 378 278 186 126 79 42 8 0 0 0 0 0 0 0 0 0 0 0 0 0 0 0 0 0 0 0 0 0 0 0 0 0 0 0 0
0 0 0 17 109 166 254 323 375 315 174 102 19 0 0 1 0 0 0 0 0 0 0 0 0 0 0 0 0 0 0 0 0 0 0 0 0 0 0 0 0 0 0
0 0 0 3 77 137 209 216 248 85 22 0 0 0 0 0 0 0 0 0 0 0 0 0 0 0 0 0 0 0 0 0 0 0 0 0 0 0 0 0 0 0 0
0 0 0 0 48 57 71 39 2 0 0 0 0 0 0 0 0 0 0 0 0 0 0 0 0 0 0 0 0 0 0 0 0 0 0 0 0 0 0 0 0 0 0
0 0 0 0 0 0 0 0 0 0 0 0 0 0 0 0 0 0 0 0 0 0 0 0 0 0 0 0 0 0 0 0 0 0 0 0 0 0 0 0 0 0 0
0 0 0 0 0 0 0 0 0 0 0 0 0 0 0 0 0 0 0 0 0 0 0 0 0 0 0 0 0 0 0 0 0 0 0 0 0 0 0 0 0 0 0
0 0 0 0 0 0 0 0 0 0 0 0 0 0 0 0 0 0 0 0 0 0 0 0 0 0 0 0 0 0 0 0 0 0 0 0 0 0 0 0 0 0 0
0 0 0 0 0 0 0 0 0 0 0 0 0 0 0 0 0 0 0 0 0 0 0 0 0 0 0 0 0 0 0 0 0 0 0 0 0 0 0 0 0 0 0
0 0 0 0 0 0 0 0 0 0 0 0 0 0 0 0 0 0 0 0 0 0 0 0 0 0 0 0 0 0 0 0 0 0 0 0 0 0 0 0 0 0 0
0 0 0 0 0 0 0 0 0 0 0 0 0 0 0 0 0 0 0 0 0 0 0 0 0 0 0 0 0 0 0 0 0 0 0 0 0 0 0 0 0 0 0
0 0 0 0 0 0 0 0 0 0 0 0 0 0 0 0 0 0 0 0 0 0 0 0 0 0 0 0 0 0 0 0 0 0 0 0 0 0 0 0 0 0 0

GFSSE_con_mlcape_036.txt.gz
CAPE
64 419 1003 519 223 105 64 20 0 0 0 0 0 0 4 8 3 0 0 0 0 0 9 1 0 64 74 77 56 10 0 0 0 0 0 0 0 0 0 7 0 0 4
77 577 951 493 375 161 58 36 0 0 0 0 0 3 8 45 6 1 0 0 0 0 4 22 44 43 78 46 31 8 0 0 0 0 0 0 0 0 0 0 4 0 3
135 817 695 459 312 255 87 40 0 0 0 0 0 0 4 6 0 0 0 2 1 0 0 7 1 9 18 10 4 0 0 0 0 0 0 0 0 0 0 0 0 0 0
353 1001 618 738 518 336 92 42 13 0 0 0 0 0 3 3 0 0 0 0 0 0 0 0 0 0 0 0 0 0 0 0 0 0 0 0 0 0 0 2 4 22 22
616 955 699 842 643 392 125 79 36 4 0 0 0 4 7 5 9 0 0 0 0 0 0 0 0 0 0 0 0 0 0 0 0 0 0 0 0 0 0 0 10 57 24
693 890 832 896 793 658 181 126 75 32 0 0 0 0 11 19 20 4 0 0 0 0 0 0 0 0 0 0 0 0 0 0 0 0 0 0 0 0 0 0 1 3 10
664 833 912 948 914 760 420 195 129 72 17 0 0 0 7 17 50 4 0 0 0 0 0 0 0 0 0 0 2 3 2 0 0 0 0 0 0 0 0 0 2 9 12
518 705 915 1012 919 836 652 361 190 127 46 0 0 0 1 15 32 24 10 0 0 0 0 0 0 0 0 0 4 3 5 2 0 0 0 0 0 0 0 1 0 1 8
504 553 813 1058 966 905 680 488 301 172 82 2 0 0 20 17 27 19 12 0 0 0 0 0 0 0 0 0 0 0 0 0 0 0 0 0 0 0 56 56 28 8 4
452 562 683 1005 986 923 742 567 386 233 140 5 0 4 0 0 28 59 16 0 0 0 0 0 0 0 0 0 0 0 0 0 0 0 0 0 0 21 113 190 209 177 106
478 607 725 944 965 958 760 629 461 294 177 29 0 10 2 0 0 0 0 0 0 0 0 4 0 0 0 0 0 0 0 0 0 0 0 0 5 74 163 106 113 142 167
306 518 818 874 940 964 875 627 451 291 157 44 0 0 0 0 0 0 0 0 0 0 0 0 0 0 0 0 0 0 0 0 0 0 0 0 0 1 10 9 1 1 9
260 486 690 779 855 907 902 584 438 286 156 47 1 0 0 0 0 0 0 0 0 0 0 0 0 0 0 0 0 0 0 0 0 0 0 0 0 0 0 0 0 0 0
16 288 574 729 738 741 722 561 413 299 190 66 9 0 0 0 0 0 0 0 0 0 0 0 0 0 0 0 0 0 0 0 0 0 0 0 0 0 0 0 0 0 0
0 0 118 448 598 546 572 536 372 316 238 125 48 2 0 0 0 0 0 0 0 0 0 0 0 0 0 0 0 0 0 0 0 0 0 0 0 0 0 0 0 0 0
0 0 0 38 366 419 436 416 320 314 282 178 112 49 6 2 0 0 0 0 0 0 0 0 0 0 0 0 0 0 0 0 0 0 0 0 0 0 0 0 0 0 0
0 0 0 0 42 270 321 299 301 325 283 219 147 60 1 0 0 0 0 0 0 0 0 0 0 0 0 0 0 0 0 0 0 0 0 0 0 0 0 0 0 0 0
0 0 0 0 0 125 234 215 236 359 195 52 2 0 0 0 0 0 0 0 0 0 0 0 0 0 0 0 0 0 0 0 0 0 0 0 0 0 0 0 0 0 0
0 0 0 0 0 42 119 114 59 1 0 0 0 0 0 0 0 0 0 0 0 0 0 0 0 0 0 0 0 0 0 0 0 0 0 0 0 0 0 0 0 0 0
0 0 0 0 0 1 0 0 0 0 0 0 0 0 0 0 0 0 0 0 0 0 0 0 0 0 0 0 0 0 0 0 0 0 0 0 0 0 0 0 0 0 0
0 0 0 0 0 0 0 0 0 0 0 0 0 0 0 0 0 0 0 0 0 0 0 0 0 0 0 0 0 0 0 0 0 0 0 0 0 0 0 0 0 0 0
0 0 0 0 0 0 0 0 0 0 0 0 0 0 0 0 0 0 0 0 0 0 0 0 0 0 0 0 0 0 0 0 0 0 0 0 0 0 0 0 0 0 0
0 0 0 0 0 0 0 0 0 0 0 0 0 0 0 0 0 0 0 0 0 0 0 0 0 0 0 0 0 0 0 0 0 0 0 0 0 0 0 0 0 0 0
0 0 0 0 0 0 0 0 0 0 0 0 0 0 0 0 0 0 0 0 0 0 0 0 0 0 0 0 0 0 0 0 0 0 0 0 0 0 0 0 0 0 0
0 0 0 0 0 0 0 0 0 0 0 0 0 0 0 0 0 0 0 0 0 0 0 0 0 0 0 0 0 0 0 0 0 0 0 0 0 0 0 0 0 0 0
0 0 0 0 0 0 0 0 0 0 0 0 0 0 0 0 0 0 0 0 0 0 0 0 0 0 0 0 0 0 0 0 0 0 0 0 0 0 0 0 0 0 0

GFSSE_con_mlcape_039.txt.gz
CAPE
57 312 1046 758 307 104 64 36 8 1 1 0 12 46 37 32 2 0 0 0 0 0 8 0 0 0 67 61 46 16 0 0 0 0 0 0 0 0 0 3 0 0 0
106 465 1159 553 213 122 79 51 13 0 0 0 6 14 32 50 18 3 0 0 0 0 13 47 55 79 51 64 18 16 2 0 0 0 0 0 0 0 0 0 0 0 0
188 709 1042 600 291 205 117 59 4 0 0 0 0 2 4 18 2 0 0 2 2 0 1 4 7 28 12 12 14 11 0 0 0 0 0 0 0 0 0 0 0 0 0
491 937 903 646 395 246 116 47 7 0 0 0 0 0 0 0 0 0 0 0 0 0 0 0 0 0 1 3 0 0 0 0 0 0 0 0 0 0 0 0 0 2 8
765 995 893 794 538 307 136 75 28 1 0 0 0 1 5 1 0 0 0 0 0 0 0 0 0 0 0 0 0 0 0 0 0 0 0 0 0 0 0 0 0 8 81
829 1076 1081 939 750 382 170 126 62 25 0 0 0 3 17 14 14 0 0 0 0 0 0 0 0 0 0 0 0 0 0 0 0 0 0 0 0 0 0 0 0 0 0
686 1096 1123 1080 950 560 325 185 120 83 31 0 0 0 10 14 28 5 1 0 0 0 0 0 0 0 0 0 6 8 7 3 2 0 0 0 0 0 6 2 0 5 11
642 944 1100 1107 1018 811 504 313 193 131 62 2 0 0 1 16 52 19 15 0 0 0 0 0 0 2 2 0 1 2 4 0 0 0 0 0 0 0 39 33 33 0 0
813 901 1069 1150 1058 922 700 457 305 194 103 23 0 0 0 19 16 61 19 0 0 0 0 0 0 0 0 0 0 0 0 0 0 0 0 0 0 0 76 113 168 154 87
862 927 977 1200 1122 1106 961 597 386 259 133 25 0 0 8 0 33 59 17 0 0 0 0 1 0 0 0 0 0 0 0 0 0 0 0 0 0 35 166 168 170 179 218
568 830 927 1155 1195 1121 995 817 505 332 194 45 0 12 6 0 0 0 0 0 0 0 0 1 3 7 0 0 0 0 0 0 0 0 0 0 0 9 34 24 3 9 22
408 597 847 1048 1199 1139 1008 918 732 480 347 106 1 11 4 0 0 0 0 0 0 0 0 0 0 0 0 0 0 0 0 0 0 0 0 0 0 0 0 0 0 0 0
288 525 795 931 1065 1135 1053 880 709 491 281 108 21 0 0 0 0 0 0 0 0 0 0 0 0 0 0 0 0 0 0 0 0 0 0 0 0 0 0 0 0 0 0
114 364 674 864 933 965 1002 864 699 491 306 127 46 0 0 0 0 0 0 0 0 0 0 0 0 0 0 0 0 0 0 0 0 0 0 0 0 0 0 0 0 0 0
0 21 440 829 813 902 918 844 678 581 346 197 70 18 0 0 0 0 0 0 0 0 0 0 0 0 0 0 0 0 0 0 0 0 0 0 0 0 0 0 0 0 0
0 0 0 153 752 833 818 756 664 606 450 281 112 55 7 2 0 0 0 0 0 0 0 0 0 0 0 0 0 0 0 0 0 0 0 0 0 0 0 0 0 0 0
0 0 0 0 103 611 786 660 613 502 417 308 179 113 47 0 0 0 0 0 0 0 0 0 0 0 0 0 0 0 0 0 0 0 0 0 0 0 0 0 0 0 0
0 0 0 0 0 110 629 618 493 427 383 314 198 73 7 0 0 0 0 0 0 0 0 0 0 0 0 0 0 0 0 0 0 0 0 0 0 0 0 0 0 0 0
0 0 0 0 0 0 309 430 367 272 156 37 0 0 0 0 0 0 0 0 0 0 0 0 0 0 0 0 0 0 0 0 0 0 0 0 0 0 0 0 0 0 0
0 0 0 0 0 14 91 16 0 0 0 0 0 0 0 0 0 0 0 0 0 0 0 0 0 0 0 0 0 0 0 0 0 0 0 0 0 0 0 0 0 0 0
0 0 0 0 0 0 0 0 0 0 0 0 0 0 0 0 0 0 0 0 0 0 0 0 0 0 0 0 0 0 0 0 0 0 0 0 0 0 0 0 0 0 0
0 0 0 0 0 0 0 0 0 0 0 0 0 0 0 0 0 0 0 0 0 0 0 0 0 0 0 0 0 0 0 0 0 0 0 0 0 0 0 0 0 0 0
0 0 0 0 0 0 0 0 0 0 0 0 0 0 0 0 0 0 0 0 0 0 0 0 0 0 0 0 0 0 0 0 0 0 0 0 0 0 0 0 0 0 0
0 0 0 0 0 0 0 0 0 0 0 0 0 0 0 0 0 0 0 0 0 0 0 0 0 0 0 0 0 0 0 0 0 0 0 0 0 0 0 0 0 0 0
0 0 0 0 0 0 0 0 0 0 0 0 0 0 0 0 0 0 0 0 0 0 0 0 0 0 0 0 0 0 0 0 0 0 0 0 0 0 0 0 0 0 0
0 0 0 0 0 0 0 0 0 0 0 0 0 0 0 0 0 0 0 0 0 0 0 0 0 0 0 0 0 0 0 0 0 0 0 0 0 0 0 0 0 0 0

GFSSE_con_mlcape_042.txt.gz
CAPE
106 731 1031 889 499 281 28 4 0 1 23 52 30 19 20 2 0 0 0 0 0 0 7 0 0 0 73 65 39 19 0 0 0 0 0 0 0 0 0 0 0 0 0
290 710 1132 796 356 152 82 41 29 20 0 1 12 34 45 27 0 3 0 0 0 0 24 30 53 67 47 44 19 21 6 0 0 0 0 0 0 0 0 1 0 0 0
452 723 974 493 242 166 86 49 30 1 0 0 8 3 48 26 1 0 0 0 0 0 3 0 4 11 18 14 19 19 6 0 0 0 0 0 0 0 0 0 0 0 0
553 943 875 602 369 232 123 52 10 0 0 0 0 2 0 0 0 0 0 0 0 0 0 0 0 1 0 2 1 0 0 0 0 0 0 0 0 0 0 0 2 1 6
701 881 939 618 390 279 124 52 14 0 0 0 0 0 0 0 0 0 0 0 0 0 0 0 0 0 0 0 0 0 0 0 0 0 0 0 0 0 0 0 0 2 47
762 783 1140 778 513 307 133 86 40 8 0 0 0 0 0 0 0 0 0 0 0 0 0 0 0 0 0 0 0 0 0 0 0 10 8 3 0 0 0 0 0 0 0
846 724 1062 963 697 421 237 143 85 52 6 0 0 0 4 2 2 0 0 0 0 0 0 0 0 0 0 0 9 10 15 0 5 15 8 4 3 0 4 12 2 0 2
969 821 908 1045 929 577 452 274 131 110 51 0 0 0 1 7 24 5 6 0 0 0 0 0 0 0 0 0 0 0 0 0 1 4 2 3 0 0 23 41 55 75 40
1024 916 833 993 996 733 647 450 262 175 97 7 0 0 4 6 1 14 16 0 0 0 0 0 1 0 0 0 0 0 0 0 0 9 0 3 0 0 101 162 166 209 223
1036 878 843 920 919 902 834 570 383 255 119 24 0 0 3 0 27 45 4 0 0 0 0 2 1 0 0 0 0 0 0 0 15 4 5 0 0 26 88 91 39 35 74
996 928 811 1026 945 993 1013 846 497 339 147 24 0 11 0 2 35 36 3 0 0 0 0 0 0 0 0 0 0 0 0 12 9 8 8 0 0 0 0 0 0 0 0
893 1082 1001 1076 1139 1037 993 1089 831 564 321 119 0 0 1 0 0 0 0 0 0 0 0 0 0 0 0 11 16 0 1 0 0 0 0 0 0 0 0 0 0 0 0
771 995 1127 1164 1350 1285 1162 1050 1017 797 459 281 35 0 0 0 0 0 0 0 0 0 2 0 0 6 0 0 0 0 0 0 0 0 0 0 0 0 0 0 0 0 0
513 812 1089 1196 1247 1283 1210 1138 994 819 560 375 111 1 0 0 0 0 0 0 0 0 3 9 0 0 0 0 0 0 0 0 0 0 0 0 0 0 0 0 0 0 0
273 518 876 1191 1246 1208 1268 1065 1098 924 605 500 181 36 32 26 18 0 0 1 0 1 0 0 0 0 0 0 0 0 0 0 0 0 0 0 0 0 0 0 0 0 0
92 93 283 960 1220 1234 1255 1144 1027 903 676 626 253 75 73 52 16 3 0 0 0 0 0 0 0 0 0 0 0 0 0 0 0 0 0 0 0 0 0 0 0 0 0
0 0 0 58 766 1135 1207 1113 1272 883 785 709 351 177 54 64 19 0 0 0 0 0 0 0 0 0 0 0 0 0 0 0 0 0 0 0 0 0 0 0 0 0 0
0 0 0 0 0 630 1069 1295 1193 973 873 847 466 245 158 21 0 0 0 0 0 0 0 0 0 0 0 0 0 0 0 0 0 0 0 0 0 0 0 0 0 0 0
0 0 0 0 0 100 780 1084 1152 1009 937 935 610 286 25 0 0 0 0 0 0 0 0 0 0 0 0 0 0 0 0 0 0 0 0 0 0 0 0 0 0 0 0
0 0 0 0 0 128 519 947 1090 1021 1073 754 219 0 0 0 0 0 0 0 0 0 0 0 0 0 0 0 0 0 0 0 0 0 0 0 0 0 0 0 0 0 0
0 0 0 0 10 214 405 653 890 465 0 0 0 0 0 0 0 0 0 0 0 0 0 0 0 0 0 0 0 0 0 0 0 0 0 0 0 0 0 0 0 0 0
0 0 0 0 49 310 373 246 210 4 0 0 0 0 0 0 0 0 0 0 0 0 0 0 0 0 0 0 0 0 0 0 0 0 0 0 0 0 0 0 0 0 0
0 0 0 0 111 269 166 138 0 0 0 0 0 0 0 0 0 0 0 0 0 0 0 0 0 0 0 0 0 0 0 0 0 0 0 0 0 0 0 0 0 0 0
0 0 0 0 35 91 0 0 0 0 0 0 0 0 0 0 0 0 0 0 0 0 0 0 0 0 0 0 0 0 0 0 0 0 0 0 0 0 0 0 0 0 0
0 0 0 0 0 0 0 0 0 0 0 0 0 0 0 0 0 0 0 0 0 0 0 0 0 0 0 0 0 0 0 0 0 0 0 0 0 0 0 0 0 0 0
0 0 0 0 0 0 0 0 0 0 0 0 0 0 0 0 0 0 0 0 0 0 0 0 0 0 0 0 0 0 0 0 0 0 0 0 0 0 0 0 0 0 0

GFSSE_con_mlcape_045.txt.gz
CAPE
238 843 1214 845 608 343 127 30 69 66 7 2 1 2 0 0 0 0 0 0 0 1 0 0 0 0 67 46 22 20 0 0 0 0 0 0 0 0 0 0 0 0 0
526 753 1178 980 663 246 102 10 0 1 3 19 10 23 10 0 0 0 0 0 0 0 22 26 49 0 52 40 24 31 0 0 0 0 0 0 0 0 0 4 0 0 0
775 810 929 636 328 229 164 71 39 0 0 0 3 16 44 14 0 0 0 0 0 0 0 3 12 53 44 23 12 19 1 0 0 0 0 0 0 0 0 0 0 0 0
572 823 917 521 228 203 137 98 38 0 0 1 2 21 16 0 0 0 0 0 0 0 0 0 0 3 1 0 0 0 0 0 0 0 0 0 0 0 0 0 0 2 10
637 845 884 548 295 233 116 58 17 0 0 0 0 0 0 0 0 0 0 0 0 0 0 0 0 0 0 0 0 0 0 0 0 0 0 0 0 0 0 0 0 1 3
642 885 818 545 389 212 117 58 11 0 0 0 0 0 0 0 0 0 0 0 0 0 0 0 0 0 0 0 0 0 0 0 0 14 6 4 1 0 1 0 0 0 0
662 1178 1042 661 493 288 153 105 41 0 0 0 0 5 3 4 0 0 0 0 0 0 0 0 0 0 0 0 0 1 2 0 0 11 11 11 10 0 2 2 12 30 14
685 905 1045 894 645 407 322 165 111 54 0 0 0 0 12 12 10 0 0 0 0 0 0 0 0 0 0 0 0 0 0 0 0 8 9 12 0 0 36 44 82 173 212
738 706 973 1048 815 548 495 281 193 128 51 0 0 0 3 1 12 24 7 0 0 0 0 0 0 0 0 0 0 0 0 0 0 13 10 23 0 30 78 80 69 39 81
861 679 844 941 954 771 729 436 321 225 106 0 0 11 2 0 14 52 3 0 0 0 0 0 0 0 0 0 0 0 0 0 0 7 12 0 0 0 1 0 0 0 4
873 745 741 858 902 835 885 704 455 331 156 31 0 6 0 8 71 17 8 0 0 0 0 0 0 0 0 0 0 0 0 4 4 7 2 0 0 0 0 0 0 0 0
936 874 787 922 943 976 1086 970 709 541 246 65 0 0 0 1 19 27 0 0 0 0 0 0 0 0 0 17 3 0 0 0 0 0 0 0 0 0 0 0 0 0 1
837 1027 956 1053 999 860 910 1149 899 773 477 222 7 0 0 0 0 0 0 0 0 0 1 0 2 1 0 0 0 0 0 0 0 0 0 0 0 0 0 0 0 0 0
569 870 1060 1077 1163 1100 1129 860 953 984 615 376 145 0 0 0 0 0 0 2 0 2 17 11 0 0 0 0 0 0 0 0 0 0 0 0 0 0 0 0 0 0 0
270 580 892 1037 1189 1342 1281 1130 950 801 646 438 308 4 0 7 12 9 0 0 8 5 0 0 0 0 0 0 0 0 0 0 0 0 0 0 0 0 0 0 0 0 0
170 289 565 938 1112 1303 1408 1246 1150 921 716 543 374 108 51 73 79 34 35 0 0 0 0 0 0 0 0 0 0 0 0 0 0 0 0 0 0 0 0 0 0 0 0
0 104 131 494 878 1155 1294 1285 1215 1044 848 641 478 194 146 158 106 46 0 0 0 0 0 0 0 0 0 0 0 0 0 0 0 0 0 0 0 0 0 0 0 0 0
0 0 0 0 305 845 1092 1351 1166 1222 978 808 657 386 234 181 127 0 0 0 0 0 0 0 0 0 0 0 0 0 0 0 0 0 0 0 0 0 0 0 0 0 0
0 0 0 0 0 56 747 1135 1255 1253 1001 963 825 566 347 225 8 0 0 0 0 0 0 0 0 0 0 0 0 0 0 0 0 0 0 0 0 0 0 0 0 0 0
0 0 0 0 0 0 180 961 1136 1146 1105 1079 948 622 541 61 0 0 0 0 0 0 0 0 0 0 0 0 0 0 0 0 0 0 0 0 0 0 0 0 0 0 0
0 0 0 0 0 0 190 668 993 1134 1067 945 918 593 172 0 0 0 0 0 0 0 0 0 0 0 0 0 0 0 0 0 0 0 0 0 0 0 0 0 0 0 0
0 0 0 0 0 17 285 623 895 941 227 35 0 0 0 0 0 0 0 0 0 0 0 0 0 0 0 0 0 0 0 0 0 0 0 0 0 0 0 0 0 0 0
0 0 0 0 0 83 299 624 738 0 0 0 0 0 0 0 0 0 0 0 0 0 0 0 0 0 0 0 0 0 0 0 0 0 0 0 0 0 0 0 0 0 0
0 0 0 0 0 133 419 458 251 0 0 0 0 0 0 0 0 0 0 0 0 0 0 0 0 0 0 0 0 0 0 0 0 0 0 0 0 0 0 0 0 0 0
0 0 0 0 0 161 298 352 9 0 0 0 0 0 0 0 0 0 0 0 0 0 0 0 0 0 0 0 0 0 0 0 0 0 0 0 0 0 0 0 0 0 0
0 0 0 0 0 88 190 0 0 0 0 0 0 0 0 0 0 0 0 0 0 0 0 0 0 0 0 0 0 0 0 0 0 0 0 0 0 0 0 0 0 0 0

GFSSE_con_mlcape_048.txt.gz
CAPE
736 785 817 820 575 386 187 187 219 88 36 34 6 6 2 0 0 0 0 0 0 0 9 15 0 0 64 58 8 21 0 0 0 0 0 0 0 0 0 0 0 0 0
785 982 961 884 649 285 164 152 147 94 53 30 9 6 3 0 0 0 0 0 0 12 13 34 2 0 39 43 27 16 0 0 0 0 0 0 0 0 0 0 0 0 0
896 1207 985 858 397 225 144 97 73 21 14 36 39 43 13 0 0 0 0 0 0 0 4 32 33 42 36 23 21 14 0 0 0 0 0 0 0 0 0 0 0 0 0
899 998 992 650 340 222 193 134 45 0 0 4 4 26 20 0 0 0 0 0 0 0 0 10 1 2 0 0 0 0 0 0 0 0 0 0 0 0 0 0 0 0 1
933 936 757 516 317 226 205 95 12 0 0 1 1 22 0 0 0 0 0 0 0 0 0 0 0 0 0 0 0 0 0 0 0 0 0 0 0 0 0 0 0 0 0
842 941 610 434 306 147 80 25 0 0 0 0 0 0 0 0 0 0 0 0 0 0 0 0 0 0 0 0 0 0 0 0 0 1 8 2 0 0 0 1 4 0 0
1024 911 564 502 402 123 66 34 5 0 0 0 0 0 0 0 0 0 0 0 0 0 0 0 0 0 0 0 0 0 0 0 0 0 4 3 1 0 13 15 9 92 111
1236 909 651 567 375 141 119 75 46 1 0 0 1 4 7 13 8 0 0 0 0 0 0 0 0 0 0 0 0 0 0 0 0 6 10 8 6 21 81 16 82 55 76
1188 1106 741 652 458 280 225 129 102 50 0 0 0 0 1 2 23 27 0 0 0 0 0 0 0 0 0 0 0 0 0 0 0 9 3 0 0 2 7 6 0 6 27
649 977 820 802 625 469 413 222 194 97 23 0 0 0 0 0 18 61 4 0 0 0 0 0 0 0 0 0 0 0 0 0 1 4 0 0 0 0 0 0 0 0 0
704 738 885 993 702 587 530 375 318 218 68 0 0 0 0 0 30 44 10 0 0 0 0 0 0 0 0 0 0 0 0 2 1 0 0 0 0 0 0 0 0 2 9
814 625 762 1007 797 677 762 555 402 315 116 7 0 0 0 0 71 18 5 0 0 0 0 0 0 0 0 2 1 0 0 0 0 0 0 0 0 0 0 0 0 0 0
827 746 629 844 931 785 995 773 620 470 226 46 0 0 0 0 0 0 0 0 0 0 0 0 0 0 0 0 0 0 0 0 0 0 0 0 0 0 0 1 0 0 0
768 917 773 888 903 1038 965 936 868 698 473 147 2 0 0 0 0 0 0 0 0 0 1 0 0 0 0 0 0 0 0 0 0 0 0 0 0 0 0 0 0 0 0
487 801 1011 942 1042 963 974 1065 934 885 684 309 230 0 0 0 0 0 0 0 0 0 0 0 0 0 0 0 0 0 0 0 0 0 0 0 0 0 0 0 0 0 0
49 623 942 964 1078 1145 1195 1065 965 930 715 523 338 18 0 0 0 0 0 0 0 0 0 0 0 0 0 0 0 0 0 0 0 0 0 0 0 0 0 0 0 0 0
0 77 484 904 950 1298 1260 1257 1161 1010 685 615 414 137 0 22 46 31 0 0 0 0 0 0 0 0 0 0 0 0 0 0 0 0 0 0 0 0 0 0 0 0 0
0 0 52 569 917 1103 1330 1328 1073 1112 784 706 515 334 97 236 110 0 0 0 0 0 0 0 0 0 0 0 0 0 0 0 0 0 0 0 0 0 0 0 0 0 0
0 0 0 3 392 804 1146 1344 1173 1092 1080 796 633 461 254 283 61 0 0 0 0 0 0 0 0 0 0 0 0 0 0 0 0 0 0 0 0 0 0 0 0 0 0
0 0 0 0 0 19 804 1316 1305 1052 1033 855 754 602 408 271 0 0 0 0 0 0 0 0 0 0 0 0 0 0 0 0 0 0 0 0 0 0 0 0 0 0 0
0 0 0 0 0 0 0 789 1259 1115 1041 1012 883 703 452 192 0 0 0 0 0 0 0 0 0 0 0 0 0 0 0 0 0 0 0 0 0 0 0 0 0 0 0
0 0 0 0 0 0 0 87 934 734 426 552 758 586 238 0 0 0 0 0 0 0 0 0 0 0 0 0 0 0 0 0 0 0 0 0 0 0 0 0 0 0 0
0 0 0 0 0 0 0 167 63 0 0 40 28 0 0 0 0 0 0 0 0 0 0 0 0 0 0 0 0 0 0 0 0 0 0 0 0 0 0 0 0 0 0
0 0 0 0 0 0 1 243 319 418 215 2 0 0 0 0 0 0 0 0 0 0 0 0 0 0 0 0 0 0 0 0 0 0 0 0 0 0 0 0 0 0 0
0 0 0 0 0 0 2 347 182 37 0 0 0 0 0 0 0 0 0 0 0 0 0 0 0 0 0 0 0 0 0 0 0 0 0 0 0 0 0 0 0 0 0
0 0 0 0 0 0 101 415 30 0 0 0 0 0 0 0 0 0 0 0 0 0 0 0 0 0 0 0 0 0 0 0 0 0 0 0 0 0 0 0 0 0 0

GFSSE_con_mlcape_051.txt.gz
CAPE
587 850 915 872 867 768 768 576 321 186 103 33 4 1 0 0 0 0 0 0 0 8 6 1 0 24 44 15 11 0 0 0 0 0 0 0 0 0 0 0 0 0 0
675 916 850 816 690 482 508 419 252 122 73 16 7 2 4 0 0 0 0 1 8 9 21 8 0 0 47 33 30 0 0 0 0 0 0 0 0 0 0 0 0 0 0
634 946 1004 854 466 287 312 344 226 179 137 108 52 14 7 0 0 0 0 0 4 8 22 3 10 46 51 38 30 0 0 0 0 0 0 0 0 0 0 0 0 0 0
701 1002 971 636 339 221 269 215 112 82 84 77 94 21 8 0 0 0 0 0 0 4 24 11 2 7 7 9 2 0 0 0 0 0 0 0 0 0 0 0 0 0 4
776 1041 779 530 354 303 285 132 56 32 37 11 58 11 0 0 0 0 0 0 0 0 3 1 0 0 0 0 0 0 0 0 0 0 0 0 0 0 3 0 0 0 0
792 890 702 522 392 295 216 71 7 0 0 0 6 0 0 0 0 0 0 0 0 0 0 0 0 0 0 0 0 0 0 0 0 1 2 7 0 2 1 7 4 0 0
811 654 588 465 322 170 68 30 0 0 0 0 0 0 0 0 0 0 0 0 0 0 0 0 0 0 0 0 0 0 0 0 0 0 6 1 7 22 35 12 38 63 84
874 526 534 409 275 68 57 31 8 0 0 0 0 1 1 0 0 0 0 0 0 0 0 0 0 0 0 0 0 0 0 0 0 3 11 10 17 39 42 25 9 12 33
803 571 545 471 239 100 68 38 15 0 0 0 3 5 10 16 0 0 0 0 0 0 0 0 0 0 0 0 0 0 0 0 0 5 1 2 14 19 3 0 0 1 0
803 639 491 436 285 217 130 84 28 1 9 10 7 15 0 0 22 0 0 0 0 0 0 0 0 0 0 0 0 0 0 0 1 0 0 2 7 3 0 0 0 12 24
974 745 511 430 319 287 221 194 129 22 0 5 0 0 0 0 50 4 0 0 0 0 0 0 0 0 0 0 0 0 0 0 0 0 0 0 0 0 0 0 8 2 3
895 786 618 480 371 351 374 293 222 114 10 0 3 0 0 0 32 18 0 0 0 0 0 0 0 0 0 0 0 0 0 0 0 0 0 0 0 0 0 5 0 0 0
543 804 898 697 517 456 527 339 312 212 55 0 0 0 0 0 73 0 0 0 0 0 0 0 0 0 0 0 0 0 0 0 0 0 0 0 0 0 11 2 0 0 0
654 460 1040 933 694 638 670 492 327 290 156 22 0 0 0 0 31 0 0 0 0 0 0 0 0 0 0 0 0 0 0 0 0 0 0 0 0 0 2 0 0 0 0
661 662 424 929 830 726 874 726 625 536 342 193 7 0 0 0 0 0 0 0 0 0 0 0 0 0 0 0 0 0 0 0 0 0 0 0 0 0 0 0 0 0 0
362 706 633 633 893 925 962 883 763 699 579 351 117 0 0 0 0 0 0 0 0 0 0 0 0 0 0 0 0 0 0 0 0 0 0 0 0 0 0 0 0 0 0
0 396 801 719 656 1022 979 927 808 852 667 434 292 19 0 0 0 0 0 0 0 0 0 0 0 0 0 0 0 0 0 0 0 0 0 0 0 0 0 0 0 0 0
0 0 750 947 823 977 1019 970 910 896 759 529 326 108 10 1 0 0 0 0 0 0 0 0 0 0 0 0 0 0 0 0 0 0 0 0 0 0 0 0 0 0 0
0 0 0 787 839 1092 1198 1244 1145 1161 848 583 434 193 51 58 11 0 0 0 0 0 0 0 0 0 0 0 0 0 0 0 0 0 0 0 0 0 0 0 0 0 0
0 0 0 29 747 978 1275 1355 1235 851 1043 705 572 296 165 125 9 0 0 0 0 0 0 0 0 0 0 0 0 0 0 0 0 0 0 0 0 0 0 0 0 0 0
0 0 0 0 54 450 1109 1269 1290 903 839 881 667 429 233 67 13 0 0 0 0 0 0 0 0 0 0 0 0 0 0 0 0 0 0 0 0 0 0 0 0 0 0
0 0 0 0 0 151 711 1185 1211 1091 641 776 695 473 219 9 0 0 0 0 0 0 0 0 0 0 0 0 0 0 0 0 0 0 0 0 0 0 0 0 0 0 0
0 0 0 0 0 0 0 277 165 82 33 250 202 91 0 0 0 0 0 0 0 0 0 0 0 0 0 0 0 0 0 0 0 0 0 0 0 0 0 0 0 0 0
0 0 0 0 0 0 0 0 238 577 558 211 27 0 0 0 0 0 0 0 0 0 0 0 0 0 0 0 0 0 0 0 0 0 0 0 0 0 0 0 0 0 0
0 0 0 0 0 0 0 0 0 158 0 0 0 0 0 0 0 0 0 0 0 0 0 0 0 0 0 0 0 0 0 0 0 0 0 0 0 0 0 0 0 0 0
0 0 0 0 0 0 0 0 0 0 0 0 0 0 0 0 0 0 0 0 0 0 0 0 0 0 0 0 0 0 0 0 0 0 0 0 0 0 0 0 0 0 0

GFSSE_con_mlcape_054.txt.gz
CAPE
478 772 1030 1046 991 962 868 805 767 573 427 202 54 0 0 0 0 0 0 0 5 1 0 0 50 52 18 7 0 0 0 0 0 0 0 0 0 0 0 0 0 0 0
649 804 882 990 919 877 789 592 408 287 166 66 11 3 0 0 0 0 0 14 11 0 6 1 4 54 35 28 1 0 0 0 0 0 0 0 0 0 0 0 0 0 0
648 777 873 870 792 771 590 438 271 153 99 61 5 4 5 1 0 0 0 4 4 5 3 0 2 50 59 41 0 0 0 0 0 0 0 0 0 0 0 0 0 0 0
611 825 830 706 647 583 508 404 321 290 250 157 75 5 1 1 0 0 0 2 8 16 9 10 26 59 49 13 0 0 0 0 0 0 0 0 0 0 0 0 0 0 1
671 877 807 578 505 482 472 414 352 301 241 276 111 7 0 0 0 0 0 0 7 25 17 8 6 10 1 0 0 0 0 0 0 0 0 0 0 0 3 0 0 0 0
750 837 751 562 456 437 361 253 176 141 88 85 99 0 0 0 0 0 0 0 2 3 2 0 0 0 0 0 0 0 0 0 0 0 0 0 0 12 2 0 2 23 14
737 737 695 566 501 432 325 131 55 69 41 93 25 0 0 0 0 0 0 0 0 0 1 0 0 0 0 0 0 0 0 0 0 0 4 4 2 51 41 63 37 38 69
685 663 639 598 485 344 134 47 12 14 5 21 1 0 0 0 0 0 0 0 0 0 0 0 0 0 0 0 0 0 0 0 0 8 10 17 18 36 32 11 21 25 18
680 541 570 460 301 112 51 30 9 11 0 0 0 0 0 0 0 0 0 0 0 0 0 0 0 0 0 0 0 0 0 0 0 4 2 15 21 24 0 0 1 0 54
648 508 445 364 204 99 79 35 8 16 21 1 30 44 40 6 0 0 0 0 0 0 0 0 0 0 0 0 0 0 0 0 0 0 0 2 10 0 0 0 21 20 19
688 584 425 315 174 102 79 68 22 20 32 33 31 27 16 33 41 0 0 0 0 0 0 0 0 0 0 0 0 0 0 0 0 0 0 0 0 0 0 9 5 1 6
783 570 463 342 218 152 149 127 56 6 11 13 17 13 0 0 53 33 0 0 0 0 0 0 0 0 0 0 0 0 0 0 0 0 0 0 0 0 12 1 0 0 0
869 691 557 383 277 208 217 210 147 37 0 0 0 0 0 0 52 45 0 0 0 0 0 0 0 0 0 0 0 0 0 0 0 0 0 0 0 1 7 2 0 0 0
943 837 668 470 345 293 315 236 205 126 28 0 0 0 0 0 40 40 9 0 0 0 0 0 0 0 0 0 0 0 0 0 0 0 0 0 0 9 3 1 0 0 0
634 820 835 627 485 401 403 315 259 201 99 15 0 0 0 0 11 18 9 0 0 0 0 0 0 0 0 0 0 0 0 0 0 0 0 0 0 0 0 0 0 0 0
450 541 913 881 696 585 573 409 361 292 220 100 2 0 0 0 7 12 0 0 0 0 0 0 0 0 0 0 0 0 0 0 0 0 0 0 0 0 0 0 0 0 0
7 422 595 949 892 716 783 614 567 496 415 254 63 0 0 0 3 4 0 0 0 0 0 0 0 0 0 0 0 0 0 0 0 0 0 0 0 0 0 0 0 0 0
0 0 379 769 914 823 933 815 757 660 608 432 225 35 0 0 0 0 0 0 0 0 0 0 0 0 0 0 0 0 0 0 0 0 0 0 0 0 0 0 0 0 0
0 0 0 401 723 900 941 900 770 771 713 504 234 56 9 0 0 0 0 0 0 0 0 0 0 0 0 0 0 0 0 0 0 0 0 0 0 0 0 0 0 0 0
0 0 0 56 522 844 858 814 804 742 770 618 405 95 40 0 0 0 0 0 0 0 0 0 0 0 0 0 0 0 0 0 0 0 0 0 0 0 0 0 0 0 0
0 0 0 0 97 691 695 693 784 844 807 721 463 184 69 0 0 0 0 0 0 0 0 0 0 0 0 0 0 0 0 0 0 0 0 0 0 0 0 0 0 0 0
0 0 0 0 0 232 814 845 780 766 923 719 541 335 113 13 0 0 0 0 0 0 0 0 0 0 0 0 0 0 0 0 0 0 0 0 0 0 0 0 0 0 0
0 0 0 0 0 0 607 728 277 132 26 230 443 469 231 0 0 0 0 0 0 0 0 0 0 0 0 0 0 0 0 0 0 0 0 0 0 0 0 0 0 0 0
0 0 0 0 0 0 17 597 566 548 435 312 349 139 26 0 0 0 0 0 0 0 0 0 0 0 0 0 0 0 0 0 0 0 0 0 0 0 0 0 0 0 0
0 0 0 0 0 0 0 39 441 460 372 44 11 13 0 0 0 0 0 0 0 0 0 0 0 0 0 0 0 0 0 0 0 0 0 0 0 0 0 0 0 0 0
0 0 0 0 0 0 0 0 4 180 64 24 1 0 0 0 0 0 0 0 0 0 0 0 0 0 0 0 0 0 0 0 0 0 0 0 0 0 0 0 0 0 0

GFSSE_con_mlcape_057.txt.gz
CAPE
240 841 925 1259 1089 987 919 953 903 660 477 227 108 18 0 0 0 0 0 0 0 0 0 45 24 5 3 1 0 0 0 0 0 0 0 0 0 0 0 0 0 0 0
401 833 1007 1096 995 929 953 932 751 539 346 175 73 3 0 0 0 0 0 2 1 0 5 6 62 52 42 27 0 0 0 0 0 0 0 0 0 0 0 0 0 0 0
534 890 939 998 1007 903 873 793 556 365 225 90 47 4 2 0 0 0 6 7 0 1 15 1 61 76 65 48 1 0 0 0 0 0 0 0 0 0 0 0 0 0 0
649 867 895 937 892 832 596 457 305 183 130 77 47 1 2 1 0 0 2 3 3 7 5 8 34 72 55 21 0 0 0 0 0 0 0 0 0 1 0 0 0 0 0
673 758 865 829 775 697 577 437 359 321 280 156 86 7 6 3 0 0 0 4 16 26 19 28 40 36 17 4 0 0 0 0 0 0 0 0 0 4 5 0 0 0 0
677 740 790 645 596 489 447 471 499 482 470 334 110 3 3 1 0 0 0 5 9 17 11 1 0 2 0 0 0 0 0 0 0 0 0 0 0 10 3 5 50 74 51
674 724 684 579 534 506 484 443 337 219 284 326 93 23 0 0 0 0 0 0 5 5 1 0 0 0 0 0 0 0 0 0 0 0 0 0 16 63 55 35 34 26 36
615 710 631 535 509 468 331 319 258 173 140 241 87 25 0 0 0 0 0 0 0 2 0 0 0 0 0 0 0 0 0 0 0 0 1 6 15 18 4 2 0 2 48
708 654 602 498 478 401 314 151 122 137 125 142 72 1 2 4 0 0 0 0 0 1 0 0 0 0 0 0 0 0 0 0 0 0 0 6 18 9 0 0 4 45 21
670 559 479 492 428 231 152 72 54 88 65 80 28 0 29 18 0 0 0 0 1 0 0 0 0 0 0 0 0 0 0 0 0 0 0 0 2 2 0 3 14 6 0
603 527 469 374 237 99 91 77 48 62 16 45 43 23 25 12 12 0 0 0 0 0 0 0 0 0 0 0 0 0 0 0 0 0 0 0 0 0 5 6 0 3 2
666 541 479 291 140 64 77 65 13 35 50 48 81 70 46 31 40 29 0 0 0 0 0 0 0 0 0 0 0 0 0 0 0 0 0 0 0 4 11 0 0 0 0
758 594 483 279 170 84 72 65 16 9 39 44 47 51 7 14 71 85 3 0 0 0 0 0 0 0 0 0 0 0 0 0 0 0 0 0 0 17 4 0 0 0 0
802 757 585 371 232 140 129 89 49 2 4 5 22 28 4 0 20 84 24 0 0 0 0 0 0 0 0 0 0 0 0 0 0 0 0 0 0 5 0 0 0 0 0
871 828 707 472 316 206 161 125 97 58 2 0 0 6 1 0 8 65 46 10 0 0 0 0 0 0 0 0 0 0 0 0 0 0 0 0 0 0 0 0 0 0 0
905 947 772 667 412 269 221 161 139 113 72 8 0 0 0 0 1 68 63 15 1 0 0 0 0 0 0 0 0 0 0 0 0 0 0 0 0 0 0 0 0 0 0
297 711 909 781 549 386 333 234 188 162 132 65 23 0 0 0 0 15 55 24 0 0 0 0 0 0 0 0 0 0 0 0 0 0 0 0 0 0 0 0 0 0 0
0 0 456 884 740 568 458 361 266 248 215 138 104 4 0 0 0 0 18 23 0 0 0 0 0 0 0 0 0 0 0 0 0 0 0 0 0 0 0 0 0 0 0
0 0 0 555 883 743 572 528 440 421 392 283 199 63 0 0 0 0 1 2 0 0 0 0 0 0 0 0 0 0 0 0 0 0 0 0 0 0 0 0 0 0 0
0 0 0 0 473 826 666 639 606 569 573 417 286 150 37 0 0 0 0 0 0 0 0 0 0 0 0 0 0 0 0 0 0 0 0 0 0 0 0 0 0 0 0
0 0 0 0 0 465 654 742 685 651 664 488 408 230 79 0 0 0 0 0 0 0 0 0 0 0 0 0 0 0 0 0 0 0 0 0 0 0 0 0 0 0 0
0 0 0 0 0 8 535 735 675 668 586 594 424 297 43 3 0 0 0 0 0 0 0 0 0 0 0 0 0 0 0 0 0 0 0 0 0 0 0 0 0 0 0
0 0 0 0 0 0 169 559 418 226 22 217 250 356 216 40 0 0 0 0 0 0 0 0 0 0 0 0 0 0 0 0 0 0 0 0 0 0 0 0 0 0 0
0 0 0 0 0 0 0 205 287 262 212 301 322 447 266 38 0 0 0 0 0 0 0 0 0 0 0 0 0 0 0 0 0 0 0 0 0 0 0 0 0 0 0
0 0 0 0 0 0 0 0 91 190 241 148 159 239 38 0 0 0 0 0 0 0 0 0 0 0 0 0 0 0 0 0 0 0 0 0 0 0 0 0 0 0 0
0 0 0 0 0 0 0 0 0 72 105 88 23 14 7 0 0 0 0 0 0 0 0 0 0 0 0 0 0 0 0 0 0 0 0 0 0 0 0 0 0 0 0

GFSSE_con_mlcape_060.txt.gz
CAPE
94 577 1086 1232 1144 1111 1192 1144 1019 708 503 361 169 63 0 0 0 0 0 0 2 13 38 48 24 26 12 0 0 0 0 0 0 0 0 0 0 0 0 0 0 0 0
197 933 1096 1270 1154 1138 1186 1108 906 656 357 252 92 42 0 0 0 0 0 8 6 0 8 62 55 48 26 1 0 0 0 0 0 0 0 0 0 0 0 0 0 0 0
484 1062 1159 1230 1082 1073 1086 1019 804 513 279 152 77 38 0 0 0 4 11 3 0 0 12 32 59 65 54 18 0 0 0 0 0 0 0 0 0 0 0 0 0 1 0
659 1012 1022 1112 1023 1042 989 841 678 491 189 104 62 17 3 1 0 1 1 0 0 5 7 4 67 34 43 12 0 0 0 0 0 0 0 0 0 0 0 0 0 0 0
758 892 955 1077 1065 884 827 596 462 197 116 90 53 5 3 3 0 0 2 1 8 4 0 4 48 42 8 0 0 0 0 0 0 0 0 0 0 4 2 0 0 0 0
754 831 1020 980 976 667 511 458 351 259 218 194 105 18 2 4 0 0 1 5 13 17 19 22 6 9 0 0 0 0 0 0 0 0 0 0 0 20 37 46 51 59 62
714 828 996 919 828 614 465 394 473 503 570 322 108 41 20 0 0 0 0 6 4 6 6 0 0 0 0 0 0 0 0 0 0 0 0 3 23 44 39 58 33 63 77
678 825 809 677 563 440 455 456 460 291 476 390 126 65 9 0 0 0 0 3 5 5 1 0 0 0 0 0 0 0 0 0 0 0 0 0 29 22 16 1 3 41 12
736 686 657 599 444 417 253 386 264 235 197 330 152 52 7 0 0 0 0 0 3 2 0 0 0 0 0 0 0 0 0 0 0 0 0 7 21 13 0 44 32 18 3
709 615 494 493 442 372 322 293 256 183 157 165 114 24 17 0 0 0 0 0 0 1 0 0 0 0 0 0 0 0 0 0 0 0 0 0 8 0 8 18 11 4 2
622 599 498 390 358 255 207 140 129 161 130 134 67 18 16 2 0 0 0 0 0 0 0 0 0 0 0 0 0 0 0 0 0 0 0 0 0 3 14 2 6 5 0
596 572 496 374 269 181 117 76 44 75 55 75 65 32 41 16 18 0 0 0 0 0 0 0 0 0 0 0 0 0 0 0 0 0 0 0 0 25 2 1 1 0 0
541 551 514 332 235 146 74 53 15 18 15 52 75 66 46 46 59 59 0 0 0 0 0 1 0 0 0 0 0 0 0 0 0 0 0 0 1 13 2 0 0 0 0
663 607 499 349 228 144 86 43 9 0 20 20 60 73 55 58 80 89 51 0 0 1 0 0 0 0 0 0 0 0 0 0 0 0 0 0 1 5 0 0 0 0 0
721 643 566 452 257 163 103 67 22 0 0 27 27 37 38 15 14 38 72 16 0 0 0 0 0 0 0 0 0 0 0 0 0 0 0 0 0 0 0 0 0 0 0
792 732 658 606 341 210 149 99 55 38 0 0 0 14 13 14 1 8 52 40 0 0 0 0 0 0 0 0 0 0 0 0 0 0 0 0 0 0 0 0 0 0 0
520 754 751 688 477 349 224 131 95 71 51 0 0 0 0 0 0 0 30 36 8 0 0 0 0 0 0 0 0 0 0 0 0 0 0 0 0 0 0 0 0 0 0
0 258 712 800 664 474 363 218 158 121 91 42 2 0 0 0 0 0 22 41 12 0 0 0 0 0 0 0 0 0 0 0 0 0 0 0 0 0 0 0 0 0 0
0 0 12 645 752 655 460 348 230 139 124 98 50 21 0 0 0 0 0 3 1 0 0 0 0 0 0 0 0 0 0 0 0 0 0 0 0 0 0 0 0 0 0
0 0 0 0 238 561 557 407 281 240 207 164 146 97 17 0 0 0 0 0 0 0 0 0 0 0 0 0 0 0 0 0 0 0 0 0 0 0 0 0 0 0 0
0 0 0 0 0 413 431 551 516 458 395 343 290 215 61 17 0 0 0 0 0 0 0 0 0 0 0 0 0 0 0 0 0 0 0 0 0 0 0 0 0 0 0
0 0 0 0 0 5 322 344 550 476 425 514 325 282 147 28 2 0 0 0 0 0 0 0 0 0 0 0 0 0 0 0 0 0 0 0 0 0 0 0 0 0 0
0 0 0 0 0 0 7 220 295 391 194 319 375 373 260 63 10 18 0 0 0 0 0 0 0 0 0 0 0 0 0 0 0 0 0 0 0 0 0 0 0 0 0
0 0 0 0 0 0 0 5 84 60 117 272 469 448 295 68 58 26 0 0 0 0 0 0 0 0 0 0 0 0 0 0 0 0 0 0 0 0 0 0 0 0 0
0 0 0 0 0 0 0 0 0 71 274 228 287 366 261 24 13 0 0 0 0 0 0 0 0 0 0 0 0 0 0 0 0 0 0 0 0 0 0 0 0 0 0
0 0 0 0 0 0 0 0 0 0 0 4 66 240 60 4 0 0 0 0 0 0 0 0 0 0 0 0 0 0 0 0 0 0 0 0 0 0 0 0 0 0 0

GFSSE_con_mlcape_063.txt.gz
CAPE
74 380 1341 1344 1248 1115 1308 1032 865 689 497 378 249 141 50 9 0 1 10 23 34 50 44 48 26 19 2 0 0 0 0 0 0 0 0 0 0 0 1 0 0 0 0
168 1050 1374 1291 1143 1187 1236 1167 863 638 433 345 167 99 29 17 0 0 0 0 0 3 63 68 42 28 1 0 0 0 0 0 0 0 0 0 0 0 0 0 0 0 0
347 1036 1327 1265 1221 1261 1158 1038 814 544 340 224 115 38 38 29 29 9 7 2 0 0 0 55 42 34 24 0 0 0 0 0 0 0 0 0 0 0 0 0 0 0 0
773 1170 1335 1240 1155 1202 1218 1025 674 427 284 129 73 35 30 1 5 30 1 0 0 3 3 43 44 43 15 0 0 0 0 0 0 0 0 0 0 0 0 0 0 0 0
1050 1107 1360 1174 1206 1168 1097 887 687 366 170 101 69 27 3 0 0 0 0 0 0 5 0 22 36 27 4 0 0 0 0 0 0 0 0 0 6 5 2 7 2 0 0
1005 1092 1237 1183 1162 941 744 711 574 234 92 85 48 17 4 1 0 1 0 8 2 7 22 63 63 0 0 0 0 0 0 0 0 0 0 0 9 34 47 54 62 48 78
895 1018 1171 1211 1000 728 544 434 295 131 129 126 68 22 3 1 0 2 0 7 29 36 41 9 0 0 0 0 0 0 0 0 0 0 2 20 34 26 30 20 58 46 15
851 1088 1163 1006 846 580 373 251 226 200 274 264 117 52 5 1 0 0 5 3 5 13 27 10 0 0 0 0 0 0 0 0 0 0 0 19 21 6 0 3 35 6 4
775 933 1020 907 695 420 326 256 322 346 481 364 161 102 14 0 0 0 0 11 5 2 2 1 0 0 0 0 0 0 0 0 0 0 0 9 13 0 16 27 15 5 4
655 783 737 644 507 443 362 321 263 176 226 316 170 71 0 0 0 0 0 1 22 5 0 0 0 0 1 0 0 0 0 0 0 0 0 0 0 1 16 12 0 3 3
553 668 612 522 479 366 237 342 253 187 144 161 122 53 12 0 0 0 0 0 1 1 0 0 0 5 0 0 0 0 0 0 0 0 0 0 0 25 3 6 4 4 0
568 560 555 509 423 334 252 261 231 220 173 157 128 84 37 5 0 0 0 0 3 0 0 0 2 0 0 0 0 0 0 0 0 0 0 0 14 19 5 2 2 0 0
503 557 476 413 382 290 196 151 101 138 121 152 112 69 58 46 42 0 0 3 21 7 9 41 23 0 0 0 0 0 0 0 0 0 0 0 32 10 0 0 0 0 0
587 494 395 338 339 282 168 95 50 46 59 59 97 61 56 55 71 74 6 0 0 5 12 42 0 0 0 0 0 0 0 0 0 0 0 0 20 5 0 0 0 0 0
591 506 408 376 359 290 181 88 44 14 26 22 58 67 60 56 69 96 84 20 0 0 0 1 0 0 0 0 0 0 0 0 0 0 0 0 0 0 0 0 0 0 0
593 503 437 411 389 294 212 119 54 21 6 12 24 49 57 46 47 65 74 68 3 0 0 0 0 0 0 0 0 0 0 0 0 0 0 0 0 0 0 0 0 0 0
395 688 615 501 348 390 264 159 114 66 17 0 9 18 28 35 31 16 19 46 40 0 0 0 0 0 0 0 0 0 0 0 0 0 0 0 0 0 0 0 0 0 0
0 15 521 588 493 514 337 223 156 107 82 38 1 0 0 9 14 17 6 28 56 6 0 0 0 0 0 0 0 0 0 0 0 0 0 0 0 0 0 0 0 0 0
0 0 0 258 587 535 468 304 253 155 110 80 35 6 0 0 0 0 0 21 39 13 0 0 0 0 0 0 0 0 0 0 0 0 0 0 0 0 0 0 0 0 0
0 0 0 0 187 593 460 277 254 197 155 156 122 71 13 0 0 0 0 0 5 10 0 0 0 0 0 0 0 0 0 0 0 0 0 0 0 0 0 0 0 0 0
0 0 0 0 0 115 358 308 313 285 307 204 186 168 75 36 5 0 0 0 0 0 0 0 0 0 0 0 0 0 0 0 0 0 0 0 0 0 0 0 0 0 0
0 0 0 0 0 0 67 176 384 406 354 390 294 175 156 63 15 24 0 0 0 0 0 0 0 0 0 0 0 0 0 0 0 0 0 0 0 0 0 0 0 0 0
0 0 0 0 0 0 0 231 299 368 235 280 271 353 308 158 83 87 35 1 0 0 0 0 0 0 0 0 0 0 0 0 0 0 0 0 0 0 0 0 0 0 0
0 0 0 0 0 0 0 0 5 63 78 116 125 368 378 124 112 60 44 0 0 0 0 0 0 0 0 0 0 0 0 0 0 0 0 0 0 0 0 0 0 0 0
0 0 0 0 0 0 0 0 0 0 2 164 212 252 346 174 77 49 45 11 1 0 0 0 0 0 0 0 0 0 0 0 0 0 0 0 0 0 0 0 0 0 0
0 0 0 0 0 0 0 0 0 0 0 0 82 137 233 168 24 7 2 3 0 0 0 0 0 0 0 0 0 0 0 0 0 0 0 0 0 0 0 0 0 0 0

GFSSE_con_mlcape_066.txt.gz
CAPE
345 1246 1535 1518 1399 1475 1193 896 864 770 701 670 622 541 420 300 239 190 142 130 37 38 34 21 4 2 0 0 0 0 0 0 0 0 0 0 0 0 0 0 0 0 1
426 1251 1436 1448 1354 1462 1243 1053 849 658 463 408 283 162 56 5 0 0 0 1 26 46 57 26 19 1 0 0 0 0 0 0 0 0 0 0 0 0 0 0 0 0 0
443 1284 1160 1387 1287 1341 1306 1135 876 663 501 366 243 105 86 44 2 5 0 0 0 1 62 46 28 3 0 0 0 0 0 0 0 0 0 0 0 0 0 0 0 0 0
932 1147 1191 1248 1241 1372 1239 1104 846 619 411 270 103 51 24 6 38 37 1 0 0 0 4 35 32 19 0 0 0 0 0 0 0 0 0 0 0 0 0 0 0 0 0
948 1196 1335 1272 1386 1407 1231 1028 702 532 236 132 72 36 4 2 4 0 0 0 0 2 4 22 38 2 0 0 0 0 0 0 0 0 4 11 6 0 4 6 0 0 0
1009 1272 1407 1337 1372 1367 1131 904 735 338 104 92 39 5 2 2 0 0 0 0 0 3 5 59 13 0 0 0 0 0 0 0 0 4 20 3 33 30 59 80 32 62 84
953 1170 1328 1262 1246 1164 903 742 456 161 84 76 9 6 1 0 0 0 0 5 0 39 66 53 0 0 0 0 0 0 0 0 3 21 34 45 28 18 10 47 5 5 3
1024 1097 1278 1177 1106 976 657 479 318 140 124 128 64 24 5 0 0 0 0 27 14 72 49 22 0 0 0 0 0 0 0 0 2 7 21 29 1 0 5 17 4 4 2
1054 980 958 1154 815 547 381 294 216 176 256 163 112 72 2 0 0 0 3 5 7 47 27 10 5 0 0 0 0 0 0 0 13 10 21 29 0 32 62 25 10 3 2
998 914 937 878 724 589 309 200 200 275 414 249 146 94 0 0 0 0 5 6 8 7 0 0 0 0 0 0 0 0 0 0 12 12 20 20 0 36 23 6 0 3 3
775 798 785 707 604 359 314 368 263 183 222 272 163 36 0 0 0 0 0 3 8 3 0 0 0 0 0 0 0 0 0 4 3 4 10 0 2 16 5 1 0 2 0
649 682 784 661 462 351 240 229 280 189 151 106 171 70 25 0 0 0 0 0 4 7 0 0 10 0 0 0 0 0 1 0 0 0 0 0 30 5 0 0 0 0 0
652 656 677 704 626 412 226 149 152 145 96 86 101 86 44 0 0 0 0 0 0 0 0 0 3 0 0 0 0 0 0 0 0 0 0 0 25 3 0 0 0 0 0
687 603 586 647 565 435 305 162 74 59 70 69 78 63 45 6 26 2 0 0 0 0 0 1 7 2 0 0 0 0 0 0 0 0 0 0 21 0 0 0 0 0 0
701 635 572 509 469 532 440 248 85 48 43 27 43 52 31 24 34 82 50 0 0 0 0 4 4 0 0 0 0 0 0 0 0 0 0 0 5 0 0 0 0 0 0
565 640 608 575 463 513 595 417 184 89 51 21 25 34 19 22 40 96 120 84 4 0 0 7 1 0 0 0 0 0 0 0 0 0 0 1 0 0 0 0 0 0 0
887 802 705 620 468 502 637 584 366 201 106 61 45 31 30 54 84 83 90 102 109 0 0 0 2 0 0 0 0 0 0 0 0 0 0 0 0 0 0 0 0 0 0
0 349 842 783 639 628 614 741 591 399 216 126 83 44 35 41 62 73 55 60 98 83 1 0 0 0 0 0 0 0 0 0 0 0 0 0 0 0 0 0 0 0 0
0 0 0 306 759 765 712 719 669 588 454 310 174 92 73 51 53 56 35 39 74 100 34 0 0 0 0 0 0 0 0 0 0 0 0 0 0 0 0 0 0 0 0
0 0 0 0 117 611 591 524 470 446 515 552 458 284 151 100 74 52 34 26 30 103 67 30 0 0 0 0 0 0 0 0 0 0 0 0 0 0 0 0 0 0 0
0 0 0 0 0 47 699 469 494 475 468 377 441 632 442 236 82 56 43 30 11 39 124 68 0 0 0 0 0 0 0 0 0 0 0 0 0 0 0 0 0 0 0
0 0 0 0 0 0 38 485 511 570 484 478 333 314 574 512 253 118 72 77 39 27 82 100 0 0 0 0 0 0 0 0 0 0 0 0 0 0 0 0 0 0 0
0 0 0 0 0 0 0 13 215 277 432 367 430 429 363 409 496 287 161 180 82 23 22 59 1 0 0 0 0 0 0 0 0 0 0 0 0 0 0 0 0 0 0
0 0 0 0 0 0 0 0 7 28 50 177 431 563 660 391 301 418 298 316 135 35 4 12 0 0 0 0 0 0 0 0 0 0 0 0 0 0 0 0 0 0 0
0 0 0 0 0 0 0 0 0 0 1 95 363 485 552 474 244 142 158 266 146 42 8 0 0 0 0 0 0 0 0 0 0 0 0 0 0 0 0 0 0 0 0
0 0 0 0 0 0 0 0 0 0 0 52 170 303 425 422 216 97 71 60 73 40 12 5 0 0 0 0 0 0 0 0 0 0 0 0 0 0 0 0 0 0 0

GFSSE_con_mlcape_069.txt.gz
CAPE
631 1407 1594 1284 1534 1369 1310 1187 973 912 837 765 691 652 538 399 343 228 143 60 75 40 29 3 3 0 0 0 0 0 0 0 0 0 0 0 0 0 0 0 0 3 6
818 1378 1548 1407 1531 1426 1231 1073 952 736 644 666 650 486 337 224 127 86 90 90 67 52 35 15 4 0 0 0 0 0 0 0 0 0 0 0 0 0 0 0 0 0 0
1086 1323 1289 1420 1440 1396 1155 1050 800 608 487 382 277 91 45 0 0 0 0 0 15 66 39 25 5 1 0 0 0 0 0 0 0 0 0 0 0 0 0 0 0 0 0
962 1151 1061 1398 1370 1441 1264 1015 825 667 525 346 227 179 86 42 33 17 2 0 0 0 24 47 20 0 0 0 0 0 0 0 0 0 2 0 0 0 0 0 0 0 0
1123 900 1294 1227 1315 1415 1163 1027 860 656 367 210 68 40 5 23 34 1 0 0 0 0 12 30 19 0 0 0 0 0 0 0 0 5 16 26 25 13 19 0 0 15 31
946 1128 1162 1271 1373 1342 1137 1011 696 533 188 107 52 6 6 3 0 0 0 0 3 0 26 24 0 0 0 0 0 0 0 0 0 22 17 39 42 53 65 43 49 46 71
914 1700 1258 1345 1391 1269 1156 864 583 229 94 66 8 4 2 0 0 0 2 0 0 6 58 9 0 0 0 0 0 0 0 0 2 21 37 25 2 5 28 18 6 5 4
974 1317 1203 1264 1170 1101 961 693 455 125 74 50 3 3 1 0 0 0 7 2 21 50 41 10 1 0 0 0 0 0 0 0 9 14 20 8 0 6 23 6 2 2 1
987 1189 1246 982 955 914 632 453 264 122 81 96 45 1 0 0 0 0 1 6 81 53 19 6 0 0 0 0 0 0 0 0 14 7 25 7 13 50 19 4 1 0 2
972 935 935 877 675 718 443 284 169 146 156 115 80 32 0 0 0 0 1 4 5 33 6 0 0 0 0 0 0 0 0 0 17 9 20 0 1 27 5 0 0 1 3
980 816 842 952 582 592 402 234 166 182 220 172 108 5 0 0 0 0 0 3 8 7 0 0 0 0 0 0 0 0 0 6 13 11 14 0 20 10 1 0 0 0 0
835 901 762 576 395 253 202 299 197 207 245 239 164 35 10 0 0 0 0 0 7 5 0 0 0 0 0 0 0 0 0 5 4 3 2 0 13 5 0 0 0 0 0
610 901 810 580 415 205 164 168 163 169 102 94 128 89 18 0 0 0 0 0 3 0 0 0 0 0 0 1 0 0 1 6 1 0 0 0 7 5 0 0 0 0 0
630 625 659 652 492 302 192 119 106 118 107 68 91 107 53 2 0 0 0 0 0 0 0 0 0 0 1 0 0 0 0 0 0 0 0 0 5 0 0 0 0 0 0
778 633 559 626 578 446 274 227 97 57 53 52 55 62 47 15 11 1 0 0 0 0 0 0 12 5 1 0 0 0 0 0 0 0 0 0 0 0 0 0 0 0 0
695 716 592 604 452 544 541 550 273 102 62 32 21 48 33 14 13 27 60 7 0 0 0 0 1 0 0 0 0 0 0 0 0 0 0 0 0 0 0 0 0 0 0
687 669 828 735 567 585 676 635 556 287 138 79 12 25 17 9 17 20 83 92 74 0 0 0 0 0 0 0 0 0 0 0 0 0 0 0 0 0 0 0 0 0 0
578 834 822 809 741 679 592 832 750 619 318 187 108 53 48 25 35 78 92 99 119 104 2 0 0 0 0 0 0 0 0 0 0 0 0 0 0 0 0 0 0 0 0
0 9 415 958 915 886 860 771 994 818 670 451 273 193 121 76 67 83 90 75 64 97 54 2 0 0 0 0 0 0 0 0 0 0 0 0 0 0 0 0 0 0 0
0 0 0 2 330 1016 1022 715 730 898 981 736 583 392 268 185 114 93 99 86 70 76 80 68 12 0 0 0 0 0 0 0 0 0 0 0 0 0 0 0 0 0 0
0 0 0 0 0 16 265 742 451 580 589 863 844 711 560 388 268 176 177 125 113 92 119 82 69 0 0 0 0 0 0 0 0 0 0 0 0 0 0 0 0 0 0
0 0 0 0 0 0 0 481 465 365 311 449 547 708 905 722 539 320 301 273 207 159 127 105 77 20 0 0 0 0 0 0 0 0 0 0 0 0 0 0 0 0 0
0 0 0 0 0 0 0 0 491 445 690 687 506 509 431 662 872 652 392 389 373 282 190 220 108 45 0 0 0 0 0 0 0 0 0 0 0 0 0 0 0 0 0
0 0 0 0 0 0 0 0 0 100 285 421 516 515 454 500 485 653 706 497 462 458 349 210 271 122 0 0 0 0 0 0 0 0 0 0 0 0 0 0 0 0 0
0 0 0 0 0 0 0 0 0 0 4 104 121 220 456 727 537 336 393 465 451 519 454 241 176 190 0 0 0 0 0 0 0 0 0 0 0 0 0 0 0 0 0
0 0 0 0 0 0 0 0 0 0 0 1 10 115 268 440 671 497 206 207 251 368 281 256 161 99 0 0 0 0 0 0 0 0 0 0 0 0 0 0 0 0 0

GFSSE_con_mlcape_072.txt.gz
CAPE
1256 1331 1407 1295 1383 1349 1226 1207 1060 973 890 756 713 585 405 312 202 108 39 71 47 0 4 5 3 0 0 0 0 0 0 0 0 0 0 0 0 0 0 0 0 1 33
1428 1589 1459 1344 1409 1374 1260 1103 925 813 649 678 616 483 352 247 179 110 96 64 37 18 23 5 1 0 0 0 0 0 0 0 0 0 0 0 0 0 0 0 0 0 0
1378 1645 1461 1378 1361 1326 1198 1053 844 759 633 576 368 118 81 3 0 0 0 0 29 37 17 2 0 0 0 0 0 0 0 0 0 0 0 0 0 0 0 0 0 0 0
1415 1304 1379 1424 1422 1311 1153 918 723 544 358 322 207 154 86 14 32 20 2 0 0 20 32 16 0 0 0 0 0 0 0 0 0 1 2 0 0 0 0 0 0 0 0
1113 959 1366 1383 1482 1363 1179 901 664 540 274 191 116 53 21 70 15 0 0 0 0 0 24 25 0 0 0 0 0 0 0 0 0 5 15 24 20 63 16 61 71 83 65
866 1270 1053 1287 1408 1272 1099 892 680 478 213 42 14 7 5 4 0 0 0 0 0 0 22 5 0 0 0 0 0 0 0 0 1 26 19 15 17 70 84 18 3 7 17
1286 1235 948 1287 1344 1210 1125 886 600 206 85 25 4 2 1 2 0 0 6 0 7 6 45 0 0 0 0 0 0 0 0 0 5 25 8 0 0 36 9 2 1 2 3
1541 1118 961 1271 1219 1111 1090 723 336 88 54 3 2 1 1 0 0 0 7 5 8 47 6 0 1 0 0 0 0 0 0 0 6 11 13 3 9 20 12 4 2 1 1
1343 1083 1063 1209 1122 945 787 552 198 71 26 8 3 0 0 0 0 1 4 15 62 63 6 5 0 0 0 0 0 0 0 0 3 14 7 12 40 30 6 5 0 1 4
1258 1120 876 893 882 839 511 382 137 105 56 37 2 2 0 0 0 0 0 8 83 30 1 0 0 0 0 0 0 0 0 0 0 0 2 2 20 14 2 0 0 0 1
1130 950 818 612 675 632 325 272 133 97 102 75 26 1 0 0 0 0 0 0 3 3 3 0 0 0 0 0 0 0 0 0 0 2 0 1 0 6 1 0 0 0 0
953 854 751 664 390 392 324 142 135 124 138 116 56 3 0 0 0 0 0 0 5 4 0 0 0 0 0 0 0 0 0 0 0 0 0 0 0 3 1 0 0 0 0
798 954 864 850 414 348 224 140 112 109 161 160 111 30 19 0 0 0 0 0 0 1 0 0 0 0 0 0 0 0 0 0 0 0 0 0 2 2 0 0 0 0 0
546 750 823 608 327 155 106 146 129 157 128 98 143 69 31 0 0 0 0 0 0 0 0 0 0 0 0 0 0 0 0 0 0 0 0 0 0 1 0 0 0 0 0
607 612 618 631 472 189 120 77 66 95 85 62 51 77 38 1 0 0 0 0 0 0 0 0 0 0 0 0 0 0 0 0 0 0 0 0 0 0 0 0 0 0 0
740 606 569 512 590 524 200 127 98 53 43 38 32 45 43 9 0 0 0 0 0 0 0 0 0 0 0 0 0 0 0 0 0 0 0 0 0 0 0 0 0 0 0
614 758 594 572 571 457 510 446 313 116 52 29 5 15 18 7 0 0 8 0 0 0 0 0 0 0 0 0 0 0 0 0 0 0 0 0 0 0 0 0 0 0 0
551 570 702 686 574 512 462 593 495 392 162 75 9 0 0 0 0 0 1 39 22 33 0 0 0 0 0 0 0 0 0 0 0 0 0 0 0 0 0 0 0 0 0
57 459 628 875 733 584 548 510 763 594 496 228 128 45 0 0 0 0 23 46 71 39 41 0 0 0 0 0 0 0 0 0 0 0 0 0 0 0 0 0 0 0 0
0 0 0 445 797 788 729 593 674 815 668 489 328 189 121 27 13 6 50 72 55 51 67 30 0 0 0 0 0 0 0 0 0 0 0 0 0 0 0 0 0 0 0
0 0 0 0 0 491 886 756 605 567 727 769 696 561 312 179 76 38 57 79 70 48 78 66 42 0 0 0 0 0 0 0 0 0 0 0 0 0 0 0 0 0 0
0 0 0 0 0 0 2 711 709 527 429 478 548 715 698 464 248 132 95 112 98 85 84 110 71 51 0 0 0 0 0 0 0 0 0 0 0 0 0 0 0 0 0
0 0 0 0 0 0 0 0 530 371 232 202 250 413 528 570 611 405 234 187 189 157 114 92 91 55 37 0 0 0 0 0 0 0 0 0 0 0 0 0 0 0 0
0 0 0 0 0 0 0 0 12 298 225 354 442 420 336 332 353 403 524 373 289 294 264 137 100 82 40 1 0 0 0 0 0 0 0 0 0 0 0 0 0 0 0
0 0 0 0 0 0 0 0 0 0 0 226 372 415 419 379 362 359 359 330 525 404 406 372 255 136 103 25 0 0 0 0 0 0 0 0 0 0 0 0 0 0 0
0 0 0 0 0 0 0 0 0 0 0 0 0 9 0 51 322 539 493 304 210 222 342 405 375 250 172 77 0 0 0 0 0 0 0 0 0 0 0 0 0 0 0

GFSSE_con_mlcape_075.txt.gz
CAPE
982 1454 1482 1483 1420 1374 1220 1100 1056 943 780 777 705 517 407 253 79 86 94 33 0 2 4 2 0 0 0 0 0 0 0 0 0 0 0 0 0 0 0 0 0 15 37
1150 1594 1479 1456 1424 1367 1215 1124 1023 867 756 756 653 500 349 267 176 123 102 30 25 20 3 1 0 0 0 0 0 0 0 0 0 0 0 0 0 0 0 0 0 0 0
1165 1582 1462 1370 1333 1331 1174 1005 910 624 603 616 461 317 186 30 0 0 11 38 41 8 2 0 0 0 0 0 0 0 0 0 0 0 0 0 0 0 0 0 0 0 0
1190 1503 1432 1346 1344 1243 1053 869 815 693 590 333 162 55 21 9 19 15 0 0 27 40 8 0 0 0 0 0 0 0 0 0 0 0 0 0 0 0 0 3 9 28 0
1135 1395 1508 1365 1403 1218 974 816 682 596 330 172 76 108 94 117 5 0 0 0 0 28 14 1 0 0 0 0 0 0 0 0 7 9 9 18 23 55 75 51 34 86 124
977 1194 1463 1465 1426 1152 858 664 551 315 111 9 7 10 12 4 0 0 0 0 0 14 9 1 0 0 0 0 0 0 0 7 5 1 9 27 32 74 10 3 4 9 78
1046 1127 1355 1483 1320 1096 906 771 469 295 11 5 4 0 2 1 0 0 0 0 0 8 2 2 0 0 0 0 0 0 0 1 6 0 0 5 19 7 2 3 1 1 2
1148 1035 1240 1350 1168 1080 953 673 313 93 7 4 0 0 1 0 0 6 0 0 2 8 0 5 0 0 0 0 0 0 0 0 4 1 0 0 1 5 3 5 0 2 1
1029 844 1071 1197 1134 1048 899 596 206 39 4 2 0 0 0 0 0 0 5 10 62 23 2 0 0 0 0 0 0 0 0 0 0 0 0 4 6 6 0 3 2 3 4
880 709 814 1048 1012 879 667 303 105 48 14 1 1 0 0 0 0 0 32 27 72 40 15 0 0 0 0 0 0 0 0 0 0 0 0 2 0 3 2 0 1 1 0
879 625 630 672 815 701 469 257 98 68 36 26 2 0 0 0 0 0 3 60 52 37 24 0 0 0 0 0 0 0 0 0 0 0 0 0 0 3 1 0 0 1 0
977 787 640 398 563 478 363 199 96 64 55 38 13 0 0 0 0 0 0 6 32 8 0 0 1 0 0 0 0 0 0 0 0 0 0 0 0 2 1 0 0 0 0
892 777 564 388 424 290 212 125 91 67 72 69 40 9 0 0 0 0 0 0 0 0 0 0 3 0 0 0 0 0 0 0 0 0 0 0 0 0 0 0 0 0 0
879 764 720 508 381 271 240 102 79 75 94 89 74 40 10 0 0 0 0 0 0 0 0 0 0 0 0 0 0 0 0 0 0 0 0 0 0 0 0 0 0 0 0
705 791 674 571 395 261 257 85 73 76 82 95 110 73 9 0 0 0 0 0 0 0 0 0 0 0 0 0 0 0 0 0 0 0 0 0 0 0 0 0 0 0 0
485 621 689 610 407 71 61 51 44 64 94 49 77 87 25 0 0 0 0 0 0 0 0 0 0 0 0 0 0 0 0 0 0 0 0 0 0 0 0 0 0 0 0
619 548 431 596 521 382 170 64 23 0 20 11 0 26 34 0 0 0 0 0 0 0 0 0 0 0 0 0 0 0 0 0 0 0 0 0 0 0 0 0 0 0 0
551 659 628 535 511 519 398 338 184 58 0 0 0 0 0 0 0 0 0 0 0 0 0 0 0 0 0 0 0 0 0 0 0 0 0 0 0 0 0 0 0 0 0
436 503 690 643 505 384 453 399 433 401 51 19 0 0 0 0 0 0 0 0 0 0 0 0 0 0 0 0 0 0 0 0 0 0 0 0 0 0 0 0 0 0 0
16 461 575 677 677 566 397 374 463 532 489 171 89 36 0 0 0 0 0 0 18 26 20 0 0 0 0 0 0 0 0 0 0 0 0 0 0 0 0 0 0 0 0
0 0 31 66 804 673 564 429 345 591 487 427 311 158 48 16 3 0 0 11 20 35 49 26 1 0 0 0 0 0 0 0 0 0 0 0 0 0 0 0 0 0 0
0 0 0 0 0 561 668 633 482 404 499 586 508 531 408 176 5 10 11 12 31 33 31 40 34 5 0 0 0 0 0 0 0 0 0 0 0 0 0 0 0 0 0
0 0 0 0 0 0 3 533 516 454 304 323 326 420 501 419 368 134 7 0 14 29 29 36 43 45 32 0 0 0 0 0 0 0 0 0 0 0 0 0 0 0 0
0 0 0 0 0 0 0 0 0 24 76 170 167 99 45 154 287 315 291 224 15 13 45 36 33 35 15 19 0 0 0 0 0 0 0 0 0 0 0 0 0 0 0
0 0 0 0 0 0 0 0 0 0 16 96 192 226 284 266 211 124 122 127 199 183 106 111 87 79 22 17 1 0 0 0 0 0 0 0 0 0 0 0 0 0 0
0 0 0 0 0 0 0 0 0 0 0 0 0 32 325 260 196 161 193 231 204 179 268 362 322 170 145 137 22 5 0 0 0 0 0 0 0 0 0 0 0 0 0

GFSSE_con_mlcape_078.txt.gz
CAPE
617 1278 1456 1530 1459 1365 1223 1173 1055 948 886 687 500 344 135 107 154 98 15 1 0 4 3 1 1 0 0 0 0 0 0 0 0 0 0 1 2 10 4 4 6 13 10
919 1440 1520 1557 1461 1346 1264 1179 968 843 793 747 631 450 326 210 171 110 33 6 11 4 1 0 0 0 0 0 0 0 0 0 0 0 0 0 0 0 0 0 0 0 0
1196 1435 1523 1511 1432 1354 1192 1102 967 883 762 686 622 516 300 149 107 157 79 37 7 2 1 0 0 0 0 0 0 0 0 0 0 0 0 0 0 0 0 0 0 0 0
1296 1497 1470 1474 1435 1331 1244 1054 883 782 658 513 328 129 24 0 4 0 0 45 21 6 0 0 0 0 0 0 0 0 0 0 0 0 0 0 0 2 5 19 55 6 2
1356 1423 1365 1439 1423 1255 1109 983 846 750 610 417 101 99 175 66 0 0 0 3 35 6 0 0 0 0 0 0 0 0 0 1 0 0 0 0 36 85 75 35 90 41 91
1276 1326 1459 1453 1382 1130 1034 1028 847 652 414 80 3 50 9 0 0 0 0 0 13 0 0 0 0 0 0 0 0 0 0 0 0 0 11 39 15 30 4 3 3 20 59
1142 1197 1445 1410 1284 1141 986 782 682 389 23 0 1 2 4 1 0 0 0 0 15 0 0 0 0 0 0 0 0 0 0 0 0 0 8 11 0 2 2 1 4 1 4
912 1276 1445 1431 1275 1095 856 679 434 67 0 0 0 0 1 0 0 0 0 0 70 0 0 0 0 0 0 0 0 0 0 0 0 0 0 0 0 2 3 1 1 2 3
919 1157 1401 1356 1175 1016 856 544 279 24 0 0 0 0 1 0 0 0 0 56 110 32 0 0 0 0 0 0 0 0 0 0 0 0 0 0 0 3 1 0 1 2 2
981 987 1163 1155 1130 1027 815 382 148 20 0 0 0 0 0 0 0 0 25 128 97 52 14 0 0 0 0 0 0 0 0 0 0 0 0 0 0 2 1 0 0 1 0
950 922 941 967 941 822 716 285 87 33 13 5 0 0 0 0 0 41 39 48 100 71 35 0 0 0 0 0 0 0 0 0 0 0 0 0 0 1 1 0 0 0 0
680 637 895 817 710 757 549 210 79 48 24 14 1 0 0 0 0 0 37 53 60 61 42 23 0 0 0 0 0 0 0 0 0 0 0 0 0 0 0 0 0 0 0
611 634 718 665 717 479 312 147 64 53 38 20 5 0 0 0 0 0 0 17 29 23 8 9 11 0 0 0 0 0 0 0 0 0 0 0 0 0 0 0 0 0 0
742 604 511 404 603 351 254 148 93 68 52 41 20 0 0 0 0 0 0 3 12 8 6 10 4 0 0 0 0 0 0 0 0 0 0 0 0 0 0 0 0 0 0
897 760 638 405 452 321 195 159 100 73 70 66 42 17 7 0 0 0 0 0 0 2 4 7 6 0 0 0 0 0 0 0 0 0 0 0 0 0 0 0 0 0 0
837 768 655 599 353 312 217 152 97 75 76 68 64 55 17 0 0 0 0 0 0 0 0 0 0 0 0 0 0 0 0 0 0 0 0 0 0 0 0 0 0 0 0
533 721 737 656 410 222 244 170 70 49 46 45 79 84 41 0 0 0 0 0 0 0 0 0 0 0 1 0 0 0 0 0 0 0 0 0 0 0 0 0 0 0 0
609 491 399 549 497 158 205 134 40 10 42 41 42 76 57 0 0 0 0 0 0 0 0 0 0 0 0 0 0 0 0 0 0 0 0 0 0 0 0 0 0 0 0
517 563 575 460 489 472 270 161 189 113 0 13 0 0 2 0 0 0 0 0 0 0 0 0 0 0 0 0 0 0 0 0 0 0 0 0 0 0 0 0 0 0 0
254 464 577 598 517 344 410 375 336 347 236 6 0 0 0 0 0 0 0 0 0 0 0 0 0 0 0 0 0 0 0 0 0 0 0 0 0 0 0 0 0 0 0
0 114 474 609 638 508 376 302 358 471 440 293 65 2 0 0 0 0 0 0 0 0 0 0 0 0 0 0 0 0 0 0 0 0 0 0 0 0 0 0 0 0 0
0 0 6 174 402 581 522 406 364 296 377 446 349 213 48 3 0 0 0 0 0 0 0 0 21 5 0 0 0 0 0 0 0 0 0 0 0 0 0 0 0 0 0
0 0 0 0 0 57 430 480 340 252 200 342 418 396 390 250 140 0 0 0 0 0 0 2 26 24 42 0 0 0 0 0 0 0 0 0 0 0 0 0 0 0 0
0 0 0 0 0 0 0 20 348 493 409 303 264 216 232 235 291 303 180 0 0 0 0 0 1 0 0 0 0 0 0 0 0 0 0 0 0 0 0 0 0 0 0
0 0 0 0 0 0 0 0 0 0 147 200 132 177 138 70 39 56 130 119 106 62 4 1 0 0 0 17 0 0 0 0 0 0 0 0 0 0 0 0 0 0 0
0 0 0 0 0 0 0 0 0 0 0 0 0 0 0 82 192 170 64 41 75 64 74 127 28 3 36 34 19 10 7 3 3 0 0 0 0 0 0 0 0 0 0

GFSSE_con_mlcape_081.txt.gz
CAPE
662 1409 1443 1505 1415 1067 1011 1110 968 805 597 382 235 174 225 144 62 0 1 1 6 5 3 3 1 0 0 0 0 0 0 0 0 0 1 2 3 19 28 12 4 0 0
963 1500 1541 1594 1509 1172 1126 1127 925 852 682 643 523 265 173 170 87 0 1 2 2 0 0 0 0 0 0 0 0 0 0 0 0 0 0 0 0 0 0 0 0 0 0
1224 1485 1563 1552 1460 1350 1289 1069 910 845 755 679 578 452 331 242 227 11 19 0 0 0 0 0 0 0 0 0 0 0 0 0 0 0 0 0 0 0 0 0 0 0 0
1263 1486 1588 1493 1416 1355 1255 1081 957 859 751 709 608 380 140 43 88 149 78 6 0 0 0 0 0 0 0 0 0 0 0 0 0 0 0 0 0 4 30 47 33 4 1
1188 1439 1534 1482 1424 1286 1172 1113 948 798 620 446 225 116 67 43 0 0 42 30 0 0 0 0 0 0 0 0 0 0 0 0 0 0 1 19 47 63 26 109 106 123 182
1234 1341 1447 1458 1427 1287 1084 949 810 721 534 361 178 350 121 0 0 0 0 89 0 0 0 0 0 0 0 0 0 0 0 0 0 0 1 10 0 7 1 2 7 19 146
1201 1240 1306 1454 1374 1207 1023 926 849 758 464 154 203 32 0 0 0 0 0 70 0 0 0 0 0 0 0 0 0 0 0 0 0 0 0 0 0 1 5 4 2 1 3
1152 1257 1388 1432 1269 1188 1127 940 831 372 48 0 0 0 0 0 0 0 0 71 41 0 0 0 0 0 0 0 0 0 0 0 0 0 0 0 0 2 1 1 2 2 1
1223 1253 1409 1349 1238 1124 956 774 534 60 0 0 0 0 4 0 0 0 0 85 87 55 17 0 0 0 0 0 0 0 0 0 0 0 0 0 0 1 1 2 2 2 2
1130 1236 1219 1211 1133 1006 814 557 198 21 0 0 0 0 0 0 0 0 7 88 110 67 50 27 0 0 0 0 0 0 0 0 0 0 0 0 0 1 1 0 1 1 1
1035 1111 1164 1055 1050 870 700 391 89 17 6 0 0 0 0 0 0 0 10 121 91 64 32 20 24 0 0 0 0 0 0 0 0 0 0 0 0 0 0 0 0 0 0
825 916 1118 1026 891 811 720 299 62 28 10 3 1 0 0 0 0 20 43 71 105 85 49 24 14 0 0 0 0 0 0 0 0 0 0 39 27 0 0 0 0 0 0
812 807 1019 955 847 721 683 260 72 32 13 9 0 0 0 0 0 12 28 47 49 41 35 28 24 7 0 0 0 0 0 0 0 0 0 48 30 0 0 0 0 0 0
740 630 792 811 711 612 437 160 74 49 29 15 6 0 0 0 0 0 4 14 24 23 11 8 9 6 0 0 0 0 0 0 0 0 0 42 32 4 0 0 0 0 0
704 563 669 732 660 554 324 158 86 66 50 30 11 0 2 0 0 0 0 0 0 8 0 0 3 4 0 0 0 0 0 0 0 0 0 20 28 17 0 0 0 0 0
728 606 541 545 581 499 327 189 121 75 60 39 22 5 3 0 0 0 0 0 0 0 0 0 0 0 0 0 0 0 0 0 0 0 0 0 18 27 0 0 0 0 0
878 819 686 526 368 507 337 215 137 107 72 52 42 21 7 0 0 0 0 0 0 0 0 0 0 0 0 0 0 0 0 0 0 0 0 0 0 12 0 0 0 0 1
921 942 760 663 507 372 412 223 134 100 70 56 52 47 35 8 0 0 0 0 0 0 0 0 0 0 0 0 0 0 0 0 0 0 0 0 0 0 0 0 0 0 0
732 723 806 668 606 322 282 260 213 135 61 39 27 66 68 38 0 0 0 0 0 0 0 0 0 0 0 0 0 0 0 0 0 0 0 0 0 0 0 0 0 0 0
501 608 572 485 560 484 178 173 240 216 29 0 24 56 49 28 1 0 0 0 0 0 0 0 0 0 0 0 0 0 0 0 0 0 0 0 0 0 0 0 0 0 0
246 396 540 619 556 428 420 279 196 251 295 94 0 14 0 0 0 0 0 0 0 0 0 0 0 0 0 0 0 0 0 0 0 0 0 0 0 0 0 0 0 0 0
0 77 295 524 582 495 383 343 359 325 333 408 221 11 0 0 0 0 0 0 0 0 0 0 0 0 0 0 0 0 0 0 0 0 0 0 0 0 0 0 0 0 0
0 0 0 128 259 455 396 371 289 229 177 312 405 397 239 39 11 0 0 0 0 0 0 0 0 0 0 0 0 0 0 0 0 0 0 0 0 0 0 0 0 0 0
0 0 0 0 0 0 14 362 505 483 384 305 247 254 298 231 232 119 20 0 0 0 0 0 0 0 0 0 0 0 0 0 0 1 0 0 0 0 0 0 0 0 0
0 0 0 0 0 0 0 0 6 113 231 280 246 252 182 118 116 196 235 172 86 3 0 0 1 0 1 11 14 2 0 0 0 0 4 0 0 0 0 0 0 0 0
0 0 0 0 0 0 0 0 0 0 0 0 0 23 26 14 19 23 0 54 69 50 38 0 0 0 10 9 2 0 0 0 0 0 0 0 0 0 0 0 0 0 0

GFSSE_con_mlcape_084.txt.gz
CAPE
407 1241 1474 1461 1001 1038 980 988 803 582 489 482 393 274 124 30 0 0 2 2 2 3 2 1 1 0 0 0 0 0 0 2 3 2 2 0 23 29 19 0 0 0 0
781 1395 1569 1476 1205 1110 1146 1069 872 681 502 390 336 269 176 38 0 0 1 1 1 1 0 0 0 0 0 0 0 0 0 0 0 0 0 0 0 0 0 0 0 0 0
1185 1425 1531 1600 1272 1179 1171 965 874 715 658 556 403 297 227 132 0 4 0 0 0 0 0 0 0 0 0 0 0 0 0 0 0 0 0 0 0 0 0 0 0 0 0
1350 1482 1580 1607 1300 1320 1222 934 899 836 711 646 587 446 322 343 39 62 0 0 0 0 0 0 0 0 0 0 0 0 0 0 0 0 0 0 0 66 46 29 29 27 0
1306 1481 1580 1564 1422 1382 1258 979 937 876 805 687 481 213 81 76 119 206 7 0 0 0 0 0 0 0 0 0 0 0 0 0 0 2 17 43 44 61 136 139 112 183 18
1261 1419 1535 1471 1487 1380 1206 1056 1002 881 678 419 228 146 150 1 1 3 150 0 0 0 0 0 0 0 0 0 0 29 0 0 0 0 5 4 0 2 1 3 1 116 137
1174 1266 1413 1413 1364 1310 1151 957 932 726 471 319 285 263 1 0 0 0 159 0 0 0 0 0 0 0 0 0 0 0 0 0 0 0 0 0 0 1 3 2 0 2 4
1064 1173 1302 1346 1363 1291 1029 973 836 666 418 523 238 45 1 0 0 0 90 54 0 0 0 0 0 0 0 0 0 0 0 0 0 0 0 0 0 2 2 1 2 2 1
1129 1069 1218 1280 1319 1162 1060 979 781 262 41 20 6 2 0 0 0 0 70 117 53 22 0 0 0 0 0 0 0 0 0 0 0 0 0 0 0 1 1 1 1 1 1
1130 1186 1212 1237 1171 1110 954 867 330 46 13 3 0 0 0 20 3 56 58 149 105 82 35 1 0 0 0 0 0 0 0 0 0 0 0 0 0 0 1 0 0 0 0
1019 1100 1188 1093 1056 959 758 624 112 24 7 0 0 0 0 0 0 8 28 125 112 86 56 28 14 0 0 0 0 0 0 0 0 0 0 8 8 0 0 0 0 0 0
841 947 1103 1049 921 832 718 443 64 26 10 0 0 0 0 0 0 0 6 99 91 58 34 24 18 7 0 0 0 0 0 0 0 0 0 48 44 19 0 0 0 0 0
716 703 875 1016 930 757 618 331 67 24 10 4 0 0 0 0 6 25 52 55 67 59 43 36 29 10 0 0 0 0 0 0 0 0 0 39 77 53 0 0 0 0 0
949 741 810 976 911 731 562 281 89 42 15 9 5 0 0 0 3 16 22 30 31 28 25 18 10 7 0 0 0 0 0 0 0 0 0 18 58 56 20 0 0 0 0
901 675 838 845 834 667 508 287 100 63 32 14 7 2 0 0 0 1 7 9 10 12 6 0 0 0 0 0 0 0 0 0 0 0 0 0 36 48 42 0 0 0 0
656 748 818 957 796 603 496 300 124 78 61 31 13 4 0 0 0 0 0 0 0 0 0 0 0 0 0 0 0 0 0 0 0 0 0 0 15 40 54 18 0 0 0
616 668 620 596 694 601 485 328 140 97 65 54 25 0 0 0 0 0 0 0 0 0 0 0 0 0 0 0 0 0 0 0 0 0 0 0 0 15 37 38 0 0 0
557 722 649 738 680 612 540 339 207 145 105 75 40 17 3 0 0 0 0 0 0 0 0 0 0 0 0 0 0 0 0 0 0 0 0 0 0 0 0 12 0 0 0
500 574 723 654 542 455 471 415 266 175 139 121 56 49 37 20 0 0 0 0 0 0 0 0 0 0 0 0 0 0 0 0 0 0 0 0 0 0 0 0 0 0 0
516 686 798 699 717 491 345 320 277 190 125 87 86 55 61 42 14 0 0 0 0 0 0 0 0 0 0 0 0 0 0 0 0 0 0 0 0 0 0 0 0 0 0
390 506 668 853 767 641 403 319 324 467 328 174 92 50 26 35 35 19 0 0 0 0 0 0 0 0 0 0 0 0 0 0 0 0 0 0 0 0 0 0 0 0 0
207 373 516 562 558 549 545 372 245 279 328 315 145 30 0 2 18 0 0 0 0 0 0 0 0 0 0 0 0 0 0 0 0 0 0 0 0 0 0 0 0 0 0
0 18 159 400 529 521 427 360 280 219 182 241 296 313 123 7 0 0 0 0 0 0 0 0 0 0 0 0 0 0 3 0 0 0 0 0 0 0 0 0 0 0 0
0 0 0 0 24 82 360 440 406 431 381 356 290 267 279 187 90 6 0 0 0 0 0 0 0 0 0 0 0 0 0 1 25 13 0 0 0 0 0 0 0 0 0
0 0 0 0 0 0 0 0 262 340 380 308 214 223 139 110 131 194 130 27 0 0 0 0 0 0 0 0 0 0 0 0 0 0 1 0 0 0 0 0 0 0 0
0 0 0 0 0 0 0 0 0 0 0 0 25 38 78 45 29 17 28 64 61 19 8 9 0 0 0 0 0 2 7 7 0 0 1 0 0 0 0 0 0 0 0

GFSSE_con_mlcape_087.txt.gz
CAPE
544 1262 1228 1158 1165 1083 927 843 805 717 558 393 196 121 26 2 1 1 0 0 0 0 0 4 2 0 0 0 0 1 2 2 1 0 0 6 17 6 0 0 0 0 0
789 1415 1451 1118 1217 1153 1116 978 752 619 533 408 250 174 31 0 0 3 3 1 1 1 0 0 0 1 0 0 0 0 0 0 0 0 0 0 0 0 0 0 0 0 0
1057 1513 1624 1176 1201 1191 1155 953 694 556 511 434 360 200 82 20 2 1 1 2 0 0 0 0 1 1 0 0 0 0 0 0 0 0 0 0 0 1 0 0 0 0 0
1257 1554 1657 1256 1125 1164 1089 922 745 684 552 445 377 329 267 74 33 0 0 1 0 0 0 0 0 0 0 0 0 0 0 0 0 0 0 1 79 45 112 155 132 1 1
1456 1594 1686 1323 1109 1279 1002 881 871 709 675 628 506 403 436 195 191 0 0 0 0 0 0 0 2 2 0 0 0 0 0 0 6 15 40 12 17 64 52 9 183 58 79
1481 1591 1801 1421 1425 1283 1095 890 913 856 785 597 297 136 124 105 272 115 0 0 0 0 0 0 1 0 0 4 26 0 0 0 5 6 3 0 2 3 4 0 9 162 173
1387 1606 1790 1571 1500 1365 1178 921 996 898 589 406 246 255 54 0 23 335 0 0 0 0 0 0 0 0 0 0 1 0 0 0 0 0 0 0 2 2 1 0 0 0 0
1316 1581 1666 1534 1499 1346 1151 1081 922 486 477 234 236 15 4 0 0 118 44 0 0 0 0 0 0 0 0 0 0 0 0 0 0 0 0 0 0 1 1 1 1 1 0
1349 1392 1563 1493 1355 1272 1172 1057 732 559 462 183 17 1 0 0 0 39 193 37 5 0 0 0 0 0 0 0 0 0 0 0 0 0 0 0 0 1 1 0 0 1 2
1275 1331 1295 1468 1483 1338 1174 932 502 167 40 7 0 0 0 0 0 20 134 102 85 62 38 0 0 0 0 0 0 0 0 0 0 0 0 0 0 0 0 0 0 0 0
1148 1301 1254 1324 1328 1180 1115 747 260 45 19 9 0 0 0 0 1 22 66 171 113 78 41 30 0 0 0 0 0 0 0 0 0 0 0 0 3 0 0 0 0 0 0
859 763 956 1165 1148 1114 941 564 129 37 13 0 0 0 0 4 0 18 22 124 97 69 38 24 14 0 0 0 0 0 0 0 0 0 0 10 22 1 0 0 0 0 0
705 786 830 1062 1159 1062 861 422 99 41 13 5 0 0 0 0 9 15 31 105 92 49 43 25 17 5 0 0 0 0 0 0 0 0 0 9 74 41 0 0 0 0 0
564 742 913 874 1030 1019 715 403 111 41 21 9 4 0 0 0 14 31 64 66 72 63 44 26 16 6 0 0 0 0 0 0 0 0 0 2 38 71 23 0 0 0 0
659 582 817 808 983 925 645 423 130 50 27 18 8 3 0 0 0 13 24 26 35 30 22 11 4 0 0 0 0 0 0 0 0 0 0 0 4 36 51 13 0 0 0
716 731 729 857 803 870 646 404 200 65 39 27 13 10 0 0 0 0 3 6 7 4 7 2 0 0 0 0 0 0 0 0 0 0 0 0 0 13 33 41 11 0 0
482 603 701 741 682 902 702 512 300 123 59 41 26 10 0 0 0 0 0 0 0 0 0 0 0 0 0 0 0 0 0 0 0 0 0 0 0 0 14 50 45 6 1
407 455 568 584 793 864 721 501 369 216 135 82 49 24 8 0 0 0 0 0 0 0 0 0 0 0 0 0 0 0 0 0 0 0 0 0 0 0 0 0 32 14 12
344 388 443 638 524 636 684 527 413 251 198 170 99 75 48 19 0 0 0 0 0 0 0 0 0 0 0 0 0 0 0 0 0 0 0 0 0 0 0 0 0 5 4
282 338 489 631 601 451 413 442 433 289 233 180 181 149 112 76 27 0 0 0 0 0 0 0 0 0 0 0 0 0 0 0 0 0 0 0 0 0 0 0 0 0 0
283 304 365 396 448 332 314 391 406 526 425 254 151 166 117 100 61 33 28 16 0 0 0 0 0 0 0 0 0 0 0 0 0 0 0 0 0 0 0 0 0 0 0
90 196 173 428 569 461 425 323 332 376 363 449 288 158 107 87 59 42 35 19 0 0 0 0 0 0 0 0 0 0 0 0 0 0 0 0 0 0 0 0 0 0 0
0 12 236 405 468 580 539 383 272 212 191 288 373 297 118 27 8 0 12 5 0 0 0 0 0 0 0 0 0 0 1 1 0 0 0 0 0 0 0 0 0 0 0
0 0 0 89 408 464 425 509 585 580 536 423 371 300 279 170 52 0 0 0 0 0 0 0 0 0 0 0 0 0 0 0 7 10 0 0 0 0 0 0 0 0 0
0 0 0 0 2 20 125 439 534 513 431 306 257 270 209 147 140 132 35 0 0 0 0 0 0 0 0 0 0 0 0 0 0 0 2 2 0 0 0 0 0 0 0
0 0 0 0 0 0 0 0 79 271 255 213 183 200 199 108 82 67 76 90 56 0 0 0 0 0 0 0 0 0 0 0 1 1 0 0 3 0 0 0 0 0 0

GFSSE_con_mlcape_090.txt.gz
CAPE
1096 1064 1111 1152 1082 986 856 802 753 628 516 369 196 48 13 3 1 0 0 9 23 22 1 3 4 3 1 1 1 1 2 2 0 0 0 2 0 0 0 0 0 0 0
1155 1091 1181 1136 1098 1041 1032 935 756 615 379 254 179 46 23 3 6 4 0 0 0 0 0 3 0 0 0 0 0 0 0 0 0 0 0 0 0 0 0 0 0 0 0
1148 1179 875 1175 1124 1073 973 871 760 633 443 325 227 72 48 2 3 3 1 0 0 0 1 5 2 0 0 0 0 0 0 0 0 0 0 23 7 27 44 1 0 0 0
1154 1393 835 1134 1129 1154 974 876 763 665 515 434 312 149 109 5 1 2 0 0 0 0 2 2 0 0 0 0 0 0 0 0 0 3 39 24 25 84 58 161 15 0 33
1276 1427 1195 1112 1155 1138 966 864 688 629 595 545 436 331 216 74 1 4 0 0 0 0 1 4 4 1 0 0 0 0 0 7 7 12 17 19 16 1 1 157 133 150 144
1248 1487 1489 1095 1272 1232 886 720 907 802 807 609 516 485 374 429 57 2 0 0 0 0 2 3 1 3 31 2 1 0 0 2 9 20 17 5 0 0 0 0 1 3 121
1124 1485 1540 1203 1401 1229 1204 983 898 871 732 399 255 225 192 274 372 0 0 0 0 0 0 0 0 0 14 2 0 0 0 0 14 5 6 1 0 1 0 0 0 0 0
1171 1576 1685 1541 1350 1331 1246 966 892 660 310 114 278 108 20 54 353 19 0 0 0 0 0 0 0 0 14 11 0 0 0 0 0 0 0 0 0 0 0 0 0 0 0
1390 1576 1609 1503 1431 1303 1152 1002 865 582 436 326 35 1 0 0 47 316 16 0 0 0 0 0 0 0 0 32 0 0 0 0 0 0 1 1 0 1 0 0 0 0 0
1192 1298 1333 1465 1503 1313 1152 1008 627 705 341 111 35 0 0 0 0 184 72 51 51 1 0 0 0 0 0 0 0 0 0 0 0 2 4 0 0 0 0 0 0 0 0
1225 1179 1114 1423 1368 1228 1020 918 490 265 105 48 16 0 0 0 0 8 279 92 75 58 38 2 0 0 0 0 0 0 0 0 0 5 8 0 2 0 0 0 0 0 0
1122 1172 1306 1424 1380 1207 970 840 527 228 99 67 20 0 0 0 0 0 108 102 101 81 58 52 9 0 0 0 0 0 0 0 0 9 28 0 22 0 0 0 0 0 0
1129 986 1377 1273 1316 1149 966 755 499 258 120 38 0 0 0 0 0 0 43 158 111 60 93 36 23 24 2 0 0 0 0 0 0 0 7 0 55 33 0 0 0 0 0
876 1026 929 1173 1318 1121 947 757 492 299 131 43 11 0 0 0 6 0 23 72 102 84 95 94 62 45 15 0 0 0 0 0 0 0 2 0 1 78 40 0 0 0 0
832 854 1017 960 1259 1166 960 741 553 317 152 83 39 4 0 0 7 31 49 55 76 78 62 47 23 18 16 3 0 0 0 0 0 0 0 0 0 3 60 28 0 0 0
812 766 1085 1081 1160 1172 1023 847 593 354 236 133 71 43 10 0 0 6 24 31 30 21 21 17 1 0 0 0 0 0 0 0 0 0 0 0 0 0 3 47 23 2 0
973 1037 739 1079 972 1117 1048 901 776 552 315 188 133 85 48 24 12 4 0 0 0 0 0 0 0 0 0 0 0 0 0 0 0 0 0 0 0 0 0 5 66 27 5
993 994 1079 1061 1201 1072 1048 983 868 754 401 299 219 174 81 53 40 18 1 0 0 0 0 0 0 0 0 0 0 0 0 0 0 0 0 0 0 0 0 0 0 29 22
796 801 912 1064 1012 1029 1213 941 921 838 631 488 400 322 208 105 73 61 34 3 0 0 0 0 0 0 0 0 0 0 0 0 0 0 0 0 0 0 0 0 0 0 4
836 905 843 693 1164 1053 1155 811 681 934 737 680 619 503 395 241 133 98 89 66 26 0 0 0 0 0 0 0 0 0 0 0 0 0 9 9 0 0 0 0 0 0 0
827 854 723 517 687 780 587 542 619 686 760 673 593 574 546 488 318 225 148 114 87 43 27 0 0 0 0 0 0 0 0 0 0 17 12 0 0 0 0 0 0 0 0
581 826 734 492 429 602 743 580 465 524 559 788 625 501 545 488 450 322 223 184 105 51 34 11 0 0 0 0 0 0 1 28 1 9 0 0 0 0 0 0 0 0 0
0 223 417 374 52 251 433 299 300 275 220 300 498 502 389 286 251 232 205 170 128 68 55 29 10 0 8 0 0 1 0 2 0 0 0 0 0 0 0 0 0 0 0
0 0 0 265 370 173 93 238 290 358 319 330 457 690 695 280 185 126 101 78 91 48 15 57 28 13 0 10 1 0 0 2 9 15 1 0 0 0 0 0 0 0 0
0 0 0 0 124 353 420 159 563 478 618 714 428 392 494 497 448 234 111 56 4 0 0 0 1 0 0 0 61 3 1 0 0 1 9 5 0 0 0 0 0 0 0
0 0 0 0 0 0 28 243 550 547 700 435 358 374 548 532 414 324 309 256 182 105 42 9 1 0 1 1 2 40 18 12 2 0 1 3 13 0 0 0 0 0 0

GFSSE_con_mlcape_093.txt.gz
CAPE
1187 1041 1223 1163 1178 1131 968 856 767 629 358 201 60 8 1 5 27 80 162 191 131 73 10 4 3 3 4 4 2 7 1 0 0 0 0 0 0 0 0 0 0 0 3
1048 840 1208 1149 1072 981 938 823 653 537 357 175 32 9 2 4 4 3 1 1 0 2 3 0 0 0 0 0 0 0 0 0 0 0 0 0 0 1 0 0 0 0 0
944 760 1201 1105 1045 939 885 726 579 439 290 176 54 10 6 6 4 2 0 0 0 3 2 0 0 0 0 0 0 0 0 0 0 5 17 39 22 98 28 0 1 5 0
877 796 1041 1128 956 853 812 695 567 427 332 201 131 62 1 3 4 0 0 0 2 3 3 1 2 4 2 0 0 0 0 0 0 25 9 14 4 25 97 85 114 147 125
976 739 1061 1098 1132 947 781 725 543 475 368 323 197 181 15 12 6 0 0 0 2 2 4 5 2 1 1 0 0 4 2 8 11 7 2 0 0 1 14 15 25 126 124
1184 768 976 1062 1151 1141 863 743 666 580 648 584 336 318 110 54 13 0 0 0 1 5 6 5 16 33 5 1 36 0 0 10 16 4 0 0 0 0 0 0 0 0 8
1343 1384 988 1119 1253 1113 812 914 811 803 633 473 434 355 454 180 13 0 0 0 3 5 3 3 6 33 24 26 18 0 0 0 3 1 0 0 0 0 0 0 0 0 1
1388 1660 1142 1222 1198 1141 1123 992 923 809 323 119 175 178 185 453 25 0 0 0 0 3 3 1 0 31 0 0 0 0 0 0 0 0 0 0 0 0 0 0 0 0 0
1400 1504 1257 1330 1231 1274 1162 916 913 379 185 192 21 0 4 155 162 0 0 0 0 0 0 0 0 0 0 0 0 0 0 0 0 0 2 0 0 0 0 0 0 0 0
1363 1615 1177 1230 1207 1250 1147 907 614 516 194 76 0 0 0 0 300 45 1 13 0 0 0 0 0 0 0 0 0 0 0 0 1 3 0 0 0 0 0 0 0 0 0
1160 1576 1134 1075 1247 1272 1027 884 582 433 173 48 15 0 0 0 19 140 106 50 25 0 0 0 0 0 0 0 0 0 0 1 2 1 8 0 0 0 0 0 0 0 0
1034 1103 1055 1499 1251 1187 1050 723 757 457 197 102 41 0 0 0 0 277 143 67 55 30 15 2 0 0 0 0 0 0 2 0 0 0 11 0 0 0 0 0 0 0 0
1090 1209 1129 1406 1336 1081 976 784 650 321 208 98 10 0 0 0 0 70 173 85 84 53 64 29 5 9 0 0 0 0 0 0 0 0 0 0 14 16 0 0 0 0 0
1101 1273 1272 1433 1383 1035 1041 752 585 355 174 64 1 0 0 0 0 0 53 153 87 87 85 81 63 39 20 0 0 0 0 0 0 0 0 0 0 29 30 0 0 0 0
1245 1108 1318 1216 1438 1095 766 693 526 367 211 114 18 0 0 0 2 0 18 64 84 86 102 80 39 37 27 12 0 0 0 0 0 0 0 0 0 0 12 21 0 0 0
1123 1108 1217 1177 1163 1007 837 719 541 340 285 262 80 17 0 0 1 23 46 54 54 53 43 39 18 0 0 0 0 0 0 0 0 0 0 0 0 0 0 13 36 2 0
1124 1107 951 1115 1163 1132 863 766 623 433 371 304 176 106 45 13 4 10 13 22 22 14 0 5 0 0 0 0 0 0 0 0 0 0 0 0 0 0 0 0 59 56 12
1101 1078 1056 1099 1141 1037 994 840 754 608 486 434 347 259 206 106 61 58 46 1 0 0 0 0 0 0 0 0 0 0 0 0 0 0 0 0 0 0 0 0 0 77 72
1034 1089 1251 1094 1092 1117 954 880 833 720 608 524 416 396 362 191 121 109 80 42 0 0 0 0 0 0 0 0 0 0 0 0 0 0 0 0 0 0 0 0 0 0 0
987 1004 1114 1321 1322 1219 1207 860 774 625 751 650 474 452 378 315 249 165 131 114 56 16 0 6 11 0 0 0 0 0 0 0 0 2 14 20 4 0 0 0 0 0 0
891 930 1116 1156 1252 1154 1010 920 747 507 635 717 693 769 716 487 420 321 255 230 185 99 68 62 35 25 20 0 0 0 0 0 0 30 29 29 17 0 0 0 0 3 5
894 1058 955 877 998 1248 1154 1019 854 786 890 919 789 809 845 781 717 536 457 422 355 305 212 153 81 33 16 26 19 31 26 76 24 1 18 0 0 0 0 0 0 0 0
873 965 882 565 693 942 951 750 647 596 513 628 763 743 573 447 637 720 594 507 474 381 280 235 132 44 53 30 10 23 19 0 0 0 0 0 0 0 0 0 0 0 0
0 279 828 781 641 599 815 604 337 178 105 105 91 147 583 564 337 296 308 396 383 381 331 274 225 147 83 108 26 3 10 23 41 3 2 0 0 0 0 0 0 0 0
0 0 0 144 410 534 389 278 204 57 125 103 45 257 451 596 350 207 189 163 178 228 248 197 217 212 156 132 138 78 1 1 0 4 7 11 0 0 0 0 0 0 0
0 0 0 0 12 307 611 144 2 10 12 111 98 115 111 193 632 490 529 258 200 168 168 151 159 193 170 157 178 179 28 1 0 1 1 0 3 1 0 0 0 0 0

GFSSE_con_mlcape_096.txt.gz
CAPE
1286 1280 1292 1335 1222 1153 988 776 606 248 61 22 3 2 25 146 245 296 278 174 84 53 2 4 3 2 1 3 4 2 5 0 0 0 0 0 8 0 0 0 0 0 8
1285 1342 1307 1291 1235 1100 911 679 427 243 80 26 2 6 7 18 30 42 52 27 3 2 0 0 0 0 0 0 0 0 0 0 0 3 23 2 20 1 0 0 0 0 1
1167 1319 1261 1181 1100 977 805 532 359 219 89 16 3 6 10 7 3 1 2 3 3 2 0 0 0 0 0 0 0 0 6 15 15 28 4 0 78 67 101 102 113 56 1
1194 1090 1173 1081 1044 934 824 518 347 204 86 65 0 4 6 3 2 3 2 5 5 4 4 5 2 0 0 0 0 6 14 17 24 8 0 0 0 119 79 105 113 98 2
976 996 1130 926 944 866 630 465 335 249 108 128 6 0 7 2 0 1 5 4 3 4 4 4 5 3 1 1 29 22 9 11 13 0 0 0 0 6 8 5 10 31 107
809 1244 938 972 827 776 693 590 586 501 333 242 71 45 47 1 0 1 4 3 3 6 7 15 14 5 1 10 0 0 0 0 0 0 0 0 0 0 1 2 3 3 3
908 1049 1039 991 984 795 597 540 574 619 552 359 365 129 101 3 0 0 0 3 5 5 8 40 6 27 30 0 0 0 0 0 0 0 0 0 0 0 0 0 0 2 4
1127 966 1115 1184 1013 782 702 656 696 649 490 365 265 471 200 3 0 0 0 2 5 4 2 4 3 0 0 0 0 0 0 0 0 0 0 0 0 0 0 0 0 0 0
1144 1030 1179 1193 1068 898 845 791 685 382 182 72 77 125 411 20 0 0 0 0 1 0 0 0 33 0 0 0 0 0 0 0 0 0 0 0 0 0 0 0 0 0 0
1422 1146 1130 1182 1071 991 895 732 432 101 78 1 0 0 133 88 0 0 0 0 0 0 0 0 0 0 0 0 0 0 0 0 0 0 0 0 0 0 0 0 0 0 0
1327 1033 1271 1092 1124 1175 867 657 315 161 40 0 0 0 0 153 30 0 5 0 0 0 0 0 0 0 0 0 0 0 0 0 0 0 0 0 0 0 0 0 0 0 0
1580 1224 1197 937 1103 1268 875 407 388 150 5 4 0 0 0 0 205 94 29 16 1 0 0 0 0 0 0 0 0 0 0 0 0 0 0 0 0 0 0 0 0 0 0
1318 1182 1282 1202 1201 1031 753 533 555 203 131 67 7 0 0 0 29 171 39 49 39 28 29 5 0 0 0 0 0 0 0 0 0 0 0 0 0 0 0 0 0 0 0
1165 1190 1296 1499 1142 968 805 684 494 217 239 69 0 0 0 0 0 182 46 46 44 49 75 49 35 26 13 0 0 0 0 0 0 0 0 0 0 0 1 0 0 0 0
939 1073 1245 1483 1204 1025 767 749 435 289 154 29 0 0 0 0 0 0 108 60 48 56 64 55 69 34 28 6 0 0 0 0 0 0 0 0 0 0 0 9 0 0 0
1262 1050 1245 1417 1299 979 759 687 361 289 184 60 7 0 0 0 0 0 10 98 72 88 81 71 28 13 4 1 0 0 0 0 0 0 0 0 0 0 0 5 40 0 0
1234 1252 1204 1252 1223 1023 752 599 540 330 228 201 68 19 0 0 0 19 32 38 29 31 18 15 1 0 0 0 0 0 0 0 0 0 0 0 0 0 0 0 35 92 7
1136 1175 1225 1233 1223 1198 860 729 608 384 355 253 204 105 40 16 7 12 12 17 19 12 0 0 0 0 0 0 0 0 0 0 0 0 0 0 0 0 0 0 0 30 77
1233 1103 1061 1011 1120 1133 1143 902 669 535 390 391 354 237 182 121 58 50 47 5 0 2 0 0 0 0 0 0 0 0 0 0 0 0 0 0 0 0 0 0 0 0 0
1237 1214 1173 1098 1214 1249 969 986 868 815 594 510 445 352 321 215 130 112 82 44 0 0 0 0 0 0 0 0 0 0 0 0 0 0 0 0 0 0 0 0 0 0 1
1109 1216 1343 1253 1138 1143 1189 843 702 605 724 653 460 395 321 341 227 178 134 124 73 0 3 0 0 0 0 0 0 0 0 0 0 0 0 13 0 0 0 0 0 0 0
1056 1057 1186 1302 1333 1228 1043 1029 900 678 516 582 575 598 647 611 488 316 254 251 215 162 103 92 60 33 8 6 0 0 0 23 22 22 8 0 0 0 0 0 0 0 0
966 1110 1256 1198 1075 1190 1075 887 789 624 535 483 447 393 442 512 489 496 491 349 316 290 254 201 150 84 48 7 4 3 11 5 0 0 0 0 0 0 0 0 0 0 0
1002 1088 1109 994 1067 1168 937 727 430 387 304 267 314 339 145 183 238 257 285 306 253 220 271 192 173 112 58 63 44 41 3 26 54 11 0 0 0 0 0 0 0 0 0
277 695 878 754 883 1080 866 580 408 270 126 97 87 68 203 98 117 124 147 163 148 119 191 221 179 142 126 106 99 71 54 16 8 31 9 0 0 0 0 0 0 0 0
0 0 0 625 609 512 141 3 0 0 0 8 3 2 45 216 236 150 136 152 141 114 35 70 59 128 123 162 167 141 121 89 39 16 1 0 0 0 0 0 0 0 0

GFSSE_con_mlcape_099.txt.gz
CAPE
885 1388 1443 1405 1204 1062 728 547 161 24 12 3 8 284 393 422 415 345 246 127 20 0 2 3 0 2 6 8 3 0 0 0 20 13 0 0 0 0 0 0 0 9 115
1099 1359 1506 1257 1256 947 709 382 143 37 11 2 4 73 184 234 226 134 43 7 2 0 1 0 0 0 0 0 0 0 0 1 7 0 0 0 0 73 82 6 0 1 77
1138 1308 1276 1159 1036 820 495 297 121 58 2 6 7 6 8 21 17 15 4 2 0 0 0 0 0 0 0 0 14 20 20 16 0 0 0 10 57 99 126 72 0 0 1
1194 1240 1199 1084 888 595 437 270 113 82 7 5 8 7 3 3 3 5 5 4 3 2 1 0 0 0 1 17 20 15 12 0 0 0 0 0 12 38 104 159 110 129 89
1147 1222 1159 1039 833 646 364 229 101 150 7 0 0 0 0 2 5 6 4 4 4 5 5 3 5 3 16 15 13 4 0 0 0 0 0 0 0 2 2 4 3 10 30
1023 1136 1116 958 838 573 333 491 284 322 70 6 3 0 0 0 3 4 5 4 0 0 3 7 8 4 4 0 0 0 0 0 0 0 0 0 0 0 0 3 6 2 3
956 988 831 901 758 583 593 527 373 380 254 109 100 0 0 0 2 8 8 3 6 72 10 10 4 0 0 0 0 0 0 0 0 0 0 0 0 0 0 0 1 3 3
870 942 1008 941 834 632 488 489 474 401 363 247 236 10 0 0 2 6 3 0 0 8 6 4 1 0 0 0 0 0 0 0 0 0 0 0 0 0 0 0 0 0 0
848 845 1088 934 746 520 468 503 491 475 286 312 409 34 0 0 0 0 0 2 1 2 5 1 0 0 0 0 0 0 0 0 0 0 0 0 0 0 0 0 0 0 0
896 1051 1001 941 795 673 599 526 350 113 43 39 263 42 0 0 0 0 0 0 0 0 0 12 0 0 0 0 0 0 0 0 0 0 0 0 0 0 0 0 0 0 0
995 925 983 952 819 760 660 457 152 23 0 0 0 104 6 0 0 0 0 0 0 0 0 0 0 0 0 0 0 0 0 0 0 0 0 0 0 0 0 0 0 0 0
1061 971 957 980 881 805 689 218 126 4 0 0 0 0 39 5 0 0 0 0 0 0 0 0 0 0 0 0 0 0 0 0 0 0 0 0 0 0 0 0 0 0 0
1088 1057 969 995 1047 791 457 242 100 2 0 0 0 0 0 50 0 13 0 0 0 0 0 0 0 0 0 0 0 0 0 0 0 0 0 0 0 0 0 0 0 0 0
1156 1017 1055 1028 1133 735 390 336 185 69 13 2 0 0 0 0 114 38 11 12 23 22 18 9 1 0 0 0 0 0 0 0 0 0 0 0 0 0 0 0 0 0 0
1248 1174 1196 1127 1122 825 502 535 254 181 168 49 0 0 0 0 45 78 25 20 20 32 44 31 50 43 11 0 0 0 0 0 0 0 0 0 0 0 15 0 0 0 0
1234 1304 1414 1234 1105 927 634 414 221 253 156 6 0 0 0 0 1 40 46 44 38 41 49 41 40 6 0 0 0 0 0 0 0 0 0 0 0 0 0 25 29 0 0
1045 1103 1257 1338 1185 988 808 546 311 325 93 0 0 0 0 0 0 0 46 64 50 53 65 50 2 0 0 0 0 0 0 0 0 0 0 0 0 0 0 0 37 85 8
888 1022 1235 1186 1233 1086 889 592 440 405 165 89 31 0 0 0 0 0 8 36 7 0 0 0 0 0 0 0 0 0 0 0 0 0 0 0 0 0 0 0 0 40 55
1005 1036 1229 1328 1221 1130 927 714 516 528 325 211 127 68 12 0 0 0 3 0 3 0 0 0 0 0 0 0 0 0 0 0 0 0 0 0 0 0 0 0 0 12 18
1195 1038 1058 1088 1182 1212 1035 850 734 578 449 316 252 152 117 73 62 39 33 22 0 0 0 0 0 0 0 0 0 0 0 0 0 0 0 0 0 0 0 0 0 4 6
1211 1134 1176 1168 1098 1126 1150 1008 797 695 592 470 413 323 229 200 123 102 83 59 11 0 0 0 0 0 0 0 0 0 0 0 0 0 0 0 0 0 0 0 0 0 0
1327 1294 1045 1023 1071 1240 1105 1072 946 788 707 542 560 392 350 276 172 149 127 111 88 27 9 1 0 5 4 0 0 0 0 2 0 0 0 0 0 0 0 0 0 0 0
1072 1071 1179 1064 1108 1076 1195 806 720 532 487 564 578 523 358 280 294 180 135 163 201 124 112 75 71 59 61 2 0 0 5 0 0 0 0 0 0 0 0 0 0 0 0
896 1013 1175 1206 1017 1168 910 955 738 625 480 453 585 354 253 213 231 224 279 246 206 225 225 162 136 126 67 60 14 5 8 15 23 4 0 0 0 0 0 0 0 0 0
839 972 1089 1166 1228 1214 1097 790 622 442 304 285 177 89 40 18 57 29 45 147 139 105 103 85 79 96 81 72 27 13 29 23 21 19 7 0 0 0 0 0 0 0 0
488 525 824 842 1090 1101 881 600 425 213 106 89 74 55 21 72 76 83 121 83 69 29 6 17 17 15 48 33 86 51 42 78 108 56 9 0 1 0 0 0 0 0 0

GFSSE_con_mlcape_102.txt.gz
CAPE
650 1163 1367 1208 1087 709 435 154 42 9 18 401 585 658 588 569 484 284 185 53 5 3 3 3 10 36 10 10 2 23 3 13 3 0 0 4 2 0 0 0 64 100 138
1057 1399 1368 1166 1123 652 382 125 15 8 7 264 531 615 558 494 369 104 34 2 1 1 1 1 3 7 0 0 13 20 8 1 0 28 6 16 81 60 1 0 2 94 142
1171 1448 1278 1258 951 607 303 121 37 0 0 72 334 410 416 261 80 9 2 1 1 0 0 0 0 0 4 31 34 11 0 0 0 0 0 2 91 104 28 0 0 2 106
1232 1454 1336 1146 815 445 270 116 18 15 6 5 81 118 88 21 3 2 1 0 0 0 0 0 0 5 22 66 10 0 0 0 0 0 0 0 2 70 113 118 111 105 118
1101 1181 1131 943 636 442 235 176 74 8 10 8 5 4 3 5 3 3 3 3 1 2 1 1 12 17 50 3 0 0 0 0 0 0 0 0 0 7 4 3 8 29 35
1086 1065 988 822 597 419 226 319 130 84 0 2 3 3 4 6 4 4 4 3 2 3 4 3 38 8 4 0 0 0 0 0 0 0 0 0 0 0 3 3 7 4 3
1020 1055 982 710 463 471 384 404 155 90 43 2 0 2 5 4 4 2 0 0 20 8 11 8 0 0 0 0 0 0 0 0 0 0 0 0 0 0 0 1 3 4 3
1011 1034 750 830 553 643 512 466 297 133 199 10 0 0 3 6 5 3 22 93 44 50 21 9 0 0 0 0 0 0 0 0 0 0 0 0 0 0 0 0 0 1 2
904 758 891 761 710 609 560 434 422 263 330 46 0 0 3 6 6 3 1 29 43 2 2 23 0 0 0 0 0 0 0 0 0 0 0 0 0 0 0 0 0 0 1
779 840 892 762 649 519 537 458 419 381 344 148 0 0 0 0 2 2 0 1 2 0 0 0 0 0 0 0 0 0 0 0 0 0 0 0 0 0 0 0 0 0 0
858 967 899 736 499 482 490 416 313 85 192 153 0 0 0 0 0 0 0 0 0 0 0 0 0 0 0 0 0 0 0 0 0 0 0 0 0 0 0 0 0 0 0
793 915 893 635 529 622 556 288 84 3 6 93 9 0 0 0 0 0 0 0 0 0 0 0 0 0 0 0 0 0 0 0 0 0 0 0 0 0 0 0 0 0 0
1073 1021 943 661 693 637 348 189 7 0 0 0 6 0 0 0 0 0 0 0 0 0 0 0 0 0 0 0 0 0 0 0 0 0 0 0 0 0 0 0 0 0 0
1130 1078 1022 839 792 507 273 145 15 0 0 0 0 0 1 0 0 0 0 0 0 0 0 0 0 0 0 0 0 0 0 0 0 0 0 0 0 0 0 0 0 0 0
1081 996 1032 1001 805 455 280 184 90 6 3 0 0 0 0 30 36 3 0 0 0 0 0 0 0 0 0 0 0 0 0 0 0 0 0 0 0 0 0 0 0 0 0
1107 1008 1066 1062 843 508 402 284 188 110 106 32 0 0 0 5 73 48 19 15 10 3 6 4 8 15 0 0 0 0 0 0 0 0 0 0 0 0 0 49 4 0 0
1109 1106 1087 1084 920 642 512 392 245 235 210 128 0 0 0 0 10 63 38 27 28 25 27 27 12 0 0 0 0 0 0 0 0 0 0 0 0 0 0 0 60 85 13
989 989 1131 1122 1030 845 597 428 258 300 171 95 0 0 0 0 0 10 65 60 49 40 41 38 10 0 0 0 0 0 0 0 0 0 0 0 0 0 0 0 1 64 110
1028 979 1114 1161 1134 1004 755 543 378 425 211 22 0 0 0 0 0 0 0 34 76 48 34 5 0 0 0 0 0 0 0 0 0 0 0 0 0 0 0 0 0 5 25
961 1072 1148 1291 1232 1030 815 668 478 490 299 61 51 30 0 0 0 1 9 18 4 0 0 0 0 0 0 0 0 0 0 0 0 0 0 0 0 0 0 0 0 0 10
878 980 1006 1179 968 1080 945 649 658 607 496 300 149 149 127 71 8 6 4 14 0 0 0 0 0 1 0 0 0 0 0 0 0 0 0 0 0 0 0 0 0 0 0
1077 987 960 1029 1059 1107 1106 839 739 637 584 535 410 389 193 156 100 73 60 34 14 1 0 0 1 5 7 1 2 0 0 0 0 0 0 0 0 0 0 0 0 0 0
892 1156 1186 1018 1140 1174 1052 756 633 694 596 596 524 513 435 293 216 125 89 65 56 22 15 6 12 20 40 7 7 10 3 1 0 0 0 0 0 0 0 0 0 0 0
811 1026 1092 1098 1101 1176 1078 1064 831 881 828 674 687 533 429 419 374 282 197 148 152 132 62 23 39 65 33 51 14 16 10 21 17 11 0 0 0 0 0 0 0 0 0
652 784 1044 1105 1065 1033 1051 992 822 813 595 526 578 509 342 211 187 106 143 145 174 145 109 106 90 59 35 28 15 18 23 13 13 7 40 0 0 0 0 0 0 0 0
571 800 911 935 1060 1088 1027 712 725 603 360 398 247 224 154 77 64 34 66 19 25 26 35 18 20 14 15 2 2 0 6 20 8 25 36 11 4 0 0 0 0 0 0

GFSSE_con_mlcape_105.txt.gz
CAPE
530 993 1138 1093 841 453 133 78 94 194 720 684 646 699 707 470 515 347 169 18 4 5 14 11 23 17 29 21 8 8 5 7 19 14 9 0 0 7 85 120 105 131 144
776 1237 1127 1063 735 350 149 42 81 291 651 740 720 715 734 645 411 206 33 5 2 3 6 25 8 28 25 30 8 8 17 57 6 2 0 48 0 0 0 6 95 156 119
988 1295 1130 1069 697 341 144 68 41 250 533 665 714 610 543 373 208 3 3 1 2 2 7 11 19 31 88 11 4 1 1 0 0 0 2 24 36 98 108 5 101 127 107
1178 1232 1142 1045 650 340 174 74 49 158 538 513 552 477 350 109 3 2 1 0 1 0 0 7 65 109 28 0 0 0 0 0 0 0 0 0 3 14 37 63 99 114 53
1191 1156 1172 916 525 347 191 78 40 52 274 359 342 283 131 2 3 1 0 1 0 0 3 69 97 8 0 0 0 0 0 0 0 0 0 0 0 6 4 4 2 7 10
1140 1125 1028 693 470 255 103 59 19 10 25 79 85 79 5 3 4 2 1 2 2 1 76 95 53 0 0 0 0 0 0 0 0 0 0 0 0 3 2 2 2 2 1
1062 1093 838 616 451 269 209 125 62 5 7 3 3 3 6 5 5 5 3 0 0 52 91 110 6 0 0 0 0 0 0 0 0 0 0 0 0 0 0 0 0 2 2
965 829 747 578 485 429 241 137 36 2 2 4 6 5 5 4 3 3 1 31 56 98 115 87 3 0 0 0 0 0 0 0 0 0 0 0 0 0 0 0 0 1 1
910 758 658 549 519 498 358 109 176 25 0 1 4 4 4 2 4 96 90 60 93 126 118 68 2 0 0 0 0 0 0 0 0 0 0 0 0 0 0 0 0 0 1
927 678 661 637 566 506 471 191 304 136 0 0 0 2 3 0 0 23 28 34 53 77 62 13 0 0 0 0 0 0 0 0 0 0 0 0 0 0 0 0 0 0 1
877 614 741 615 570 461 456 367 285 256 4 0 0 0 0 0 0 0 0 8 3 14 8 0 0 0 0 0 0 0 0 0 0 0 0 0 0 0 0 0 0 0 0
765 716 792 638 448 474 494 435 305 312 20 0 0 0 0 0 0 0 0 0 0 0 0 0 0 0 0 0 0 0 0 0 0 0 0 0 0 0 0 0 0 0 0
693 994 911 663 477 440 334 203 87 125 43 0 0 0 0 0 0 0 0 0 0 0 0 0 0 0 0 0 0 0 0 0 0 0 0 0 0 0 0 0 0 0 0
864 1096 1047 650 553 426 288 151 1 8 25 4 0 0 0 0 0 0 0 0 0 0 0 0 0 0 0 0 0 0 0 0 0 0 0 0 0 0 0 0 0 0 0
981 1128 956 654 673 396 234 85 0 0 0 2 2 0 0 0 0 0 0 0 0 0 0 0 0 0 0 0 0 0 0 0 0 0 0 0 0 8 0 0 0 0 0
803 1088 1083 745 694 418 237 104 0 0 0 0 0 0 0 0 3 0 0 0 0 0 0 0 0 0 0 0 0 0 0 0 0 0 0 0 0 0 53 54 1 0 0
972 1138 1085 895 697 418 254 140 70 14 38 3 0 0 0 44 60 33 10 7 10 6 6 12 13 9 3 0 0 0 0 0 0 0 0 0 0 0 0 39 111 74 62
930 1022 1105 1018 777 517 354 205 168 128 114 51 0 0 0 0 59 81 59 44 32 25 23 25 26 15 0 0 0 0 0 0 0 0 0 0 0 0 0 0 0 42 86
997 797 950 1008 869 660 482 310 218 199 168 98 20 0 0 0 0 33 82 80 72 62 45 47 34 3 0 0 0 0 0 0 0 0 0 0 0 0 0 0 0 0 0
855 715 950 1006 909 692 484 364 238 223 240 76 26 0 0 0 0 18 23 38 39 59 50 22 6 0 0 0 0 0 0 0 0 0 0 0 0 0 0 0 0 0 0
480 646 899 757 929 755 534 474 303 371 319 127 16 0 0 0 0 0 0 2 17 31 5 0 0 0 0 0 0 0 0 0 0 0 0 0 0 0 0 0 1 2 0
523 539 694 776 724 582 568 623 457 491 409 204 27 10 49 0 0 0 0 0 0 0 0 0 0 0 1 1 21 9 3 1 0 0 0 0 0 0 0 0 0 0 0
512 592 797 794 822 930 737 531 466 425 384 383 313 253 236 155 75 32 20 46 19 0 0 0 0 0 4 21 21 51 27 32 19 0 0 0 0 0 0 0 0 0 0
510 637 743 774 923 863 681 677 508 532 511 285 565 431 441 381 259 187 125 102 100 78 37 17 4 0 11 18 15 13 5 10 34 16 0 0 0 0 0 0 0 0 0
501 738 784 827 759 836 738 695 625 637 543 464 426 638 532 441 360 339 276 181 137 156 188 171 98 3 39 39 23 21 12 7 11 27 3 0 0 0 0 0 0 0 0
418 575 740 733 805 766 911 884 757 756 559 597 594 569 430 289 182 142 75 134 146 173 164 127 68 55 26 10 10 12 8 0 3 16 13 0 2 0 0 0 0 0 0

GFSSE_con_mlcape_108.txt.gz
CAPE
452 906 1042 1038 609 436 347 242 301 308 225 627 747 698 615 522 435 266 20 6 5 9 26 22 12 21 9 4 4 7 28 48 59 1 0 0 18 73 147 120 90 27 23
543 1086 1142 966 451 277 262 193 524 603 360 658 716 606 669 574 447 127 1 6 8 13 7 21 53 126 11 5 15 85 69 60 59 0 0 0 0 0 111 99 81 14 21
803 1176 1110 860 370 211 173 177 636 735 587 726 763 712 544 452 247 19 4 3 4 16 13 16 76 75 10 4 7 6 6 0 0 5 11 26 40 133 105 85 90 20 22
980 1152 1112 762 402 206 125 130 690 748 662 692 632 582 580 297 15 2 2 2 5 12 13 103 120 1 40 5 1 1 0 0 0 0 1 0 2 10 42 15 8 7 4
1054 1080 1052 740 414 220 99 100 595 683 675 555 494 397 167 10 3 1 0 0 3 7 94 125 64 0 0 0 0 0 0 0 0 0 0 0 0 2 2 0 0 0 1
1055 1021 1055 701 404 235 92 101 434 586 627 476 350 148 43 4 2 1 2 0 0 68 121 19 0 1 0 0 0 0 0 0 0 0 0 0 0 1 1 1 2 2 1
998 1131 955 642 414 165 138 64 161 370 393 319 135 52 3 4 2 4 3 0 65 91 93 0 0 0 0 0 0 0 0 0 0 0 0 0 0 0 0 1 1 2 2
925 932 801 560 313 200 26 9 13 95 135 125 67 8 2 3 3 3 3 13 87 108 84 0 0 0 0 0 0 0 0 0 0 0 0 0 0 0 0 0 1 1 2
928 698 632 414 288 196 159 16 2 2 6 4 4 2 2 2 3 3 2 35 89 111 98 11 0 0 0 0 0 0 0 0 0 0 0 0 0 0 0 0 1 1 1
734 585 483 370 393 151 98 25 0 0 2 3 3 0 0 2 1 11 2 59 109 103 100 36 0 0 0 0 0 0 0 0 0 0 0 0 0 0 0 0 0 1 1
565 501 453 336 386 143 66 127 7 0 0 2 2 0 0 1 0 0 1 42 76 80 40 2 0 0 0 0 0 0 0 0 0 0 0 0 0 0 0 0 0 0 0
559 431 463 344 295 244 163 265 41 0 0 0 0 0 0 0 0 0 0 0 18 3 0 0 0 0 0 0 0 0 0 0 0 0 0 0 0 0 0 0 0 0 0
647 435 506 386 238 287 172 244 139 1 0 0 0 0 0 0 0 0 0 0 0 0 0 0 0 0 0 0 0 0 0 0 0 0 0 0 0 0 0 0 0 0 0
559 593 615 457 270 219 189 138 130 15 0 0 0 0 0 0 0 0 0 0 0 0 0 0 0 0 0 0 0 0 0 0 0 0 0 0 0 0 0 0 0 0 0
176 293 710 521 350 259 196 95 70 52 0 0 0 0 0 0 0 0 0 0 0 0 0 0 0 0 0 0 0 0 0 0 0 0 0 0 0 0 0 0 0 0 0
124 128 796 602 385 299 224 75 12 12 6 0 0 0 0 0 0 0 0 0 0 0 0 0 0 0 0 0 0 0 0 0 0 0 0 0 0 0 44 45 12 3 0
103 62 817 711 515 409 252 98 0 0 11 18 0 0 0 0 0 0 0 0 0 0 0 0 0 0 4 0 0 0 0 0 0 0 0 0 0 0 0 50 90 67 52
268 615 915 830 749 516 297 108 3 0 0 0 0 7 0 1 17 3 0 2 1 0 0 3 9 4 0 0 0 0 0 0 0 0 0 0 0 0 0 0 0 7 60
643 974 961 813 727 610 336 127 44 1 9 14 0 0 0 15 58 75 52 34 23 13 7 10 8 3 6 0 0 0 0 0 0 0 0 0 0 0 0 0 0 0 4
963 966 967 807 788 623 311 205 116 52 26 21 0 0 0 0 6 52 61 60 38 35 28 10 22 0 0 0 0 0 0 0 0 0 0 0 0 0 0 0 0 0 9
492 752 1028 783 750 512 380 246 209 178 74 37 8 0 0 0 0 0 1 23 48 33 36 38 19 11 0 0 0 0 0 0 0 0 0 0 0 0 0 0 0 1 0
269 308 354 545 671 527 414 373 276 242 173 182 133 56 4 0 0 1 0 0 0 0 19 25 7 0 0 0 0 0 0 11 5 0 0 0 0 0 0 0 0 0 0
292 310 352 191 446 409 299 254 234 205 182 234 164 85 0 0 0 0 0 0 0 3 9 0 0 0 0 1 0 6 12 37 37 0 0 0 0 0 0 0 0 0 0
207 289 113 42 148 341 373 388 65 64 300 246 171 72 15 12 13 8 0 0 0 0 0 0 0 0 7 25 6 24 23 22 32 15 0 0 0 0 0 0 0 0 0
174 252 267 195 166 80 292 89 0 0 277 236 264 269 190 125 170 75 56 30 31 73 94 91 87 66 41 16 1 0 1 7 6 18 1 0 0 0 0 0 0 0 0
78 88 22 148 93 240 225 184 109 139 166 121 129 191 367 319 257 153 169 192 27 83 173 133 96 110 50 27 9 16 6 5 0 5 16 3 0 0 0 0 0 0 0

GFSSE_con_mlcape_111.txt.gz
CAPE
543 896 950 955 700 518 522 482 424 877 1004 870 756 697 614 431 153 34 1 0 13 81 33 17 7 33 4 14 80 48 85 2 0 0 0 1 95 173 128 17 9 16 10
613 1052 1101 925 757 597 518 499 407 553 928 748 689 747 646 477 254 19 5 6 14 8 29 11 13 13 11 122 113 107 54 8 0 0 0 0 0 99 48 14 19 18 6
794 1135 1110 842 720 589 482 520 481 385 843 744 711 658 513 442 110 5 8 10 9 20 86 145 23 8 10 59 47 37 39 0 0 0 0 29 81 98 72 7 4 10 4
970 1197 1076 710 557 403 367 732 677 741 904 840 686 497 618 438 48 7 4 10 13 22 132 133 80 1 2 2 3 2 0 0 0 0 0 0 1 1 6 5 6 1 0
1077 1173 975 530 473 261 500 883 742 866 926 676 506 443 478 111 6 2 3 13 11 82 102 38 39 2 0 0 0 0 0 0 0 0 0 0 0 5 4 0 0 1 2
1120 1162 853 568 390 190 636 898 863 769 661 538 420 310 90 7 3 2 5 4 42 63 53 40 0 0 0 0 0 0 0 0 0 0 0 0 1 3 1 1 2 2 2
1063 1140 858 587 387 173 565 858 857 774 608 428 282 68 11 4 1 2 0 5 86 0 8 51 0 0 0 0 0 0 0 0 0 0 0 0 0 3 1 1 1 2 2
1044 1041 867 529 355 180 421 714 699 689 525 358 132 31 4 3 3 1 0 74 90 0 14 56 0 0 0 0 0 0 0 0 0 0 0 0 0 0 1 2 2 1 1
988 938 812 455 253 180 115 457 484 450 388 178 50 6 4 3 3 3 55 96 73 0 0 39 0 0 0 0 0 0 0 0 0 0 0 0 0 1 1 1 1 1 1
853 862 535 368 219 150 40 72 186 165 107 24 2 1 1 2 3 2 42 21 46 30 0 0 0 0 0 0 0 0 0 0 0 0 0 0 1 0 0 1 0 0 1
712 628 440 266 236 137 19 0 3 7 0 1 0 0 2 6 7 1 3 6 24 30 0 0 0 0 0 0 0 0 0 0 0 0 0 0 0 0 0 0 0 0 0
629 506 426 233 116 95 25 3 3 0 2 5 1 2 13 13 11 4 7 11 6 24 0 0 0 0 0 0 0 0 0 0 0 0 0 0 0 0 0 0 0 0 0
558 530 447 279 120 77 54 10 3 2 0 0 0 0 7 7 8 7 14 12 2 0 0 0 0 0 0 0 0 0 0 0 0 0 0 0 0 0 0 0 0 0 0
552 559 543 424 161 130 194 22 4 1 0 0 0 0 3 3 3 3 3 2 0 0 0 0 0 0 0 0 0 0 0 0 0 0 0 0 0 0 0 0 0 0 0
634 608 561 461 331 127 82 40 5 1 0 0 1 1 1 1 0 0 0 0 0 0 0 0 0 0 0 0 0 0 0 0 0 0 0 0 0 0 0 0 0 0 0
495 717 723 491 452 213 75 27 3 2 0 0 1 0 0 0 0 0 0 0 0 0 0 0 0 0 0 0 0 0 0 0 0 0 0 0 0 0 11 21 8 0 0
291 843 845 691 360 247 142 81 15 0 0 0 0 0 0 0 0 0 0 0 0 0 0 0 0 0 0 0 0 0 0 0 0 0 0 0 0 0 0 27 58 41 33
435 722 914 797 479 282 102 62 17 12 1 0 0 0 0 0 0 0 0 0 0 0 0 0 1 8 9 0 0 0 0 0 0 0 0 0 0 0 0 0 0 6 15
512 741 776 595 551 300 121 63 17 0 0 0 0 0 0 0 0 0 0 0 0 2 6 9 12 24 30 15 0 0 0 0 0 0 0 0 0 0 0 0 0 0 0
394 819 942 598 620 353 150 49 8 0 0 0 0 4 11 21 40 48 26 23 20 23 24 23 41 23 24 2 0 0 0 0 0 0 0 0 0 0 0 0 0 0 2
576 779 808 817 635 349 214 114 53 20 0 0 0 0 0 11 34 66 97 79 59 69 63 39 33 39 8 0 0 0 0 0 0 0 2 7 2 0 0 0 0 0 0
257 627 830 802 684 369 282 219 166 90 5 19 19 0 0 0 0 7 14 22 60 65 42 29 21 11 0 0 0 0 0 0 0 0 0 5 1 0 0 1 0 0 0
214 354 783 853 727 477 395 232 171 118 81 46 45 25 2 0 0 2 2 3 9 6 10 2 11 9 3 1 1 18 3 0 0 0 0 0 0 0 0 0 0 0 0
8 130 358 404 220 379 234 214 191 232 229 177 167 121 82 20 0 0 0 0 0 0 0 0 0 0 17 9 2 12 7 21 11 19 0 0 0 0 0 0 0 0 0
193 177 130 71 34 24 142 207 143 140 172 234 185 169 92 16 0 0 0 0 6 40 17 9 1 21 31 26 36 9 1 2 3 20 13 0 0 0 0 0 0 0 0
113 205 167 10 41 32 35 101 76 20 34 176 177 154 103 65 33 42 19 39 73 12 2 2 63 60 53 47 37 43 33 18 12 4 1 0 0 0 0 0 0 0 0

GFSSE_con_mlcape_114.txt.gz
CAPE
539 1031 886 709 689 592 427 1168 1114 993 1026 1023 785 602 622 439 295 241 132 228 142 85 7 99 5 3 34 141 10 0 1 0 0 0 0 72 135 128 78 30 15 3 3
611 1068 1100 948 678 792 497 786 1267 1311 1073 991 888 574 580 388 61 0 65 135 141 19 12 7 0 65 157 185 11 2 0 0 0 0 0 0 11 57 24 5 5 3 1
676 1104 1131 804 645 687 654 505 1050 1080 975 974 947 791 496 324 142 2 58 5 39 50 11 17 17 165 107 30 70 14 13 6 0 1 32 36 33 14 4 0 0 1 2
809 1082 1046 816 775 738 662 375 770 1013 968 940 979 811 524 290 53 17 22 0 236 276 96 2 7 41 7 5 2 5 0 0 0 0 2 4 5 2 4 2 0 2 2
947 1064 1027 920 782 700 751 385 635 1086 1027 988 785 519 496 230 94 29 9 15 195 223 142 23 2 3 4 4 4 0 0 0 0 0 0 0 0 2 2 0 1 2 2
939 1016 1021 858 772 665 747 689 790 1080 1078 793 593 492 302 96 26 18 11 43 81 60 1 4 2 0 0 0 0 0 0 0 0 0 0 0 0 3 2 3 2 4 4
1059 1145 1006 805 645 814 999 923 968 1003 755 604 495 356 111 26 10 25 19 46 76 57 0 1 0 0 0 0 0 0 0 0 0 0 0 0 0 2 2 3 3 4 4
1077 1062 942 684 496 954 1153 950 889 838 766 627 439 151 19 4 5 2 64 74 47 37 2 1 0 0 0 0 0 0 0 0 0 0 0 0 1 4 3 2 2 1 2
1084 1078 933 585 244 905 1127 1020 835 751 627 466 166 35 5 3 0 0 131 72 8 3 0 0 0 0 0 0 0 0 0 0 0 0 0 0 0 2 2 1 1 0 1
1038 949 822 338 16 686 1046 880 814 664 517 255 43 1 3 1 0 51 141 70 0 5 0 0 0 0 0 0 0 0 0 0 0 0 0 0 1 2 2 1 0 0 0
916 850 743 208 4 7 810 630 602 529 270 36 0 0 1 0 3 78 89 0 0 0 0 0 0 0 0 0 0 0 0 0 0 0 0 0 1 1 1 1 1 1 1
727 739 600 109 13 4 144 410 417 280 125 11 0 5 0 0 7 75 45 10 2 0 0 0 0 0 0 0 0 0 0 0 0 0 0 0 0 0 0 0 0 0 0
413 646 508 131 75 9 8 354 353 115 84 8 11 0 0 1 11 29 21 9 13 0 0 0 0 0 0 0 0 0 0 0 0 0 0 0 0 0 0 0 0 0 0
234 528 471 211 81 6 5 2 47 99 48 11 3 1 8 17 8 18 11 55 8 4 0 0 0 0 0 0 0 0 0 0 0 0 0 0 0 0 0 0 0 0 0
8 324 401 232 46 6 0 0 0 2 3 1 0 7 7 16 11 19 50 77 11 1 0 0 0 0 0 0 0 0 0 0 0 0 0 0 0 0 0 0 0 0 0
106 265 458 311 29 122 37 0 0 0 0 1 0 9 14 10 4 2 2 2 1 0 0 0 0 0 0 0 0 0 0 0 0 0 0 0 0 0 1 3 1 0 0
63 428 524 436 106 169 151 72 0 0 0 0 1 4 15 9 3 0 0 0 0 0 0 0 0 0 0 0 4 0 0 0 0 0 0 0 0 0 0 87 91 74 14
1 358 757 570 343 135 153 97 29 0 0 0 1 1 2 0 0 0 0 0 0 0 0 0 0 1 43 43 33 12 1 0 0 0 0 0 0 0 0 0 3 59 102
0 74 539 499 416 330 194 199 88 91 0 0 0 0 0 0 0 0 0 0 0 0 4 18 34 59 66 54 16 4 0 0 0 0 0 0 0 0 6 1 0 0 3
0 74 634 529 380 470 346 355 238 311 234 129 0 0 0 0 0 0 0 0 15 31 37 35 49 53 71 40 0 0 0 0 0 0 0 0 0 0 5 5 12 0 0
59 304 422 658 463 367 169 95 69 81 101 145 208 211 103 66 63 52 54 70 103 114 98 90 107 91 62 22 15 2 0 0 0 0 2 0 2 18 44 52 66 32 23
209 288 454 568 487 413 226 218 186 187 151 117 152 170 141 137 173 182 173 167 150 140 156 112 86 70 134 39 15 11 32 10 0 0 0 0 1 4 13 0 5 9 0
83 184 403 508 522 424 392 286 225 197 103 128 132 57 40 56 62 115 131 132 144 150 119 136 155 202 128 7 0 39 36 28 26 0 0 0 0 0 0 0 0 0 0
141 198 315 558 459 535 695 351 276 164 116 57 179 172 34 10 23 52 33 31 55 97 84 48 75 121 15 3 0 9 35 52 34 10 0 0 0 0 0 0 0 0 0
144 20 247 354 481 495 500 281 297 299 317 342 294 225 150 76 76 24 14 49 16 25 17 13 2 18 2 40 43 49 22 24 3 1 0 0 0 0 0 0 0 0 0
6 15 22 135 154 217 205 188 162 185 200 225 254 223 204 127 45 3 5 9 16 11 2 3 24 16 32 46 72 48 23 10 4 1 4 0 0 0 0 0 0 0 0

GFSSE_con_mlcape_117.txt.gz
CAPE
752 1194 1220 1065 976 1226 1349 1288 953 1035 1172 1063 890 580 359 257 405 299 269 246 84 128 65 3 2 8 4 5 11 24 24 82 125 68 50 50 113 75 3 0 0 0 2
936 1044 1110 1087 1015 1091 1526 1214 1020 945 1162 1027 775 521 495 445 461 308 411 276 20 53 46 2 167 180 101 2 2 0 0 0 0 0 0 0 0 2 0 0 0 4 4
1047 916 917 1071 1016 886 1468 1313 1232 1166 1214 1055 729 794 642 488 299 358 405 278 64 2 5 231 199 173 110 101 64 63 0 0 5 30 11 10 5 3 0 0 2 5 5
1061 994 811 966 853 787 1100 1508 1436 1217 1172 1038 821 635 526 200 149 293 305 353 163 48 150 216 173 116 37 9 5 0 0 0 0 4 4 0 0 2 2 4 6 5 8
1112 1212 995 883 838 866 684 1354 1415 1267 1146 1088 874 602 476 287 75 139 44 174 125 59 23 66 63 25 9 4 1 0 0 0 0 0 0 0 0 2 3 4 3 5 8
1187 1102 1082 862 854 915 581 901 1308 1233 1057 1026 782 516 337 132 155 77 119 251 133 132 0 3 4 4 2 0 0 0 0 0 0 0 0 0 0 2 2 2 2 2 4
1171 1080 1082 885 847 937 649 615 1099 1150 994 905 685 468 295 117 122 165 175 113 91 75 0 2 0 0 0 0 0 0 0 0 0 0 0 0 1 2 2 2 5 4 4
1099 1276 1156 875 779 820 809 535 1081 1046 919 715 556 417 214 50 125 150 79 75 52 0 0 0 0 0 0 0 0 0 0 0 0 0 0 0 2 3 2 2 3 3 5
1062 1095 1000 892 704 716 861 779 1055 1022 812 515 434 268 60 61 50 101 48 77 103 0 0 0 0 0 0 0 0 0 0 0 0 0 0 0 2 2 2 2 2 2 2
1131 868 876 760 477 487 1112 870 970 868 575 381 263 28 3 1 33 61 0 37 7 0 0 0 0 0 0 0 0 0 0 0 0 0 0 0 3 3 2 2 1 1 1
936 867 793 617 153 248 891 812 647 616 423 189 7 0 5 3 4 79 15 4 9 0 0 0 0 0 0 0 0 0 0 0 0 0 0 0 1 1 0 0 0 0 0
221 732 685 419 31 128 696 835 555 437 276 25 0 0 0 0 34 187 26 0 4 26 32 13 0 0 0 0 0 0 0 0 0 0 0 0 0 0 0 0 0 0 0
13 574 453 387 3 69 437 581 435 383 139 2 0 2 0 0 33 119 19 0 0 0 4 0 0 0 1 0 0 0 0 0 0 0 0 0 0 0 0 0 0 0 0
24 0 102 228 4 16 187 333 299 214 91 2 2 0 0 2 60 29 19 8 0 0 0 0 0 0 0 0 0 0 0 0 0 0 0 0 0 0 0 0 0 0 0
57 1 15 19 12 4 124 284 331 138 23 43 30 0 1 7 20 20 16 23 4 1 0 0 0 0 0 0 0 0 0 0 0 0 0 0 0 0 0 0 0 0 0
12 89 13 83 217 13 7 212 259 130 64 20 5 3 8 10 17 2 27 103 49 23 1 0 0 0 0 0 0 0 0 0 0 0 0 0 0 0 0 1 0 0 0
0 267 150 216 122 13 4 4 16 90 17 1 2 10 9 12 15 75 74 61 42 12 0 0 0 0 0 0 0 0 0 0 0 0 0 0 0 0 0 59 96 58 0
6 108 76 69 135 24 6 9 8 8 8 1 0 10 12 13 13 15 17 10 3 0 0 0 0 0 2 33 41 16 5 0 0 0 0 0 0 0 0 1 42 111 120
0 8 157 156 129 189 135 37 6 0 4 1 1 7 9 8 7 4 2 0 0 0 0 0 0 1 53 58 40 20 0 0 0 0 0 0 0 0 4 8 3 8 22
3 0 31 172 207 376 331 138 16 0 0 1 2 0 2 1 0 0 0 0 0 0 10 27 44 70 74 86 29 0 0 0 0 0 0 0 0 0 0 12 6 2 0
4 0 46 293 308 382 240 224 116 9 0 0 0 0 0 0 0 0 0 0 0 35 47 49 70 108 118 79 12 0 0 2 0 0 0 0 4 15 25 34 59 63 2
0 6 4 247 383 288 217 280 270 373 222 71 3 0 0 0 0 0 3 32 75 105 94 138 195 203 214 197 40 30 31 27 0 0 0 0 0 6 11 9 7 35 44
0 5 7 50 362 321 256 317 308 307 326 262 236 210 124 73 52 60 93 96 144 145 210 268 246 260 242 188 38 68 22 18 58 0 0 0 0 0 0 0 0 0 0
0 0 86 65 227 379 359 235 183 195 165 165 194 155 155 142 198 191 188 189 224 226 242 250 277 326 326 189 15 14 45 50 17 16 0 0 0 0 0 0 0 0 0
0 0 43 76 134 344 270 280 334 288 207 154 209 169 122 85 95 134 107 69 106 173 243 241 151 159 84 30 67 130 34 38 58 5 5 0 0 0 0 0 0 0 0
27 16 33 70 48 335 245 209 283 336 301 175 232 214 128 69 54 36 52 94 123 131 102 22 11 33 80 101 151 114 60 48 30 7 0 1 2 0 0 0 0 0 0

GFSSE_con_mlcape_120.txt.gz
CAPE
1302 1074 1549 1201 1284 1555 1513 1346 1282 1254 1049 1010 494 602 499 283 444 181 152 74 56 7 3 2 3 4 90 112 111 130 162 161 102 28 21 5 7 2 0 0 0 1 4
1474 1210 1393 1225 1331 1530 1496 1316 1263 1227 1015 1020 719 542 360 541 486 348 304 183 264 0 3 184 21 7 7 3 3 0 2 0 0 0 0 0 0 0 1 2 3 8 8
1345 1332 1347 1193 1229 1529 1552 1237 1059 1184 1003 962 717 495 582 557 478 530 280 161 222 1 229 186 57 5 6 5 4 113 0 57 34 0 0 0 0 1 3 1 7 9 8
1209 1215 1276 1266 1191 1508 1486 1272 1058 1245 1042 883 707 744 673 550 556 455 273 180 17 299 202 198 200 104 36 1 0 0 0 0 11 2 0 0 0 4 8 8 10 7 9
1053 930 1042 1226 1171 1461 1368 1394 1167 1244 1050 861 804 690 669 458 487 543 234 127 265 195 150 143 24 2 5 0 0 0 0 0 0 0 0 0 0 6 4 4 6 4 8
1123 799 955 994 1042 1234 1495 1329 1282 1147 1075 926 767 610 378 323 236 436 235 215 61 38 52 0 11 6 4 0 0 0 0 0 0 0 0 0 0 3 2 2 5 5 8
1210 1007 897 753 885 952 1172 1242 1373 1194 1070 872 776 579 239 293 302 207 99 76 0 0 0 2 4 1 0 0 0 0 0 0 0 0 0 0 1 2 2 3 5 5 5
1302 1256 1057 717 622 742 995 1126 1283 1196 1036 864 665 381 201 82 385 158 127 93 24 0 0 0 0 0 0 0 0 0 0 0 0 0 0 0 1 3 2 1 1 3 2
1309 1241 1120 826 743 815 759 986 1097 1097 977 772 498 251 141 73 300 157 80 6 0 0 0 0 0 0 0 0 0 0 0 0 0 0 0 0 2 2 1 1 1 2 1
1376 1288 1078 827 740 677 685 669 994 1028 895 614 352 174 105 129 133 74 55 0 0 0 0 0 0 0 0 0 0 0 0 0 0 0 0 0 3 2 2 1 1 1 1
1192 1280 1050 887 740 628 604 665 962 821 637 341 171 25 8 43 24 9 19 0 0 0 0 0 0 0 0 0 0 0 0 0 0 0 0 1 4 3 1 2 0 1 1
690 966 974 898 617 466 741 783 775 575 293 103 3 2 1 1 13 11 8 0 0 0 0 0 0 0 0 0 0 0 0 0 0 0 0 0 0 1 0 0 0 0 0
489 837 967 838 471 318 569 781 605 394 112 4 1 0 0 0 25 17 8 12 0 0 0 0 0 0 0 0 0 0 0 0 0 0 0 0 0 0 0 0 0 0 0
0 0 696 504 444 338 756 656 431 242 37 1 0 0 0 3 30 12 2 0 0 0 0 0 0 0 0 0 0 0 0 0 0 0 0 0 0 0 0 0 0 0 0
0 0 13 140 2 41 644 645 505 234 35 4 15 0 0 5 20 15 0 0 0 0 0 0 0 0 0 0 0 0 0 0 0 0 0 0 0 0 0 0 0 0 0
0 0 0 61 1 0 441 604 506 248 61 18 22 0 0 12 12 9 1 0 0 0 0 0 0 0 0 0 0 0 0 0 0 0 0 0 0 0 0 0 0 0 0
0 0 0 0 3 0 22 505 409 223 143 43 37 0 0 7 10 3 3 0 0 2 0 0 0 0 0 0 0 0 0 0 0 0 0 0 0 0 0 34 65 55 52
1 0 0 12 1 0 2 372 309 247 138 10 2 0 12 12 14 0 1 30 7 0 0 0 0 0 0 1 17 0 0 0 0 0 0 0 0 0 0 0 53 100 146
11 0 0 13 0 1 11 33 180 246 21 0 2 0 2 8 15 6 8 1 0 0 0 0 0 0 5 38 22 7 0 0 0 0 0 0 0 0 1 10 11 20 29
2 0 0 0 36 12 13 6 0 0 0 0 1 0 0 16 9 0 0 0 0 0 0 0 0 1 44 45 26 0 0 0 0 0 0 0 0 0 0 1 14 9 11
2 19 0 17 20 46 1 5 0 0 0 0 0 6 3 1 0 0 0 0 0 0 0 0 24 51 73 50 14 0 0 0 0 0 0 0 0 0 0 3 23 1 1
1 40 12 1 88 51 31 14 0 0 0 0 0 4 2 0 0 0 0 0 0 0 23 32 57 67 71 46 0 0 4 0 0 0 0 0 0 0 0 0 4 12 6
57 52 11 0 98 180 81 80 20 0 0 0 1 0 0 0 0 0 0 0 12 60 77 78 131 129 83 38 7 5 1 2 25 0 0 0 0 0 0 0 4 1 0
118 70 0 7 55 189 101 68 56 0 1 0 0 0 0 0 0 0 16 32 106 122 126 179 171 142 191 87 4 1 1 3 2 7 0 0 0 0 0 0 0 0 0
83 32 77 47 2 1 96 186 169 119 84 114 63 26 2 10 39 81 70 145 180 188 202 183 127 111 87 59 20 23 19 0 0 1 0 0 0 0 0 0 0 0 0
74 1 44 36 5 19 67 239 156 168 152 194 178 144 90 150 131 127 141 155 175 178 179 128 80 64 46 31 47 58 10 0 1 0 0 0 1 0 0 0 0 0 0

GFSSE_con_mlcape_123.txt.gz
CAPE
1176 1499 1595 1410 1585 1618 1416 1334 1153 1087 629 502 613 573 296 241 163 6 0 3 2 11 16 9 106 134 156 142 114 163 180 106 15 0 0 1 0 2 1 1 0 2 4
1233 1559 1558 1516 1756 1704 1530 1410 1164 1113 799 639 740 630 514 343 330 188 165 97 1 2 1 7 120 75 64 62 83 98 45 0 0 0 0 0 0 4 4 3 4 8 7
1294 1462 1389 1564 1770 1636 1535 1347 1191 1075 1015 724 772 553 756 619 547 270 368 149 8 234 156 3 12 6 9 167 161 146 105 6 0 0 0 0 0 2 6 5 8 9 5
1332 1300 1331 1450 1647 1602 1463 1305 1156 1079 1136 923 642 725 656 632 647 337 465 139 333 316 89 23 63 37 68 0 0 0 0 8 0 0 0 0 1 8 8 5 8 6 7
1337 1288 1189 1332 1531 1513 1274 1296 1121 1080 1087 935 745 726 646 688 633 390 284 368 299 192 92 26 1 0 0 0 0 0 0 0 0 0 0 0 1 8 9 4 9 8 12
1205 1157 1261 1164 1417 1455 1367 1116 1251 1122 1062 925 756 718 558 553 530 436 346 241 154 95 76 0 0 0 0 0 0 0 0 0 0 0 0 0 1 9 9 8 12 11 11
976 1152 1173 1085 1111 1370 1324 1212 1238 1201 1053 963 730 714 488 568 474 422 179 104 51 0 0 1 0 0 0 0 0 0 0 0 0 0 0 0 4 9 8 9 7 6 10
973 954 1060 1111 908 1207 1254 1191 1132 1121 1046 942 697 648 302 289 488 291 107 13 1 0 1 3 3 0 0 0 0 0 0 0 0 0 0 0 5 5 4 6 4 5 4
980 948 874 925 860 752 1152 1034 1086 1094 1066 871 691 504 393 281 254 179 94 0 0 0 0 0 0 0 0 0 0 0 0 0 0 0 0 0 3 3 2 2 2 4 7
1004 947 930 574 620 667 698 997 1118 1114 956 809 504 346 223 94 151 138 87 0 0 0 0 0 0 0 0 0 0 0 0 0 0 0 0 0 2 2 2 2 1 1 3
659 807 960 739 763 838 629 696 768 861 789 681 314 142 54 70 83 19 8 0 0 0 0 0 0 0 0 0 0 0 0 0 0 0 0 1 1 1 1 0 0 1 1
180 532 844 837 756 738 704 541 699 797 732 459 155 118 52 31 16 0 0 0 0 0 0 0 0 0 0 0 0 0 0 0 0 0 0 0 2 1 1 0 0 0 0
4 69 271 691 668 624 683 542 603 666 394 191 49 18 12 10 9 6 0 0 0 0 0 0 0 0 0 0 0 0 0 0 0 0 0 0 0 1 0 0 0 0 0
0 2 0 0 566 475 619 484 491 377 186 42 4 0 14 8 0 4 0 0 0 0 0 0 0 0 0 0 0 0 0 0 0 0 0 0 0 0 0 0 0 0 0
0 0 0 0 47 340 574 411 426 335 128 40 0 0 9 8 0 0 0 0 0 0 0 0 0 0 0 0 0 0 0 0 0 0 0 0 0 0 0 0 0 0 0
0 0 0 0 0 25 545 452 447 392 220 41 0 0 3 12 0 0 0 0 0 0 0 0 0 0 0 0 0 0 0 0 0 0 0 0 0 0 0 0 0 2 0
0 0 0 0 0 0 1 15 133 425 262 73 0 0 0 17 0 0 0 0 0 0 0 0 0 0 0 0 0 0 0 0 0 0 0 0 0 0 0 26 64 63 65
0 0 0 0 0 0 1 0 0 357 215 112 6 0 0 4 0 0 0 0 0 0 0 0 0 0 0 0 0 0 0 0 0 0 0 0 0 0 0 1 54 138 146
0 0 0 0 0 0 2 0 0 66 241 156 3 0 0 0 0 0 0 0 0 0 0 0 0 0 0 0 7 0 0 0 0 0 0 0 0 0 0 0 4 31 65
5 0 0 0 0 0 24 2 0 9 243 118 1 0 1 0 0 0 0 0 0 0 0 0 0 0 2 17 5 0 0 0 0 0 0 0 0 0 0 0 0 7 12
80 32 2 0 0 0 31 3 48 113 60 7 0 0 2 0 7 4 0 0 0 0 0 0 0 0 10 8 0 0 0 0 0 0 0 0 0 0 0 0 0 0 0
114 64 33 0 2 0 58 12 31 62 5 2 0 0 1 0 3 3 0 0 0 0 0 0 0 25 35 11 7 0 0 0 0 0 0 0 0 0 0 0 0 9 6
110 146 55 12 4 0 84 0 1 5 4 6 24 1 0 1 3 0 0 0 0 0 0 0 30 36 35 22 8 0 0 0 0 0 0 0 0 0 0 0 0 0 0
78 42 107 90 0 4 87 0 0 0 3 0 4 0 0 1 2 0 0 0 0 0 8 28 57 66 80 35 3 0 0 0 0 0 0 0 0 0 0 0 0 0 0
91 48 155 135 38 50 102 2 0 0 0 0 0 0 0 5 0 0 0 0 0 13 56 79 108 123 116 31 18 0 0 0 0 0 0 0 0 0 0 0 0 0 0
49 128 283 155 54 0 0 14 5 2 15 8 4 1 0 2 0 0 0 0 39 88 91 108 128 118 104 84 26 5 0 0 0 0 0 0 0 0 0 0 0 0 0